[[{"header":{"parameterUnit":"m.s-1","parameterCategory":1,"la1":30.6,"la2":28.766,"lo1":-90.7593,"lo2":-88.6598,"dy":0.0162,"dx":0.0183,"nx":116,"ny":114,"refTime":"2023-03-31T06:00:00:Z","depth":0,"parameterNumber":2,"parameterNumberName":"U-component_of_WINDS"},"data":[0.0,0.0,0.0,0.0,0.0,0.0,0.0,0.0,0.0,0.0,0.0,0.0,0.0,0.0,0.0,0.0,0.0,0.0,0.0,0.0,0.0,0.0,0.0,0.0,0.0,0.0,0.0,0.0,0.0,0.0,0.0,0.0,0.0,0.0,0.0,0.0,0.0,0.0,0.0,0.0,0.0,0.0,0.0,0.0,0.0,0.0,0.0,0.0,0.0,0.0,0.0,0.0,0.0,0.0,0.0,0.0,0.0,0.0,0.0,0.0,0.0,0.0,0.0,0.0,0.0,0.0,0.0,0.0,0.0,0.0,0.0,0.0,0.0,0.0,0.0,0.0,0.0,0.0,0.0,0.0,0.0,0.0,0.0,0.0,0.0,0.0,0.0,0.0,0.0,0.0,0.0,0.0,0.0,0.0,0.0,0.0,0.0,0.0,0.0,0.0,0.0,0.0,0.0,0.0,0.0,0.0,0.0,0.0,0.0,0.0,0.0,0.0,0.0,0.0,0.0,0.0,0.0,0.0,0.0,0.0,0.0,0.0,0.0,0.0,0.0,0.0,0.0,0.0,0.0,0.0,0.0,0.0,0.0,0.0,0.0,0.0,0.0,0.0,0.0,0.0,0.0,0.0,0.0,0.0,0.0,0.0,0.0,0.0,0.0,0.0,0.0,0.0,0.0,0.0,0.0,0.0,0.0,0.0,0.0,0.0,0.0,0.0,0.0,0.0,0.0,0.0,0.0,0.0,0.0,0.0,0.0,0.0,0.0,0.0,0.0,0.0,0.0,0.0,0.0,0.0,0.0,0.0,0.0,0.0,0.0,0.0,0.0,0.0,0.0,0.0,0.0,0.0,0.0,0.0,0.0,0.0,0.0,0.0,0.0,0.0,0.0,0.0,0.0,0.0,0.0,0.0,0.0,0.0,0.0,0.0,0.0,0.0,0.0,0.0,0.0,0.0,0.0,0.0,0.0,0.0,0.0,0.0,0.0,0.0,0.0,0.0,0.0,0.0,0.0,0.0,0.0,0.0,0.0,0.0,0.0,0.0,0.0,0.0,0.0,0.0,0.0,0.0,0.0,0.0,0.0,0.0,0.0,0.0,0.0,0.0,0.0,0.0,0.0,0.0,0.0,0.0,0.0,0.0,0.0,0.0,0.0,0.0,0.0,0.0,0.0,0.0,0.0,0.0,0.0,0.0,0.0,0.0,0.0,0.0,0.0,0.0,0.0,0.0,0.0,0.0,0.0,0.0,0.0,0.0,0.0,0.0,0.0,0.0,0.0,0.0,0.0,0.0,0.0,0.0,0.0,0.0,0.0,0.0,0.0,0.0,0.0,0.0,0.0,0.0,0.0,0.0,0.0,0.0,0.0,0.0,0.0,0.0,0.0,0.0,0.0,0.0,0.0,0.0,0.0,0.0,0.0,0.0,0.0,0.0,0.0,0.0,0.0,0.0,0.0,0.0,0.0,0.0,0.0,0.0,0.0,0.0,0.0,0.0,0.0,0.0,0.0,0.0,0.0,0.0,0.0,0.0,0.0,0.0,0.0,0.0,0.0,0.0,0.0,0.0,0.0,0.0,0.0,0.0,0.0,0.0,0.0,0.0,0.0,0.0,0.0,0.0,0.0,0.0,0.0,0.0,0.0,0.0,0.0,0.0,0.0,0.0,0.0,0.0,0.0,0.0,0.0,0.0,0.0,0.0,0.0,0.0,0.0,0.0,0.0,0.0,0.0,0.0,0.0,0.0,0.0,0.0,0.0,0.0,0.0,0.0,0.0,0.0,0.0,0.0,0.0,0.0,0.0,0.0,0.0,0.0,0.0,0.0,0.0,0.0,0.0,0.0,0.0,0.0,0.0,0.0,0.0,0.0,0.0,0.0,0.0,0.0,0.0,0.0,0.0,0.0,0.0,0.0,0.0,0.0,0.0,0.0,0.0,0.0,0.0,0.0,0.0,0.0,0.0,0.0,0.0,0.0,0.0,0.0,0.0,0.0,0.0,0.0,0.0,0.0,0.0,0.0,0.0,0.0,0.0,0.0,0.0,0.0,0.0,0.0,0.0,0.0,0.0,0.0,0.0,0.0,0.0,0.0,0.0,0.0,0.0,0.0,0.0,0.0,0.0,0.0,0.0,0.0,0.0,0.0,0.0,0.0,0.0,0.0,0.0,0.0,0.0,0.0,0.0,0.0,0.0,0.0,0.0,0.0,0.0,0.0,0.0,0.0,0.0,0.0,0.0,0.0,0.0,0.0,0.0,0.0,0.0,0.0,0.0,0.0,0.0,0.0,0.0,0.0,0.0,0.0,0.0,0.0,0.0,0.0,0.0,0.0,0.0,0.0,0.0,0.0,0.0,0.0,0.0,0.0,0.0,0.0,0.0,0.0,0.0,0.0,0.0,0.0,0.0,0.0,0.0,0.0,0.0,0.0,0.0,0.0,0.0,0.0,0.0,0.0,0.0,0.0,0.0,0.0,0.0,0.0,0.0,0.0,0.0,0.0,0.0,0.0,0.0,0.0,0.0,0.0,0.0,0.0,0.0,0.0,0.0,0.0,0.0,0.0,0.0,0.0,0.0,0.0,0.0,0.0,0.0,0.0,0.0,0.0,0.0,0.0,0.0,0.0,0.0,0.0,0.0,0.0,0.0,0.0,0.0,0.0,0.0,0.0,0.0,0.0,0.0,0.0,0.0,0.0,0.0,0.0,0.0,0.0,0.0,0.0,0.0,0.0,0.0,0.0,0.0,0.0,0.0,0.0,0.0,0.0,0.0,0.0,0.0,0.0,0.0,0.0,0.0,0.0,0.0,0.0,0.0,0.0,0.0,0.0,0.0,0.0,0.0,0.0,0.0,0.0,0.0,0.0,0.0,0.0,0.0,0.0,0.0,0.0,0.0,0.0,0.0,0.0,0.0,0.0,0.0,0.0,0.0,0.0,0.0,0.0,0.0,0.0,0.0,0.0,0.0,0.0,0.0,0.0,0.0,0.0,0.0,0.0,0.0,0.0,0.0,0.0,0.0,0.0,0.0,0.0,0.0,0.0,0.0,0.0,0.0,0.0,0.0,0.0,0.0,0.0,0.0,0.0,0.0,0.0,0.0,0.0,0.0,0.0,0.0,0.0,0.0,0.0,0.0,0.0,0.0,0.0,0.0,0.0,0.0,0.0,0.0,0.0,0.0,0.0,0.0,0.0,0.0,0.0,0.0,0.0,0.0,0.0,0.0,0.0,0.0,0.0,0.0,0.0,0.0,0.0,0.0,0.0,0.0,0.0,0.0,0.0,0.0,0.0,0.0,0.0,0.0,0.0,0.0,0.0,0.0,0.0,0.0,0.0,0.0,0.0,0.0,0.0,0.0,0.0,0.0,0.0,0.0,0.0,0.0,0.0,0.0,0.0,0.0,0.0,0.0,0.0,0.0,0.0,0.0,0.0,0.0,0.0,0.0,0.0,0.0,0.0,0.0,0.0,0.0,0.0,0.0,0.0,0.0,0.0,0.0,0.0,0.0,0.0,0.0,0.0,0.0,0.0,0.0,0.0,0.0,0.0,0.0,0.0,0.0,0.0,0.0,0.0,0.0,0.0,0.0,0.0,0.0,0.0,0.0,0.0,0.0,0.0,0.0,0.0,0.0,0.0,0.0,0.0,0.0,0.0,0.0,0.0,0.0,0.0,0.0,0.0,0.0,0.0,0.0,0.0,0.0,0.0,0.0,0.0,0.0,0.0,0.0,0.0,0.0,0.0,0.0,0.0,0.0,0.0,0.0,0.0,0.0,0.0,0.0,0.0,0.0,0.0,0.0,0.0,0.0,0.0,0.0,0.0,0.0,0.0,0.0,0.0,0.0,0.0,0.0,0.0,0.0,0.0,0.0,0.0,0.0,0.0,0.0,0.0,0.0,0.0,0.0,0.0,0.0,0.0,0.0,0.0,0.0,0.0,0.0,0.0,0.0,0.0,0.0,0.0,0.0,0.0,0.0,0.0,0.0,0.0,0.0,0.0,0.0,0.0,0.0,0.0,0.0,0.0,0.0,0.0,0.0,0.0,0.0,0.0,0.0,0.0,0.0,0.0,0.0,0.0,0.0,0.0,0.0,0.0,0.0,0.0,0.0,0.0,0.0,0.0,0.0,0.0,0.0,0.0,0.0,0.0,0.0,0.0,0.0,0.0,0.0,0.0,0.0,0.0,0.0,0.0,0.0,0.0,0.0,0.0,0.0,0.0,0.0,0.0,0.0,0.0,0.0,0.0,0.0,0.0,0.0,0.0,0.0,0.0,0.0,0.0,0.0,0.0,0.0,0.0,0.0,0.0,0.0,0.0,0.0,0.0,0.0,0.0,0.0,0.0,0.0,0.0,0.0,0.0,0.0,0.0,0.0,0.0,0.0,0.0,0.0,0.0,0.0,0.0,0.0,0.0,0.0,0.0,0.0,0.0,0.0,0.0,0.0,0.0,0.0,0.0,0.0,0.0,0.0,0.0,0.0,0.0,0.0,0.0,0.0,0.0,0.0,0.0,0.0,0.0,0.0,0.0,0.0,0.0,0.0,0.0,0.0,0.0,0.0,0.0,0.0,0.0,0.0,0.0,0.0,0.0,0.0,0.0,0.0,0.0,0.0,0.0,0.0,0.0,0.0,0.0,0.0,0.0,0.0,0.0,0.0,0.0,0.0,0.0,0.0,0.0,0.0,0.0,0.0,0.0,0.0,0.0,0.0,0.0,0.0,0.0,0.0,0.0,0.0,0.0,0.0,0.0,0.0,0.0,0.0,0.0,0.0,0.0,0.0,0.0,0.0,0.0,0.0,0.0,0.0,0.0,0.0,0.0,0.0,0.0,0.0,0.0,0.0,0.0,0.0,0.0,0.0,0.0,0.0,0.0,0.0,0.0,0.0,0.0,0.0,0.0,0.0,0.0,0.0,0.0,0.0,0.0,0.0,0.0,0.0,0.0,0.0,0.0,0.0,0.0,0.0,0.0,0.0,0.0,0.0,0.0,0.0,0.0,0.0,0.0,0.0,0.0,0.0,0.0,0.0,0.0,0.0,0.0,0.0,0.0,0.0,0.0,0.0,0.0,0.0,0.0,0.0,0.0,0.0,0.0,0.0,0.0,0.0,0.0,0.0,0.0,0.0,0.0,0.0,0.0,0.0,0.0,0.0,0.0,0.0,0.0,0.0,0.0,0.0,0.0,0.0,0.0,0.0,0.0,0.0,0.0,0.0,0.0,0.0,0.0,0.0,0.0,0.0,0.0,0.0,0.0,0.0,0.0,0.0,0.0,0.0,0.0,0.0,0.0,0.0,0.0,0.0,0.0,0.0,0.0,0.0,0.0,0.0,0.0,0.0,0.0,0.0,0.0,0.0,0.0,0.0,0.0,0.0,0.0,0.0,0.0,0.0,0.0,0.0,0.0,0.0,0.0,0.0,0.0,0.0,0.0,0.0,0.0,0.0,0.0,0.0,0.0,0.0,0.0,0.0,0.0,0.0,0.0,0.0,0.0,0.0,0.0,0.0,0.0,0.0,0.0,0.0,0.0,0.0,0.0,0.0,0.0,0.0,0.0,0.0,0.0,0.0,0.0,0.0,0.0,0.0,0.0,0.0,0.0,0.0,0.0,0.0,0.0,0.0,0.0,0.0,0.0,0.0,0.0,0.0,0.0,0.0,0.0,0.0,0.0,0.0,0.0,0.0,0.0,0.0,0.0,0.0,0.0,0.0,0.0,0.0,0.0,0.0,0.0,0.0,0.0,0.0,0.0,0.0,0.0,0.0,0.0,0.0,0.0,0.0,0.0,0.0,0.0,0.0,0.0,0.0,0.0,0.0,0.0,0.0,0.0,0.0,0.0,0.0,0.0,0.0,0.0,0.0,0.0,0.0,0.0,0.0,0.0,0.0,0.0,0.0,0.0,0.0,0.0,0.0,0.0,0.0,0.0,0.0,0.0,0.0,0.0,0.0,0.0,0.0,0.0,0.0,0.0,0.0,0.0,0.0,0.0,0.0,0.0,0.0,0.0,0.0,0.0,0.0,0.0,0.0,0.0,0.0,0.0,0.0,0.0,0.0,0.0,0.0,0.0,0.0,0.0,0.0,0.0,0.0,0.0,0.0,0.0,0.0,0.0,-4.2275,0.0,0.0,0.0,0.0,0.0,0.0,0.0,0.0,0.0,0.0,0.0,0.0,0.0,0.0,0.0,0.0,0.0,0.0,0.0,0.0,0.0,0.0,0.0,0.0,0.0,0.0,0.0,0.0,0.0,0.0,0.0,0.0,0.0,0.0,0.0,0.0,0.0,0.0,0.0,-3.2856,-3.3036,-3.3036,-3.4053,-3.4891,-3.5519,0.0,0.0,0.0,0.0,0.0,0.0,0.0,0.0,0.0,0.0,0.0,0.0,0.0,0.0,0.0,0.0,0.0,0.0,0.0,0.0,0.0,0.0,0.0,0.0,0.0,0.0,0.0,0.0,0.0,0.0,0.0,0.0,0.0,0.0,0.0,0.0,0.0,0.0,0.0,0.0,0.0,0.0,0.0,0.0,0.0,0.0,0.0,0.0,0.0,0.0,0.0,0.0,0.0,0.0,0.0,0.0,0.0,0.0,0.0,0.0,0.0,0.0,0.0,0.0,0.0,0.0,0.0,0.0,0.0,0.0,0.0,-4.3685,0.0,0.0,0.0,0.0,0.0,0.0,0.0,0.0,0.0,0.0,0.0,0.0,0.0,0.0,0.0,0.0,0.0,0.0,0.0,0.0,0.0,0.0,0.0,0.0,-3.2318,-3.1899,-3.2348,-3.2378,0.0,0.0,0.0,0.0,0.0,0.0,0.0,-3.2946,-3.3185,-3.2527,-3.2527,-3.2647,-3.2856,-3.3425,-3.4382,-3.5699,-3.5998,0.0,0.0,0.0,0.0,0.0,0.0,0.0,0.0,0.0,0.0,0.0,0.0,0.0,0.0,0.0,0.0,0.0,0.0,0.0,0.0,0.0,0.0,0.0,0.0,0.0,0.0,0.0,0.0,0.0,0.0,0.0,0.0,0.0,0.0,0.0,0.0,0.0,0.0,0.0,0.0,0.0,0.0,0.0,0.0,0.0,0.0,0.0,0.0,0.0,0.0,0.0,0.0,0.0,0.0,0.0,0.0,0.0,0.0,0.0,0.0,0.0,0.0,0.0,-4.4646,-4.5603,-4.6681,-4.7459,-4.7878,-4.7981,-4.7871,-4.6031,-4.3259,0.0,0.0,0.0,0.0,0.0,0.0,0.0,0.0,0.0,0.0,0.0,0.0,0.0,0.0,0.0,0.0,0.0,0.0,0.0,0.0,0.0,0.0,-3.2437,-3.2706,-3.3185,-3.3305,-3.3095,0.0,0.0,0.0,0.0,0.0,0.0,-3.3245,-3.3395,-3.3185,-3.2527,-3.2527,-3.3095,-3.4264,-3.4324,-3.5102,-3.6297,-3.5252,-3.5462,-3.6596,0.0,0.0,0.0,0.0,0.0,0.0,0.0,0.0,0.0,0.0,0.0,0.0,0.0,0.0,0.0,0.0,0.0,0.0,0.0,0.0,0.0,0.0,0.0,0.0,0.0,0.0,0.0,0.0,0.0,0.0,0.0,0.0,0.0,0.0,0.0,0.0,0.0,0.0,0.0,0.0,0.0,-3.6776,-3.7225,0.0,0.0,0.0,0.0,0.0,0.0,0.0,0.0,0.0,0.0,0.0,0.0,0.0,0.0,-4.4699,-4.5226,-4.5622,-4.5891,-4.7189,-4.7848,-4.8087,-4.9239,-5.0106,-5.075,-5.185,0.0,-4.5783,-4.559,0.0,0.0,0.0,0.0,0.0,0.0,0.0,0.0,0.0,0.0,0.0,0.0,0.0,0.0,0.0,0.0,0.0,0.0,0.0,0.0,0.0,-3.2856,-3.3036,-3.2946,-3.3634,-3.3604,-3.2587,-3.3484,0.0,0.0,0.0,-3.3873,-3.3514,-3.3873,-3.3544,-3.2527,-3.3245,-3.3544,-3.3395,-3.4174,-3.4833,-3.5402,-3.5552,-3.6327,-3.7494,-3.6776,0.0,0.0,0.0,0.0,0.0,0.0,0.0,0.0,0.0,0.0,0.0,0.0,0.0,0.0,0.0,0.0,0.0,0.0,0.0,0.0,0.0,0.0,0.0,0.0,0.0,0.0,0.0,0.0,0.0,0.0,0.0,0.0,0.0,0.0,0.0,0.0,0.0,0.0,0.0,-3.8691,-3.905,-3.8601,-3.9439,-3.9918,0.0,0.0,0.0,0.0,0.0,0.0,0.0,0.0,0.0,-4.3593,-4.3536,-4.3868,-4.4736,-4.5783,-4.6681,-4.7459,-4.9494,-5.069,-5.1079,-5.2785,-5.3922,-5.461,-5.5927,-5.473,-5.1708,-4.9523,-4.7967,-4.6916,0.0,0.0,0.0,0.0,0.0,-4.8638,0.0,0.0,0.0,0.0,0.0,0.0,0.0,0.0,0.0,0.0,0.0,0.0,-3.2946,-3.3305,-3.3455,-3.3305,-3.4173,-3.4262,-3.3095,-3.3933,0.0,0.0,-3.4414,-3.4502,-3.4023,-3.4143,-3.3814,-3.3006,-3.3814,-3.3993,-3.3544,-3.4532,-3.5192,-3.5552,-3.6357,-3.7345,-3.8332,-3.7195,-3.7075,-3.7554,0.0,0.0,0.0,0.0,0.0,0.0,0.0,0.0,0.0,0.0,0.0,0.0,0.0,0.0,0.0,0.0,0.0,0.0,0.0,0.0,0.0,0.0,0.0,0.0,0.0,0.0,0.0,0.0,0.0,0.0,0.0,0.0,0.0,0.0,0.0,0.0,0.0,-3.9798,-4.0307,-3.9529,-4.0427,-4.0876,0.0,0.0,0.0,0.0,0.0,0.0,-4.3455,-4.3865,-4.4366,-4.5065,-4.5244,-4.5574,-4.6082,-4.7249,-4.8416,-4.9553,-5.1708,-5.3144,-5.4012,-5.5658,-5.6765,-5.7423,-5.859,-5.8381,-5.6915,-5.3593,-5.1079,-4.9254,-4.8773,-4.8396,-4.8295,-4.9998,-5.063,-5.0774,0.0,0.0,0.0,0.0,0.0,0.0,0.0,0.0,0.0,0.0,0.0,-3.1569,-3.4144,-3.3844,-3.3993,-3.525,-3.54,-3.516,-3.4444,-3.4474,-3.4503,-3.4444,-3.507,-3.5429,-3.54,-3.4173,-3.3814,-3.4414,-3.3814,-3.4472,-3.6297,-3.6357,-3.7015,-3.8153,-3.7614,-3.7734,-3.8332,-3.7644,-3.7734,-3.8242,-3.6956,0.0,0.0,0.0,0.0,0.0,0.0,0.0,0.0,0.0,0.0,0.0,0.0,0.0,0.0,0.0,0.0,0.0,0.0,0.0,0.0,0.0,0.0,0.0,0.0,0.0,0.0,0.0,0.0,0.0,0.0,0.0,0.0,0.0,0.0,0.0,0.0,0.0,0.0,-3.9313,-4.0038,0.0,0.0,0.0,0.0,-4.134,-4.3638,-4.4567,-4.3468,-4.5125,-4.6471,-4.713,-4.7758,-4.8985,-5.084,-5.1558,-5.2247,-5.2935,-5.3743,-5.479,-5.6098,-5.6735,-5.7423,-5.8112,-5.88,-5.9398,-5.9638,-5.6346,-5.3803,-5.1947,-5.1276,-5.1366,-5.1952,-5.206,-5.251,-5.2942,0.0,0.0,0.0,0.0,0.0,0.0,0.0,0.0,-3.0672,-3.115,-3.1928,-3.2946,-3.4354,-3.4651,-3.516,-3.6058,-3.5759,-3.54,-3.516,-3.513,-3.513,-3.513,-3.537,-3.531,-3.4861,-3.3963,-3.3814,-3.4503,-3.4681,-3.537,-3.6507,-3.6896,-3.7554,-3.8392,-3.8601,-3.8841,-3.899,-3.7883,-3.7793,-3.8272,-3.6985,-3.6357,0.0,0.0,0.0,0.0,0.0,0.0,0.0,0.0,0.0,0.0,0.0,0.0,0.0,0.0,0.0,0.0,0.0,0.0,0.0,0.0,0.0,0.0,0.0,0.0,0.0,0.0,0.0,0.0,0.0,0.0,0.0,0.0,0.0,0.0,0.0,0.0,0.0,-4.306,-4.4167,0.0,-4.3299,-4.324,-4.3269,-4.3269,-4.4526,-4.5484,-4.5873,-4.7369,-4.8716,-4.9793,-5.0451,-5.1349,-5.2486,-5.3144,-5.3623,-5.3862,-5.5359,-5.6316,-5.6795,-5.7902,-5.853,-5.88,-5.9458,-5.9638,-5.9398,-5.865,-5.7154,-5.5209,-5.3713,-5.3025,-5.2935,-5.3803,-5.4281,-5.4551,0.0,0.0,0.0,0.0,0.0,0.0,0.0,0.0,-3.0193,-3.0193,-3.1719,-3.3095,-3.3754,-3.4622,-3.5429,-3.6088,-3.5549,-3.525,-3.5489,-3.507,-3.504,-3.5489,-3.5519,-3.507,-3.4173,-3.4173,-3.4262,-3.4503,-3.516,-3.5938,-3.6806,-3.7225,-3.7883,-3.8751,-3.92,-3.9559,-3.9679,-3.8781,-3.8542,-3.8631,-3.7315,-3.7195,-3.7584,0.0,0.0,0.0,0.0,0.0,0.0,0.0,0.0,0.0,0.0,0.0,0.0,0.0,0.0,0.0,0.0,0.0,0.0,0.0,0.0,0.0,0.0,0.0,0.0,0.0,0.0,0.0,0.0,0.0,0.0,0.0,0.0,0.0,0.0,0.0,-4.4496,-4.5813,-4.677,-4.704,-4.6381,-4.5903,-4.5753,-4.5963,-4.701,-4.8027,-4.8895,-5.0002,-5.1079,-5.2187,-5.2636,-5.3204,-5.3862,-5.4521,-5.488,-5.488,-5.6376,-5.7214,-5.7483,-5.8381,-5.889,-5.9129,-5.9578,-5.9638,-5.9458,-5.9668,-5.9099,-5.7962,-5.6436,-5.5568,-5.5329,-5.6436,-5.7004,-5.7274,0.0,0.0,0.0,0.0,0.0,0.0,0.0,-2.9172,-2.9592,-2.9562,-3.0702,-3.178,-3.2437,-3.3694,-3.4801,-3.5519,-3.4891,-3.4771,-3.5489,-3.4233,-3.4053,-3.54,-3.5429,-3.4831,-3.3544,-3.4771,-3.513,-3.4533,-3.519,-3.6148,-3.7404,-3.7404,-3.8123,-3.9373,-3.9373,-3.9768,-4.0367,-4.0397,-4.0068,-3.9379,-3.8003,-3.8631,-3.9978,0.0,0.0,0.0,0.0,0.0,0.0,0.0,0.0,0.0,0.0,0.0,0.0,0.0,0.0,0.0,0.0,0.0,0.0,0.0,0.0,0.0,0.0,0.0,0.0,0.0,0.0,0.0,0.0,0.0,0.0,0.0,0.0,0.0,-4.1324,-4.3718,-4.5873,-4.7249,-4.7459,-4.7728,-4.8356,-4.8416,-4.8686,-4.9359,-5.1139,-5.2217,-5.2217,-5.2845,-5.3533,-5.4221,-5.4251,-5.4551,-5.5209,-5.5837,-5.6188,-5.6248,-5.6795,-5.7453,-5.8112,-5.8141,-5.8501,-5.9099,-5.9129,-5.9488,-5.9997,-5.9398,-5.9488,-5.9997,-5.9338,-5.9099,-5.9189,-5.9817,-6.0475,-6.0954,0.0,0.0,0.0,0.0,0.0,0.0,0.0,-2.8873,-2.9262,-2.8274,-3.0522,-3.2288,-3.2497,-3.4143,-3.5669,-3.6776,-3.4981,-3.4472,-3.6118,-3.4053,-3.3365,-3.4743,-3.3844,-3.3604,-3.4234,-3.4113,-3.4442,-3.522,-3.54,-3.6148,-3.7404,-3.7404,-3.8123,-3.9373,-3.9373,-3.9529,-3.9738,-4.0696,-4.0995,-4.0726,-3.9409,-3.8901,-3.8751,0.0,0.0,0.0,0.0,0.0,0.0,0.0,0.0,0.0,0.0,0.0,0.0,0.0,0.0,0.0,0.0,0.0,0.0,0.0,0.0,0.0,0.0,0.0,0.0,0.0,0.0,0.0,0.0,0.0,0.0,0.0,0.0,-4.3269,-4.4107,-4.5693,-4.7429,-4.9179,-5.069,-5.1439,-5.1169,-5.1558,-5.1708,-5.1409,-5.2336,-5.2905,-5.2905,-5.3563,-5.4221,-5.491,-5.491,-5.5239,-5.5948,-5.5598,-5.5718,-5.6248,-5.6795,-5.7453,-5.8141,-5.862,-5.8949,-5.9129,-5.9608,-5.9638,-5.9398,-5.9697,-5.9638,-5.9368,-5.9189,-5.9099,-5.9129,-5.9308,-5.9488,-5.9697,0.0,0.0,0.0,0.0,0.0,0.0,0.0,-2.8753,-2.8843,-2.6632,-2.9953,-3.1988,-3.0582,-3.2736,-3.4442,-3.4889,-3.3814,-3.3455,-3.4352,-3.3484,-3.3155,-3.3634,-3.3455,-3.3694,-3.4503,-3.4382,-3.4861,-3.5908,-3.5639,-3.6297,-3.7823,-3.7524,-3.8123,-3.9403,-3.9709,-3.9679,-3.9529,-4.1115,-4.1662,-4.1354,-4.1145,-4.0995,-4.0636,-3.8512,-3.8571,-3.9559,-3.8093,-3.8452,-3.9439,-3.8153,0.0,0.0,0.0,0.0,0.0,0.0,0.0,0.0,0.0,0.0,0.0,0.0,0.0,0.0,0.0,0.0,0.0,0.0,0.0,0.0,0.0,0.0,0.0,0.0,-4.3539,-4.5334,-4.71,-4.8027,-4.9254,-5.1229,-5.2486,-5.3264,-5.3443,-5.3803,-5.3982,-5.3862,-5.4461,-5.47,-5.4461,-5.482,-5.5209,-5.5598,-5.5329,-5.5508,-5.6218,-5.6047,-5.6166,-5.6555,-5.7483,-5.8141,-5.856,-5.8919,-5.9249,0.0,-5.9907,-6.0027,-5.9967,-6.0057,-5.9847,0.0,0.0,0.0,0.0,0.0,-5.9997,-5.9578,0.0,0.0,0.0,0.0,0.0,0.0,0.0,-2.8753,-2.8397,-2.5143,-2.9059,-3.0971,-2.7824,-3.0223,-3.1899,-3.154,-3.1899,-3.1959,-3.154,-3.2706,-3.3155,-3.2647,-3.3814,-3.4503,-3.4503,-3.522,-3.5908,-3.6477,-3.5968,-3.6626,-3.8392,-3.7793,-3.8212,-3.9439,-4.0098,-4.0068,-3.9649,-4.1602,-4.2081,-4.1594,-4.291,-4.3708,-4.3868,-4.0876,-4.1564,-4.3778,-4.1384,-4.0995,-4.1414,-4.0157,0.0,0.0,0.0,0.0,0.0,0.0,0.0,0.0,0.0,0.0,0.0,0.0,0.0,0.0,0.0,0.0,0.0,0.0,0.0,0.0,0.0,0.0,0.0,0.0,-4.5334,-4.695,-5.0076,-5.0584,-5.1349,-5.3174,-5.3414,-5.3922,-5.5269,-5.5329,-5.5568,-5.6226,-5.6795,-5.6855,-5.6316,0.0,0.0,0.0,0.0,-5.5628,-5.6308,-5.6765,-5.7064,-5.7214,-5.8501,-5.9099,-5.9099,-5.9249,-5.9608,-6.0086,-6.0236,-6.0625,-6.1074,-6.0446,-6.0116,-5.9907,-5.9338,-5.9847,-6.0954,-6.1642,-6.1074,0.0,0.0,0.0,0.0,0.0,0.0,0.0,0.0,-2.8753,-2.8577,-2.577,-2.8188,-2.9295,-2.7046,-2.8338,-2.9953,-3.1361,-3.0672,-3.0552,-3.1451,-3.2228,-3.2886,-3.3275,-3.4053,-3.4503,-3.4503,-3.5669,-3.6357,-3.6477,-3.6866,-3.7494,-3.8392,-3.8272,-3.8631,-3.9439,-4.0098,-4.0337,-4.0307,-4.1782,-4.2321,-4.2321,-4.3599,-4.3858,-4.3349,-4.2222,-4.2231,-4.265,-4.1602,-4.1953,-4.2851,-4.2043,-4.2043,-4.2124,-4.0995,-3.9589,0.0,0.0,0.0,0.0,0.0,0.0,0.0,0.0,0.0,0.0,0.0,0.0,0.0,0.0,0.0,0.0,0.0,0.0,0.0,-4.6411,-4.8133,-5.0062,-5.2306,-5.3084,-5.3773,-5.47,-5.479,-5.5299,-5.6615,-5.6286,-5.6226,-5.6855,-5.7034,-5.7034,-5.6915,-5.6915,0.0,-5.6915,-5.6316,-5.6286,-5.6915,-5.6526,-5.6885,-5.7932,0.0,0.0,-5.9129,-6.0236,-6.0505,-6.0146,-6.1224,-6.1493,-6.1104,-6.0954,-6.0266,-5.9279,-5.9159,-5.9249,-5.9578,-6.0236,-5.9967,-5.9368,0.0,0.0,0.0,0.0,0.0,0.0,0.0,-2.8453,-2.8368,-2.6363,-2.8397,-2.9415,-2.7769,-2.8757,-2.9834,-3.0492,-2.9654,-2.9774,-3.1391,-3.1809,-3.2437,-3.3455,-3.4442,-3.516,-3.5492,-3.6447,-3.7105,-3.7434,-3.7434,-3.7913,-3.8901,-3.8542,-3.8751,-3.9433,-4.0457,-4.0696,-4.0516,-4.2162,-4.2671,-4.253,-4.4137,-4.4407,-4.3738,-4.3479,-4.3748,-4.4227,-4.321,-4.3479,-4.4167,-4.318,-4.2851,-4.2671,-4.1722,-4.0457,-3.9469,0.0,0.0,0.0,0.0,0.0,0.0,0.0,0.0,0.0,0.0,0.0,0.0,0.0,0.0,-4.4436,0.0,0.0,-4.7339,-4.8985,-5.0361,-5.1798,-5.3473,-5.3982,-5.4461,-5.5119,-5.5478,-5.5927,-5.6585,-5.6944,-5.7557,-5.8552,-5.8294,-5.8249,-5.8583,-5.794,-5.7603,-5.7603,-5.6974,-5.6944,-5.7603,-5.7304,-5.7483,-5.8141,-5.88,-5.9279,-5.9608,-5.9967,-6.0475,-6.1104,-6.1104,-6.1283,-6.1553,-6.0864,-6.0206,-5.9548,-5.9219,-5.9099,-5.9189,-5.9847,-5.9668,-5.9159,0.0,0.0,0.0,0.0,0.0,0.0,0.0,-2.8184,-2.815,-2.6947,-2.8625,-2.9499,-2.8308,-2.9015,-2.9445,-2.9232,-2.8816,-2.9445,-3.1361,-3.1511,-3.2138,-3.3634,-3.4981,-3.5938,-3.6477,-3.7225,-3.7853,-3.8392,-3.8003,-3.8362,-3.9373,-3.8841,-3.8871,-3.9433,-4.0786,-4.1085,-4.0696,-4.2512,-4.303,-4.274,-4.4407,-4.4796,-4.4317,-4.4317,-4.5065,-4.5963,-4.4885,-4.4586,-4.4616,-4.3958,-4.303,-4.2201,-4.1983,-4.1324,-4.0576,-4.0576,-4.0397,0.0,0.0,0.0,0.0,0.0,0.0,0.0,0.0,0.0,-4.4736,-4.4257,-4.5603,-4.71,-4.7758,-4.8955,-5.0272,-5.1588,-5.2366,-5.3174,-5.4251,-5.4401,-5.461,-5.5119,-5.5777,-5.6286,-5.6526,-5.7513,-5.8618,-5.9788,-5.938,-5.9365,-5.9901,-5.8896,-5.8261,-5.8112,-5.7573,-5.7573,-5.8058,-5.8112,-5.8201,-5.8321,-5.8979,-5.9518,-5.9877,-5.9757,-6.0416,-6.1672,-6.0835,-6.1014,-6.1822,-6.0745,-6.0116,-5.9847,-5.9308,-5.9099,-5.9159,-5.9697,-5.9548,-5.9099,0.0,0.0,0.0,0.0,0.0,0.0,0.0,0.0,-2.8328,-2.7504,-2.7716,-2.7629,-2.6817,-2.6387,-2.6602,-2.7735,-2.8278,-2.9445,-3.1361,-3.1511,-3.2348,-3.4324,-3.5669,-3.6417,-3.6477,-3.7674,-3.8302,-3.8392,-3.8931,-3.9224,-3.9373,-3.9313,-3.9313,-3.9433,-4.0786,-4.1354,-4.1354,-4.2761,-4.326,-4.326,-4.4107,-4.4377,-4.4317,-4.4317,-4.4766,-4.5394,-4.5244,-4.4107,-4.298,-4.4526,-4.3479,-4.1773,-4.3449,-4.2731,-4.1265,-4.1265,-4.0457,-3.9529,-3.9403,-3.9433,-3.9798,-4.0965,-4.1871,-4.283,0.0,0.0,-4.695,-4.689,-4.7967,-4.9134,-4.9747,-5.099,-5.2306,-5.3653,-5.4431,-5.491,-5.5059,-5.5089,-5.5119,-5.5179,-5.5777,-5.6615,-5.7782,-5.8052,-5.8404,-5.9135,-5.9147,-5.9123,-5.9195,-5.9087,-5.874,-5.8141,-5.8052,-5.8052,-5.8112,-5.8112,-5.8411,-5.9009,-5.9668,-5.9697,-5.9279,-6.0984,-6.1224,-6.0356,-6.1403,-6.1613,-6.1224,-6.1074,-6.0296,-5.9189,-5.9129,-5.9099,-5.9129,-5.9189,-5.9159,-5.9099,0.0,0.0,0.0,0.0,0.0,0.0,0.0,0.0,0.0,-2.9186,-2.9194,-2.9128,-2.8876,-2.8293,-2.7979,-2.8184,-2.8094,-2.8996,-3.1361,-3.1122,-3.2168,-3.4951,-3.6327,-3.7015,-3.7015,-3.8302,-3.899,-3.899,-3.9254,-3.9373,-3.9373,-3.9373,-3.9619,-4.0038,-4.0965,-4.1632,-4.2051,-4.294,-4.3529,-4.3958,-4.4616,-4.4646,-4.4317,-4.4317,-4.3778,-4.306,-4.3489,-4.3099,0.0,-4.288,-4.259,-4.2141,-4.295,-4.2073,-4.0876,-4.1265,-4.0457,-3.9373,-3.9373,-3.9978,-4.0786,-4.1752,-4.3069,-4.4496,-4.6112,-4.7489,-4.8446,-4.8446,-4.9793,-5.1289,-5.2366,-5.3294,-5.4371,0.0,-5.6107,-5.6166,-5.5807,-5.5448,-5.491,-5.4102,-5.461,-5.5688,-5.7363,-5.7872,-5.867,-6.0089,-5.9523,-5.9446,-6.015,-5.9469,-5.8979,-5.871,-5.871,-5.871,-5.871,-5.871,-5.883,-5.9099,-5.9368,-5.9578,-5.9697,-6.0146,-6.0266,-6.0146,-6.1523,-6.1732,-6.1074,-6.0685,-6.0416,-6.0206,-5.9398,-5.9338,-5.9638,-5.9249,-5.9099,-5.9099,0.0,0.0,0.0,0.0,0.0,0.0,0.0,0.0,0.0,0.0,-3.0243,-3.0085,-2.9962,-2.9416,-2.8843,-2.8368,-2.7884,-2.8535,-3.0747,-3.0666,-3.1807,-3.4752,-3.6154,-3.7045,-3.7404,-3.8362,-3.9014,-3.9373,-3.923,-3.923,-3.9373,-3.9373,-3.9768,-4.0427,-4.1085,-4.1782,-4.244,-4.306,-4.3559,-4.4077,-4.4556,-4.4377,-4.3748,-4.3569,-4.2402,-4.0935,-4.1632,-4.1512,-4.1003,-4.0876,-4.0905,-4.1123,-4.1692,-4.1175,-4.0487,-4.0965,-4.0427,-3.9738,-3.9918,-4.0786,-4.1931,-4.295,-4.4526,-4.6262,-4.7758,-4.9284,-5.0407,-5.0407,-5.1618,-5.3114,-5.4251,-5.488,-5.5688,-5.7154,-5.7214,-5.6944,-5.6496,-5.5718,-5.47,-5.3354,-5.3473,-5.4281,-5.5867,-5.7124,-5.8475,-6.0095,-5.9539,-5.9469,-6.0432,-5.9576,-5.9099,-5.9099,-5.9099,-5.9099,-5.9099,-5.9099,-5.9099,-5.9099,-5.9099,-5.9338,-5.9787,-5.9518,-5.9847,-6.0685,-6.1493,-6.1553,-6.1074,-6.0386,-6.0266,-6.0475,-5.9488,-5.9398,-5.9787,-5.9488,-5.9249,-5.9099,0.0,0.0,0.0,0.0,0.0,0.0,0.0,0.0,0.0,0.0,0.0,0.0,0.0,-2.802,-2.7645,-2.7615,-2.7615,-2.8112,-2.9316,-3.0072,-3.1375,-3.3286,-3.4754,-3.6148,-3.7375,-3.7434,-3.8123,-3.9373,-3.8751,-3.8751,-3.9373,-3.9373,-3.9768,-4.0427,-4.1085,-4.1782,-4.244,-4.306,-4.329,-4.3319,-4.3349,-4.3,-4.2381,-4.1752,-4.0636,-3.9559,-4.0217,-3.92,-3.7764,-3.905,-3.8631,-3.7883,-3.9858,-4.0427,0.0,-4.0427,-4.0397,0.0,0.0,0.0,-4.283,-4.4736,-4.6232,-4.7758,-4.9657,-5.1648,-5.3054,-5.3054,-5.3653,-5.4371,-5.5029,-5.5179,-5.5837,-5.7782,-5.7513,-5.7094,-5.7064,-5.5987,-5.47,-5.3354,-5.2636,-5.2546,0.0,-5.5628,-5.7393,-5.8135,-5.874,-5.9099,-5.9153,-5.9099,-5.9099,-5.9099,-5.9099,-5.9099,-5.9099,-5.9099,-5.9099,-5.9099,-5.9099,-5.9129,-5.9159,-5.9787,-6.0775,-6.2002,-6.1403,-6.1134,-6.1074,-6.0386,-5.9727,-5.9159,-5.9129,-5.9129,-5.9219,-5.9817,-5.9668,-5.9099,0.0,0.0,0.0,0.0,0.0,0.0,0.0,0.0,0.0,0.0,0.0,0.0,0.0,0.0,0.0,0.0,-2.7558,-2.824,-2.9991,-3.031,-3.1094,-3.2656,-3.4922,-3.6196,-3.6197,-3.8027,-3.8958,-3.8855,-3.8641,-3.8371,-3.8093,-3.8542,-3.908,-3.9798,-4.0876,-4.1782,-4.244,-4.306,-4.3559,-4.3898,-4.303,-4.2821,-4.2821,-4.0846,-3.9529,-3.8661,0.0,-3.7375,-3.6806,-3.6806,-3.6806,-3.6926,-3.7584,-3.7793,0.0,-3.8811,0.0,0.0,0.0,0.0,-4.5364,-4.689,-4.8596,-5.0421,-5.2426,-5.3384,-5.3743,-5.3264,-5.3025,-5.2815,-5.2606,-5.2905,-5.3862,-5.5867,-5.6705,-5.7094,-5.7094,-5.6735,-5.5478,-5.2845,-5.2725,0.0,0.0,0.0,0.0,-5.7356,-5.878,-5.9514,-5.9123,-5.9099,-5.9099,-5.9099,-5.9099,-5.9099,-5.9099,-5.9099,-5.9099,-5.9099,-5.9099,-5.9099,-5.9129,-5.9787,-6.0595,-6.1433,-6.1224,-6.1104,-6.1074,-6.0386,-5.9967,-5.9727,-5.9279,-5.9638,-6.0356,-5.9668,-5.9578,-5.9757,0.0,0.0,0.0,0.0,0.0,0.0,0.0,0.0,0.0,0.0,0.0,0.0,0.0,0.0,0.0,0.0,0.0,-2.8151,-2.9616,-3.0179,-3.1033,-3.2315,-3.4859,-3.6235,-3.6366,-3.8166,-3.9088,-3.9029,-3.8529,-3.812,-3.7818,-3.8277,-3.8828,-3.9497,-4.0664,-4.1376,-4.1782,-4.2168,-4.2431,-4.2491,-4.1654,-4.1414,-4.1384,-3.9439,-3.8272,0.0,-3.6507,-3.6118,-3.6058,-3.5639,-3.5789,-3.6118,-3.6118,-3.6447,0.0,0.0,0.0,0.0,0.0,-4.5873,-4.8013,-4.9344,-5.099,-5.2636,-5.3922,-5.4221,-5.3892,-5.2725,-5.1947,-5.1229,-5.0331,-5.0122,-5.099,-5.3683,-5.4221,-5.488,-5.6526,-5.6137,-5.5089,-5.3473,-5.3204,-5.2935,0.0,0.0,0.0,-5.6719,-5.8726,-5.9655,-5.9123,-5.9099,-5.9099,-5.9099,-5.9099,-5.9099,-5.9099,-5.9099,-5.9099,-5.9099,-5.9099,-5.9099,-5.9129,-5.9787,-6.0475,-6.1104,-6.0864,-6.0894,-6.1044,-6.0116,-5.9727,-5.9697,-5.9279,-5.9638,-6.0326,-5.9697,-5.9578,-5.9727,0.0,0.0,0.0,0.0,0.0,0.0,0.0,0.0,0.0,0.0,0.0,0.0,0.0,0.0,0.0,0.0,0.0,0.0,-2.8337,-2.9784,-3.1107,-3.2204,-3.4471,-3.6277,-3.7569,-3.7783,-3.8488,-3.9775,-3.8432,-3.8054,-3.8573,-3.8605,-3.8925,-3.9593,-4.0355,-4.0637,-4.0591,-4.0622,-4.02,-3.9445,-3.9385,-3.8966,-3.8302,-3.7584,-3.6956,-3.6387,-3.5729,-3.5519,-3.5519,-3.5519,0.0,0.0,0.0,0.0,0.0,0.0,0.0,-4.4067,-4.6741,-4.8895,-5.0644,-5.1977,-5.3294,-5.4251,-5.4162,-5.4132,-5.3533,-5.1498,-5.0435,-4.9538,0.0,0.0,-4.7549,-5.1468,-5.0661,-5.1156,-5.5679,-5.47,-5.3982,0.0,0.0,0.0,0.0,0.0,0.0,-5.6269,0.0,-5.9655,-5.9123,-5.9129,-5.9159,-5.9159,-5.9159,-5.9189,-5.9219,-5.9189,-5.9159,-5.9159,-5.9129,-5.9129,-5.9189,-5.9757,-6.0416,-6.1014,-6.0326,-6.0416,-6.0954,-5.9638,-5.9099,-5.9099,-5.9099,-5.9129,-5.9219,-5.9817,-5.9668,-5.9159,0.0,0.0,0.0,0.0,0.0,0.0,0.0,0.0,0.0,0.0,0.0,0.0,0.0,0.0,0.0,0.0,0.0,0.0,-2.9083,-3.0406,-3.1338,-3.1605,-3.4213,-3.5859,-3.635,-3.7908,-3.8851,-3.9135,-3.8771,-3.8399,-3.8019,-3.8533,-3.8822,-3.9046,-4.0195,-4.0674,-4.0704,-4.1208,-4.0995,-4.0213,-3.9201,-3.8645,-3.8212,-3.6596,-3.6207,-3.6387,-3.5729,-3.5519,-3.5519,0.0,0.0,0.0,0.0,-3.8182,-4.0068,0.0,0.0,-4.677,-4.885,-5.093,-5.2636,-5.3473,-5.4311,-5.467,-5.3683,-5.3054,-5.2007,-4.9553,-4.7728,-4.6292,0.0,0.0,0.0,-5.0136,-5.1977,0.0,-5.7184,-5.8022,0.0,-5.7453,0.0,-5.7094,-5.5807,-5.7198,0.0,0.0,-5.9011,-5.9655,-5.9123,-5.9578,-5.9847,-5.9847,-5.9847,-6.0086,-6.0595,-6.0086,-5.9847,-5.9817,-5.9338,-5.9368,-5.9817,-5.9488,-5.9727,-6.0326,-5.9638,-5.9727,-6.0296,-5.9458,-5.9099,-5.9099,-5.9099,-5.9398,-5.9787,-5.9488,-5.9548,-5.9757,0.0,0.0,0.0,0.0,0.0,0.0,0.0,0.0,0.0,0.0,0.0,0.0,0.0,0.0,0.0,0.0,0.0,0.0,0.0,-3.1142,-3.2144,-3.2739,-3.4925,-3.6329,-3.6783,-3.825,-3.9135,-3.942,-3.9094,-3.8718,-3.8318,-3.8685,-3.8881,-3.8947,-3.9972,-4.0228,-3.9938,-4.0328,-3.9848,0.0,0.0,-3.7478,-3.7015,-3.5908,-3.5729,-3.5998,-3.5639,-3.5699,-3.6028,0.0,0.0,-3.7584,-3.911,-4.0546,-4.2192,-4.4766,0.0,-4.9075,-5.1332,-5.3204,-5.4581,-5.497,-5.491,-5.45,-5.3572,-5.2098,-5.0289,-4.8061,-4.6147,0.0,-4.324,-4.3329,0.0,0.0,0.0,0.0,-5.6286,-5.7723,-5.862,0.0,-5.9488,0.0,-5.8411,-5.9009,-5.9417,0.0,-5.9988,-6.0083,-5.9542,-6.0176,-6.0266,-5.9668,-6.0236,-6.0715,-6.1104,-6.0745,-6.0535,-6.0535,-6.0176,-6.0027,-6.0086,-5.9697,-5.9727,-6.0057,0.0,-5.9488,-6.0027,-5.9368,-5.9099,-5.9099,-5.9099,-5.9338,-5.9608,-5.9249,-5.9338,-5.9608,0.0,0.0,0.0,0.0,0.0,0.0,0.0,0.0,0.0,0.0,0.0,0.0,0.0,0.0,0.0,0.0,0.0,0.0,0.0,0.0,-3.3195,-3.445,-3.5881,-3.7043,-3.7889,-3.8531,-3.9242,-4.0113,-3.9469,-3.914,-3.914,-3.914,-3.914,-3.9174,-3.9808,-3.9714,-3.9043,-3.9043,-3.8213,-3.6904,-3.6904,-3.6446,-3.5782,0.0,-3.5651,-3.5651,-3.5552,-3.5878,-3.6596,-3.8153,-3.8721,-3.923,-4.1841,-4.3269,-4.4586,-4.7638,-4.9613,-5.1242,-5.3683,-5.5299,-5.6338,-5.6423,-5.5401,-5.4183,-5.3469,-5.1119,-4.8568,-4.6545,0.0,-4.3339,-4.1874,-4.1498,-4.2389,-4.538,0.0,-4.9704,-5.487,-5.635,-5.8023,-6.0864,-6.0805,-6.0685,-6.1194,-6.0715,-6.0595,-6.1194,-6.1142,-6.0844,-6.0231,-6.0864,-6.0715,-5.9548,-6.0715,-6.1343,-6.1253,-6.1253,-6.1253,-6.1253,-6.1164,-6.0805,-6.0206,-6.0116,-6.0027,-5.9907,0.0,0.0,-5.9907,-5.9338,-5.9099,-5.9099,-5.9099,-5.9099,-5.9099,-5.9099,-5.9099,-5.9099,0.0,0.0,0.0,0.0,0.0,0.0,0.0,0.0,0.0,0.0,-3.2239,-3.134,0.0,0.0,0.0,0.0,0.0,0.0,0.0,0.0,0.0,-3.445,-3.5351,-3.6445,-3.7889,-3.8024,-3.8734,-4.0113,0.0,-3.991,-3.991,-3.991,-3.991,-3.991,-4.0045,-4.0003,-3.9901,-3.9901,-3.9342,-3.8492,-3.8492,-3.8076,-3.7324,-3.6661,0.0,0.0,-3.5718,-3.5579,-3.6118,-3.905,-4.0427,-4.1235,-4.3329,-4.5574,-4.7758,-4.9359,-5.1618,-5.3743,-5.476,-5.5957,-5.7054,-5.7561,-5.6541,-5.4728,-5.2126,-4.9707,0.0,0.0,-4.2046,-4.134,-4.2303,-4.1917,-4.3033,-4.8068,-5.0143,-5.2718,-5.7011,-5.9544,-6.118,0.0,-6.2301,-6.2391,0.0,0.0,0.0,0.0,0.0,-6.1597,-6.0954,-6.1553,-6.1822,-6.1583,-6.2331,-6.248,-6.1942,-6.1942,-6.1942,-6.1912,-6.1373,-6.1044,-6.0924,-6.0356,-5.9787,-5.9279,0.0,0.0,-5.9249,-5.9159,-5.9099,-5.9099,-5.9099,-5.9099,-5.9099,-5.9099,-5.9099,-5.9099,0.0,0.0,0.0,0.0,0.0,0.0,0.0,-3.4551,-3.4844,-3.5611,-3.4404,-3.3491,-3.3444,-3.2265,-3.1495,0.0,0.0,0.0,0.0,0.0,0.0,0.0,0.0,0.0,0.0,0.0,0.0,0.0,0.0,0.0,0.0,0.0,0.0,0.0,0.0,-4.0113,-4.0113,-4.0113,-3.9636,-3.8908,-3.8908,-3.8469,0.0,0.0,0.0,0.0,0.0,-3.5938,-3.6776,-3.8721,-4.0487,-4.2381,-4.5035,-4.698,-4.8686,-5.0661,-5.2665,-5.4491,-5.5837,-5.7124,-5.8189,-5.8423,-5.6168,-5.3407,-5.1685,0.0,0.0,0.0,-4.0952,-4.0424,-4.0471,-4.137,0.0,-4.6528,-4.8573,-5.1387,-5.6138,-5.8003,0.0,-6.1819,-6.266,0.0,0.0,0.0,0.0,0.0,0.0,-6.2181,-6.1164,-6.1074,-6.1373,-6.2061,-6.2391,-6.257,-6.26,-6.26,-6.26,-6.26,-6.2301,-6.1792,-6.1104,-6.0775,-6.0057,-5.9099,-5.9099,0.0,-5.9099,-5.9099,-5.9099,-5.9099,-5.9099,-5.9099,-5.9099,-5.9099,-5.9099,-5.9099,0.0,0.0,0.0,0.0,0.0,0.0,0.0,-3.5836,-3.6197,-3.7168,-3.6569,-3.5926,-3.552,-3.3951,-3.282,0.0,0.0,0.0,0.0,0.0,0.0,0.0,0.0,0.0,0.0,0.0,0.0,0.0,0.0,0.0,0.0,0.0,0.0,0.0,0.0,0.0,0.0,-3.9927,-3.9584,0.0,0.0,0.0,0.0,0.0,0.0,0.0,0.0,0.0,-3.7135,-3.8063,-3.9768,-4.2081,-4.5095,-4.707,-4.8686,-5.075,-5.2815,-5.482,-5.6615,-5.8082,-5.9145,-5.9402,-5.6015,-5.2307,-5.155,-4.7255,0.0,-4.072,-4.0223,-3.9901,-3.8883,-4.0668,-4.2926,0.0,-4.6562,-4.9419,-5.4622,-5.6096,-5.7767,0.0,-6.2421,0.0,0.0,0.0,0.0,0.0,0.0,0.0,-6.1373,-6.0805,-6.0984,-6.2061,-6.2091,-6.2421,-6.3079,-6.3079,-6.3079,-6.3079,-6.2929,-6.2241,-6.1104,-6.0954,-6.0236,-5.9099,-5.9099,0.0,0.0,-5.9099,-5.9099,-5.9099,-5.9099,-5.9099,-5.9099,-5.9099,-5.9099,-5.9099,0.0,0.0,0.0,0.0,0.0,0.0,0.0,-3.6694,-3.7202,-3.8599,-3.8159,-3.7922,-3.8531,-3.6085,-3.4631,0.0,0.0,0.0,0.0,0.0,0.0,0.0,0.0,0.0,0.0,0.0,0.0,0.0,0.0,0.0,0.0,0.0,0.0,0.0,0.0,0.0,0.0,0.0,0.0,0.0,0.0,0.0,0.0,0.0,0.0,0.0,0.0,0.0,0.0,0.0,0.0,-3.911,-4.1265,-4.4855,-4.8327,-4.8566,0.0,0.0,-5.6735,-5.8082,-5.9448,-6.105,-5.7527,-5.3188,-5.1378,0.0,-4.2828,-3.9345,-3.9092,-3.951,-3.9554,-4.0285,-4.2178,-4.6163,-4.7153,-4.91,-5.3989,-5.6488,-5.8215,-5.9261,0.0,0.0,0.0,0.0,0.0,0.0,0.0,0.0,0.0,-6.1942,-6.1972,-6.2091,-6.2091,-6.2421,-6.3079,-6.3079,-6.3079,-6.3079,-6.248,-6.1822,-6.1104,-6.0475,-5.9787,-5.9099,0.0,0.0,0.0,-5.9099,-5.9099,-5.9099,-5.9099,-5.9099,-5.9099,-5.9099,-5.9099,-5.9099,0.0,0.0,0.0,0.0,0.0,0.0,-3.6614,-3.6795,-3.7337,-3.8802,-3.8734,-3.8836,-3.9605,-3.8235,-3.7008,-3.6361,0.0,0.0,0.0,0.0,0.0,0.0,0.0,0.0,0.0,0.0,0.0,0.0,0.0,0.0,0.0,0.0,0.0,0.0,0.0,0.0,0.0,0.0,0.0,0.0,0.0,0.0,0.0,0.0,0.0,0.0,0.0,0.0,0.0,0.0,0.0,0.0,-3.8378,-4.0529,0.0,0.0,-4.9523,-5.2755,-5.5269,-5.7483,-5.9441,-6.0723,-5.6326,-5.1492,-5.1012,0.0,-4.1128,-3.8857,-3.8931,-3.9307,-3.897,-3.9886,-4.1557,-4.4211,-4.4737,-4.6532,-5.1359,-5.2764,-5.4501,0.0,0.0,0.0,0.0,0.0,0.0,0.0,0.0,0.0,0.0,-6.1882,-6.2091,-6.2091,-6.248,-6.281,-6.3079,-6.3079,-6.3079,-6.3079,-6.281,-6.2121,-6.1104,-6.0835,-6.0116,-5.9099,0.0,0.0,0.0,-5.9099,-5.9099,-5.9099,-5.9099,-5.9099,-5.9099,-5.9099,-5.9099,-5.9099,0.0,0.0,0.0,0.0,0.0,-3.5024,-3.6276,-3.6679,-3.7337,-3.8802,-3.9005,-3.9276,-4.0011,-3.9639,-3.8924,-3.7869,-3.7849,0.0,0.0,0.0,0.0,0.0,0.0,0.0,0.0,0.0,0.0,-3.974,0.0,0.0,0.0,0.0,0.0,0.0,0.0,0.0,0.0,0.0,0.0,0.0,0.0,0.0,0.0,0.0,0.0,0.0,0.0,0.0,0.0,0.0,0.0,-3.6757,-3.6407,-3.7182,-3.908,-4.3329,-4.698,-5.0331,-5.3473,-5.6226,-5.8489,-5.9613,-5.49,-4.9896,0.0,0.0,-3.9948,-3.8422,-3.8811,-3.92,-3.8512,-3.9883,-4.1417,-4.2546,-4.3329,-4.5175,-4.9203,-5.0133,-5.1777,0.0,0.0,0.0,0.0,0.0,0.0,0.0,0.0,0.0,0.0,-6.1672,-6.1702,-6.1493,-6.1942,-6.2301,-6.251,-6.251,-6.26,-6.278,-6.2391,-6.1822,-6.1104,-6.0715,-5.9997,-5.9099,0.0,0.0,0.0,-5.9099,-5.9099,-5.9099,-5.9099,-5.9099,-5.9099,-5.9099,-5.9099,-5.9099,0.0,0.0,0.0,0.0,0.0,0.0,-3.5605,-3.6329,-3.7337,-3.8802,-3.9005,-3.9276,-4.0011,-4.0079,-4.0079,-4.0079,-3.8734,0.0,0.0,0.0,0.0,0.0,0.0,0.0,0.0,0.0,-3.8296,-3.8908,-3.8908,-3.8525,0.0,0.0,0.0,0.0,0.0,0.0,0.0,0.0,0.0,0.0,0.0,0.0,0.0,0.0,0.0,0.0,0.0,0.0,0.0,0.0,0.0,0.0,0.0,-3.5519,-3.6207,-3.9499,-4.4197,-4.8865,-5.1528,-5.4162,-5.6525,-5.7752,-5.365,-4.892,0.0,0.0,-3.9828,-3.7823,-3.8482,-3.92,-3.8512,-4.036,-4.1945,-4.1831,-4.3812,-4.6028,-4.797,-4.9878,0.0,0.0,0.0,0.0,0.0,0.0,0.0,0.0,0.0,0.0,0.0,-6.1463,-6.0805,-6.0116,-6.0116,-6.0446,-6.1134,-6.1134,-6.1463,-6.2091,-6.0745,-6.0475,-6.1074,-5.9727,-5.9129,0.0,0.0,0.0,0.0,-5.9099,-5.9099,-5.9099,-5.9099,-5.9099,-5.9099,-5.9099,-5.9099,-5.9099,0.0,0.0,0.0,0.0,0.0,0.0,0.0,-3.4751,-3.5317,-3.7253,-3.7056,-3.7427,-3.9183,-3.9368,-3.9337,-3.9282,-3.9362,0.0,0.0,0.0,0.0,0.0,0.0,0.0,0.0,0.0,-3.8746,-3.8908,-3.8908,-3.8525,-3.7793,-3.7793,0.0,0.0,0.0,0.0,0.0,0.0,0.0,0.0,0.0,0.0,0.0,0.0,0.0,0.0,0.0,0.0,0.0,0.0,0.0,0.0,0.0,0.0,0.0,-3.7285,-4.0853,0.0,-4.7581,-4.9853,-5.1693,-5.2427,-4.9206,-4.5766,-4.5235,-4.2316,-3.929,-3.7734,-3.8482,-3.92,-3.8512,-3.9395,-4.0554,-4.155,-4.3204,-4.47,0.0,0.0,0.0,0.0,0.0,0.0,0.0,0.0,0.0,0.0,0.0,0.0,0.0,-6.1224,-6.1014,-6.0805,-6.0775,-6.0894,-6.1104,-6.1104,-6.1224,-6.1433,-6.0984,-6.0655,-6.0386,-5.9967,0.0,0.0,0.0,0.0,0.0,-5.9099,-5.9099,-5.9099,-5.9099,-5.9099,-5.9099,-5.9099,-5.9099,-5.9099,0.0,0.0,0.0,0.0,0.0,0.0,0.0,-3.3726,-3.4187,-3.5819,-3.6067,-3.6637,-3.8015,-3.8646,-3.885,-3.852,-3.8941,0.0,0.0,0.0,0.0,0.0,0.0,0.0,-3.9342,-3.9413,-3.9252,-3.8908,-3.9204,-3.8674,-3.7322,-3.7636,-3.7487,-3.6905,0.0,0.0,0.0,0.0,0.0,0.0,0.0,0.0,-3.6134,0.0,0.0,0.0,0.0,0.0,0.0,0.0,0.0,0.0,0.0,0.0,0.0,0.0,-3.828,-4.0815,-4.3783,-4.5958,-4.7495,-4.7854,-4.5708,0.0,0.0,-4.0618,-3.8721,-3.7644,-3.8521,-3.9385,-3.8882,-3.9929,-4.0845,-4.0821,-4.3123,0.0,0.0,0.0,0.0,0.0,0.0,0.0,0.0,0.0,0.0,0.0,0.0,0.0,0.0,0.0,-6.0356,-6.0356,-6.0356,-6.0356,-6.0356,-6.0356,-6.0475,-6.0715,-6.0475,-6.0266,-6.0086,-5.9817,0.0,0.0,0.0,0.0,0.0,-5.9099,-5.9099,-5.9099,-5.9099,-5.9099,-5.9099,-5.9099,-5.9099,-5.9099,0.0,0.0,0.0,0.0,0.0,0.0,0.0,-3.3045,-3.3718,-3.452,-3.5747,-3.662,-3.6713,-3.7921,-3.8487,-3.7879,0.0,0.0,0.0,0.0,0.0,0.0,0.0,0.0,-3.9978,-4.0087,-3.9722,-3.8974,-3.9726,-3.8962,-3.6754,-3.7437,-3.6964,-3.5579,-3.5579,0.0,0.0,0.0,0.0,0.0,0.0,0.0,0.0,0.0,0.0,0.0,0.0,0.0,0.0,0.0,0.0,0.0,0.0,0.0,0.0,0.0,0.0,0.0,0.0,-4.2372,-4.3838,-4.3868,-4.297,-4.1632,-3.9768,-3.8901,0.0,-3.7554,-3.8598,-3.961,-3.9373,-4.1396,-4.2332,-3.993,-4.3524,0.0,0.0,0.0,0.0,0.0,0.0,0.0,0.0,0.0,0.0,0.0,0.0,0.0,0.0,0.0,-5.9129,-5.9039,-5.9069,-5.9099,-5.9099,-5.9069,-5.9368,-5.9997,-5.9398,-5.9428,-5.9997,-5.9368,0.0,0.0,0.0,0.0,0.0,-5.9099,-5.9099,-5.9099,-5.9099,-5.9099,-5.9099,-5.9099,-5.9099,-5.9099,0.0,0.0,0.0,0.0,0.0,0.0,0.0,0.0,0.0,0.0,-3.4111,-3.4699,-3.5842,-3.6713,-3.7383,0.0,0.0,0.0,0.0,0.0,0.0,0.0,0.0,0.0,-3.9183,-3.9799,-4.0016,-3.982,-4.0018,-3.9451,-3.8212,-3.8367,-3.7669,-3.6237,-3.6237,-3.5968,0.0,0.0,0.0,0.0,0.0,0.0,0.0,0.0,0.0,0.0,-3.5716,-3.5651,0.0,0.0,0.0,0.0,0.0,0.0,0.0,0.0,-3.5741,-3.5908,-3.6686,0.0,-3.914,-3.9649,-3.9559,-3.92,0.0,-3.8901,-3.8841,-3.7644,-3.8507,-3.9299,-3.8727,-4.0112,-4.1236,-4.0949,0.0,0.0,0.0,0.0,0.0,0.0,0.0,0.0,0.0,0.0,0.0,0.0,0.0,0.0,0.0,0.0,-5.9398,-5.8381,-5.883,-5.9099,-5.9099,-5.859,-5.868,-5.9338,-5.9189,-5.9189,-5.9338,-5.9189,0.0,0.0,0.0,0.0,-5.9099,-5.9099,-5.9099,-5.9099,-5.9099,-5.9099,-5.9099,-5.9099,-5.9099,-5.9099,0.0,0.0,0.0,0.0,0.0,0.0,0.0,0.0,0.0,0.0,0.0,-3.4211,-3.4641,-3.5864,0.0,0.0,0.0,0.0,0.0,0.0,0.0,0.0,0.0,-3.9069,-3.942,-3.9876,-4.0104,-4.0107,-4.0775,-4.0494,-3.9361,-3.9629,-3.8807,-3.7012,-3.6345,-3.5848,0.0,0.0,0.0,0.0,-3.5519,0.0,0.0,0.0,0.0,0.0,-3.5519,-3.5519,0.0,-3.5519,-3.5519,-3.5519,0.0,0.0,0.0,0.0,-3.5519,-3.5519,-3.5519,-3.6237,-3.7075,-3.7434,-3.7973,-3.8302,-3.8003,-3.8452,-3.8751,-3.8003,-3.8771,-3.9395,-3.8942,-4.017,-4.1202,0.0,-4.2848,0.0,0.0,0.0,0.0,0.0,0.0,0.0,0.0,0.0,0.0,0.0,0.0,0.0,0.0,0.0,-5.9308,-5.859,-5.8321,-5.8321,-5.865,-5.859,-5.874,-5.9099,-5.9099,-5.9099,-5.9099,-5.9099,0.0,0.0,0.0,0.0,-5.9099,-5.9099,-5.9099,-5.9099,-5.9099,-5.9099,-5.9099,-5.9099,-5.9099,-5.9099,0.0,0.0,0.0,0.0,0.0,0.0,0.0,0.0,0.0,0.0,0.0,0.0,0.0,0.0,0.0,0.0,0.0,0.0,0.0,0.0,0.0,0.0,-3.9454,-3.9394,-4.0087,-4.0113,-4.018,-4.0282,-4.1745,-4.1802,-4.0583,-4.1221,-4.0197,-3.7809,-3.6332,-3.5609,0.0,0.0,0.0,0.0,-3.5519,0.0,0.0,0.0,0.0,0.0,0.0,0.0,0.0,-3.5519,-3.5519,-3.5519,-3.5519,0.0,0.0,0.0,0.0,0.0,-3.5759,-3.6357,-3.6896,-3.6686,-3.7661,-3.8417,-3.7858,-3.8227,-3.8687,-3.8577,-3.9108,-3.96,-3.9433,-4.1013,0.0,0.0,0.0,0.0,0.0,0.0,0.0,0.0,0.0,0.0,0.0,0.0,0.0,0.0,0.0,0.0,0.0,0.0,0.0,-5.8949,-5.7752,-5.7363,-5.7962,-5.853,-5.886,-5.8949,-5.9069,-5.9099,-5.9099,-5.9099,-5.9099,0.0,0.0,0.0,-5.9099,-5.9099,-5.9099,-5.9099,-5.9099,-5.9099,-5.9099,-5.9099,-5.9099,-5.9099,0.0,0.0,0.0,0.0,0.0,0.0,0.0,0.0,0.0,0.0,0.0,0.0,0.0,0.0,0.0,0.0,0.0,0.0,0.0,0.0,0.0,-4.0003,-3.9978,-3.9978,-4.0113,-4.0113,-4.0417,-4.1035,-4.2523,-4.3082,-4.2828,-4.3561,-4.1977,-3.8459,-3.6998,-3.6028,-3.5519,-3.5519,-3.5519,-3.5519,-3.5519,0.0,0.0,0.0,0.0,0.0,0.0,0.0,0.0,-3.5519,-3.5519,-3.5519,-3.5519,0.0,0.0,0.0,0.0,0.0,-3.6836,-3.8033,-3.8691,-3.7554,-3.8409,-3.9419,-3.9168,-3.9747,-4.0155,-3.9373,-3.9367,-3.9433,-3.9409,-4.1859,-4.3487,0.0,0.0,0.0,0.0,0.0,0.0,0.0,0.0,0.0,0.0,0.0,0.0,0.0,0.0,0.0,0.0,0.0,0.0,-5.8261,-5.7513,-5.7154,-5.7244,-5.7363,-5.7693,-5.8291,-5.883,-5.9099,-5.9099,-5.9099,-5.9099,0.0,0.0,-5.9099,-5.9099,-5.9099,-5.9099,-5.9099,-5.9099,-5.9099,-5.9099,-5.9099,-5.9099,-5.9099,0.0,0.0,0.0,0.0,0.0,0.0,0.0,0.0,0.0,0.0,0.0,0.0,0.0,0.0,0.0,0.0,0.0,0.0,0.0,0.0,-3.8274,-3.9394,-3.9876,-4.0113,-4.0113,-4.0493,-4.1068,-4.1779,-4.3301,-4.4249,-4.4578,-4.4089,-4.2252,-3.9282,-3.7804,-3.6743,-3.607,-3.5683,-3.5699,-3.6028,0.0,0.0,0.0,0.0,0.0,0.0,0.0,0.0,0.0,0.0,-3.5519,-3.5519,-3.5519,0.0,0.0,0.0,0.0,0.0,-3.6207,-3.7105,-3.7853,-3.7913,-3.9315,-4.0491,-4.0057,-3.9973,-4.0006,-3.9931,-3.9679,-3.9493,0.0,0.0,-4.3844,-4.5842,0.0,0.0,0.0,0.0,0.0,0.0,0.0,0.0,0.0,0.0,0.0,0.0,0.0,0.0,0.0,0.0,0.0,0.0,-5.6944,-5.6585,-5.6585,-5.6585,-5.7124,-5.8112,-5.8052,-5.8411,-5.9099,-5.874,-5.859,-5.859,0.0,-5.8351,-5.8022,-5.8022,-5.8231,-5.859,-5.859,-5.88,-5.9099,-5.9099,-5.9099,-5.9099,0.0,0.0,0.0,0.0,0.0,0.0,0.0,0.0,0.0,0.0,0.0,0.0,0.0,0.0,0.0,0.0,0.0,0.0,0.0,0.0,-3.8133,-3.8881,-3.983,-4.0383,-4.0383,-4.0899,-4.1644,-4.2557,-4.4079,-4.5229,-4.5911,-4.4367,-4.2425,-4.0142,-3.8591,-3.7437,-3.6538,-3.5814,-3.5789,-3.6267,0.0,0.0,0.0,0.0,0.0,0.0,0.0,0.0,0.0,0.0,0.0,0.0,0.0,0.0,0.0,-3.5519,-3.5519,-3.5579,-3.5878,-3.6417,-3.7165,-3.8153,-3.9709,-4.0992,-4.089,-4.0641,-4.0534,-4.0973,-4.0816,-4.0636,0.0,-4.2192,0.0,-4.9386,0.0,0.0,0.0,0.0,0.0,0.0,0.0,0.0,0.0,0.0,0.0,0.0,0.0,0.0,0.0,0.0,0.0,0.0,-5.6346,-5.6068,-5.6218,-5.6017,-5.6526,-5.7663,-5.7274,-5.7633,-5.862,-5.8112,-5.7872,-5.7872,-5.7872,-5.7573,-5.7094,-5.7094,-5.7513,-5.8112,-5.8112,-5.853,-5.9099,-5.9099,-5.9099,-5.9099,0.0,0.0,0.0,0.0,0.0,0.0,0.0,0.0,0.0,0.0,0.0,0.0,0.0,0.0,0.0,0.0,0.0,0.0,0.0,0.0,-3.8133,-3.8881,-4.0333,-4.1136,-4.1136,-4.117,-4.1914,-4.3308,-4.4891,-4.6007,-4.6684,-4.5069,-4.3188,-4.1029,-3.9376,-3.7871,-3.6538,-3.5814,-3.5519,-3.5579,-3.5579,0.0,0.0,0.0,0.0,0.0,0.0,0.0,0.0,0.0,0.0,0.0,0.0,0.0,-3.5519,-3.5519,-3.5519,-3.5759,-3.6956,-3.7764,-3.8272,-3.8362,-3.9112,-4.0259,-4.1881,-4.2788,-4.3284,-4.3127,-4.3529,-4.3599,0.0,-4.4317,0.0,0.0,0.0,0.0,0.0,0.0,0.0,0.0,0.0,0.0,0.0,0.0,0.0,0.0,0.0,0.0,0.0,0.0,0.0,0.0,0.0,-5.5568,-5.6166,-5.5568,-5.5628,-5.6316,-5.6855,-5.7154,-5.7244,-5.7184,-5.7154,-5.7154,-5.7154,-5.7124,-5.7094,-5.7094,-5.7513,-5.8112,-5.8112,-5.853,-5.9099,-5.9099,-5.9099,-5.9099,0.0,0.0,0.0,0.0,0.0,0.0,0.0,0.0,0.0,0.0,0.0,0.0,0.0,0.0,0.0,0.0,0.0,0.0,0.0,-3.7352,-3.8133,-3.8881,-3.993,-4.073,-4.1204,-4.2117,-4.3098,-4.4147,-4.5635,-4.6278,-4.6109,-4.548,-4.426,-4.2523,-4.1419,-4.0089,-3.8586,-3.7404,-3.6793,-3.6656,-3.6267,-3.6118,0.0,0.0,0.0,0.0,0.0,0.0,0.0,0.0,-3.5519,-3.5519,-3.5519,-3.5519,-3.5519,-3.5519,-3.5519,-3.5609,-3.6088,-3.6985,-3.7883,-3.8302,-3.8973,-4.002,-4.1948,-4.2982,-4.3672,-4.4428,-4.5095,-4.5424,0.0,0.0,0.0,0.0,0.0,0.0,0.0,0.0,0.0,0.0,0.0,0.0,0.0,0.0,0.0,0.0,0.0,0.0,0.0,0.0,0.0,0.0,0.0,-5.47,-5.494,-5.47,-5.47,-5.497,-5.5598,-5.6316,-5.7094,-5.6705,-5.6526,-5.6526,-5.6526,-5.6286,-5.5927,-5.6346,-5.6885,-5.7573,-5.8411,-5.889,-5.9099,-5.9099,-5.9099,-5.9099,0.0,0.0,0.0,0.0,0.0,0.0,0.0,0.0,0.0,0.0,0.0,0.0,0.0,0.0,0.0,0.0,0.0,0.0,-3.6228,-3.6995,-3.7761,-3.8525,-3.9548,-4.0456,-4.1204,-4.2422,-4.3572,-4.4615,-4.6104,-4.6413,-4.5703,-4.5703,-4.5026,-4.3747,-4.2737,-4.1701,-4.0522,-3.878,-3.7952,-3.7721,-3.685,-3.6477,0.0,0.0,0.0,0.0,0.0,0.0,0.0,0.0,-3.5519,-3.5519,-3.5519,-3.5519,-3.5519,-3.5519,-3.5519,-3.5519,-3.5519,-3.6148,-3.7015,-3.7853,-3.8751,-4.0098,-4.274,-4.3808,-4.4736,-4.6232,-4.6591,-4.6681,-4.689,0.0,0.0,0.0,0.0,0.0,0.0,0.0,0.0,0.0,0.0,0.0,0.0,0.0,0.0,0.0,0.0,0.0,0.0,0.0,0.0,0.0,0.0,-5.3892,-5.3892,-5.3892,-5.3982,-5.4221,-5.467,-5.5448,-5.6466,-5.6047,-5.5867,-5.5867,-5.5867,-5.5598,-5.5239,-5.5688,-5.6226,-5.6915,-5.8022,-5.8471,-5.8471,-5.8471,-5.8471,-5.8501,0.0,0.0,0.0,0.0,0.0,0.0,0.0,0.0,0.0,0.0,0.0,0.0,0.0,0.0,0.0,0.0,0.0,0.0,-3.5489,-3.6196,-3.6964,-3.7764,-3.9271,-4.0446,-4.1178,-4.1914,-4.3031,-4.4581,-4.6041,-4.638,-4.5703,-4.5703,-4.5297,-4.4553,-4.3003,-4.2319,-4.2137,-3.9755,-3.8709,-3.8582,-3.7116,-3.6477,-3.6417,0.0,0.0,0.0,0.0,0.0,0.0,0.0,-3.5519,-3.5519,-3.5519,-3.5519,-3.5519,-3.5519,-3.5489,-3.5519,-3.5519,-3.5519,-3.5818,-3.7105,-3.8452,-4.0487,-4.4407,-4.5843,-4.689,-4.894,-4.8237,-4.7549,-4.8177,-4.8297,0.0,0.0,0.0,0.0,0.0,0.0,0.0,0.0,0.0,0.0,0.0,0.0,0.0,0.0,0.0,0.0,0.0,0.0,0.0,0.0,0.0,0.0,-5.3174,-5.3174,-5.3503,-5.4192,-5.4192,-5.4551,-5.5179,-5.5179,-5.5179,-5.5179,-5.5179,-5.5179,-5.5179,-5.5209,-5.5598,-5.6308,-5.6855,-5.7094,-5.7094,-5.7094,-5.7094,-5.7184,0.0,0.0,0.0,0.0,0.0,0.0,0.0,0.0,0.0,0.0,0.0,0.0,0.0,0.0,0.0,0.0,0.0,0.0,-3.6259,-3.6477,-3.6964,-3.7764,-3.8753,-3.9346,-3.9594,-4.0841,-4.1982,-4.2963,-4.3944,-4.4316,-4.4085,-4.4654,-4.4818,-4.4587,-4.4658,-4.4052,-4.2864,-4.0566,-3.9535,-3.9232,-3.7298,-3.6746,-3.7075,0.0,0.0,0.0,0.0,0.0,0.0,0.0,0.0,0.0,-3.5519,-3.5519,-3.5519,-3.5519,-3.5878,-3.6165,-3.5651,-3.6574,-3.7872,-3.8622,-4.0157,-4.2402,-4.5903,-4.686,-4.7848,-5.072,-5.0272,-4.9388,-4.9568,0.0,0.0,0.0,0.0,0.0,0.0,0.0,0.0,0.0,0.0,0.0,0.0,0.0,0.0,0.0,0.0,0.0,0.0,0.0,0.0,0.0,0.0,0.0,-5.2486,-5.2486,-5.2606,-5.2815,-5.3264,-5.4072,-5.5179,-5.5179,-5.5179,-5.5179,-5.5179,-5.5179,-5.5239,-5.5688,-5.6256,-5.6825,-5.7034,-5.7094,-5.7094,-5.7094,-5.7094,-5.7124,0.0,0.0,0.0,0.0,0.0,0.0,0.0,0.0,0.0,0.0,-3.5519,-3.5519,0.0,0.0,0.0,0.0,0.0,0.0,0.0,-3.6165,-3.6508,-3.7293,-3.8048,-3.8745,-3.9368,-4.0591,-4.1271,-4.1433,-4.3064,-4.3707,-4.3409,-4.4823,-4.5466,-4.5495,-4.594,-4.5576,-4.4537,-4.2225,-4.0992,-4.0441,-3.8159,-3.7464,-3.7734,0.0,0.0,0.0,0.0,0.0,0.0,0.0,0.0,0.0,-3.5818,-3.5699,-3.5519,-3.5519,-3.5814,-3.61,-3.5949,-3.6993,-3.8473,-3.9817,-4.1683,-4.4018,-4.7339,-4.8686,-4.9972,0.0,-5.1528,-5.0285,-5.0524,0.0,0.0,0.0,0.0,0.0,0.0,0.0,0.0,0.0,0.0,0.0,0.0,0.0,0.0,0.0,0.0,0.0,0.0,0.0,0.0,0.0,0.0,0.0,-5.1798,-5.1798,-5.1947,-5.2187,-5.2606,-5.3354,-5.4401,-5.467,-5.479,-5.482,-5.5089,-5.5179,-5.5209,-5.5628,-5.6017,-5.6346,-5.6346,-5.6346,-5.6346,-5.6346,-5.6346,-5.6376,0.0,0.0,0.0,0.0,0.0,0.0,0.0,0.0,0.0,0.0,-3.5519,-3.5519,0.0,0.0,0.0,0.0,0.0,0.0,0.0,0.0,-3.5814,-3.6477,-3.7263,-3.8474,-4.0054,-4.0679,-4.0746,-4.0214,-4.3024,-4.4012,-4.3341,-4.5635,-4.6684,-4.6718,-4.6819,-4.6819,-4.6528,-4.4104,-4.2718,-4.1884,-3.952,-3.8601,-3.8571,-3.7853,0.0,0.0,0.0,0.0,0.0,0.0,0.0,0.0,-3.6327,-3.6088,-3.5579,-3.5519,-3.5554,-3.5737,-3.642,-3.7083,-3.8257,-4.0973,-4.3269,-4.5663,-4.8745,-5.078,-5.2396,-5.3683,0.0,-5.0524,0.0,0.0,0.0,0.0,0.0,0.0,0.0,0.0,0.0,0.0,0.0,0.0,0.0,0.0,0.0,0.0,0.0,0.0,0.0,0.0,0.0,0.0,0.0,0.0,-5.1229,-5.1229,-5.1528,0.0,-5.2127,-5.2426,-5.3025,-5.3832,-5.4251,-5.4341,-5.488,-5.5119,-5.5179,-5.5179,-5.5179,-5.5179,-5.5179,-5.5179,-5.5179,-5.5179,-5.5179,-5.5269,0.0,0.0,0.0,0.0,0.0,0.0,0.0,0.0,0.0,0.0,0.0,0.0,0.0,0.0,0.0,0.0,0.0,0.0,0.0,0.0,-3.5554,-3.5718,-3.6446,-3.7873,-4.0028,-3.964,-3.9914,-4.0967,-4.2185,-4.2692,-4.2591,-4.4857,-4.594,-4.6007,-4.7158,-4.7022,-4.5819,-4.3908,-4.2974,-4.2616,-4.0705,-4.0277,-4.0606,-3.9439,-3.899,0.0,0.0,0.0,0.0,0.0,0.0,0.0,-3.6596,-3.6387,-3.6178,-3.5639,-3.5911,-3.6473,-3.7034,-3.8122,-3.9864,-4.2917,-4.6352,-4.9239,-5.0511,-5.072,-5.0853,-5.1708,-5.1828,0.0,0.0,0.0,0.0,0.0,0.0,0.0,0.0,0.0,0.0,0.0,0.0,0.0,0.0,0.0,0.0,0.0,0.0,0.0,0.0,0.0,0.0,0.0,0.0,-5.0644,-5.1199,-5.1229,-5.1289,0.0,-5.1439,-5.1498,-5.1708,-5.3414,-5.4491,-5.497,-5.4581,-5.47,-5.5179,-5.5179,-5.5179,-5.5179,-5.5179,-5.5179,-5.5179,-5.5179,-5.5179,-5.5209,0.0,0.0,0.0,0.0,0.0,0.0,0.0,0.0,0.0,0.0,0.0,0.0,0.0,0.0,0.0,0.0,0.0,0.0,0.0,0.0,-3.5651,-3.6006,-3.6384,-3.7526,-3.9506,-3.9096,-3.9654,-4.1204,-4.1948,-4.2685,-4.3436,-4.5331,-4.6413,-4.6819,-4.7936,-4.78,-4.6663,-4.5367,-4.4529,-4.4075,-4.2736,-4.1955,-4.1553,-4.1157,-4.0353,-3.932,-3.8631,0.0,0.0,0.0,0.0,0.0,0.0,0.0,-3.6866,-3.6507,-3.6685,-3.7099,-3.7721,-3.9129,-4.131,-4.4858,-4.7549,-4.9494,-5.0122,-5.0032,-4.9883,-5.0212,0.0,0.0,0.0,0.0,0.0,0.0,0.0,0.0,0.0,0.0,0.0,0.0,0.0,0.0,0.0,0.0,0.0,0.0,0.0,0.0,0.0,0.0,0.0,0.0,-4.9763,-5.0092,-5.0704,-5.0704,-5.0853,-5.1229,-5.1229,-5.1379,-5.1738,-5.3084,-5.4072,-5.47,-5.4371,-5.4581,-5.5179,-5.485,-5.491,-5.5179,-5.5179,-5.5179,-5.5179,-5.5179,-5.5179,-5.5179,0.0,0.0,0.0,0.0,0.0,0.0,0.0,0.0,0.0,0.0,0.0,0.0,0.0,0.0,0.0,0.0,0.0,0.0,0.0,0.0,0.0,-3.6569,-3.6477,-3.7144,-3.869,-3.8718,-3.9532,-4.1189,-4.1929,-4.3403,-4.5596,-4.6515,-4.7394,-4.8108,-4.8849,-4.8714,-4.7875,-4.71,-4.6352,-4.5629,-4.4851,-4.3754,-4.2587,-4.3055,-4.1955,-4.0142,-4.0022,0.0,-3.8751,-3.8751,0.0,0.0,0.0,0.0,-3.7554,-3.7434,-3.7404,-3.7584,-3.8362,-4.0187,-4.2731,-4.6262,-4.7638,0.0,-4.9,-4.906,-4.897,-4.897,0.0,0.0,0.0,0.0,0.0,0.0,0.0,0.0,0.0,0.0,0.0,0.0,0.0,0.0,0.0,0.0,0.0,0.0,0.0,0.0,0.0,0.0,-4.903,-4.9149,-4.9149,-4.9464,-5.0196,-5.0196,-5.0465,-5.105,-5.105,-5.1379,-5.2067,-5.2725,-5.3384,-5.4012,-5.3922,-5.4311,-5.497,-5.4431,-5.461,-5.5179,-5.5059,-5.5089,-5.5179,-5.5059,-5.5089,-5.5179,0.0,0.0,0.0,0.0,0.0,0.0,0.0,0.0,0.0,0.0,-3.5519,-3.5519,0.0,0.0,0.0,0.0,0.0,0.0,0.0,0.0,0.0,-3.6569,-3.5975,-3.6383,-3.7905,-3.7966,-3.9012,-4.1182,-4.1923,-4.4722,-4.9323,-4.8274,-4.8173,-4.8883,-4.9627,-4.9187,-4.7875,-4.76,-4.7045,-4.6322,-4.6042,-4.5818,-4.5553,-4.5077,-4.4197,-4.3148,-4.253,-4.1407,-4.0127,-4.0127,-3.9709,0.0,0.0,0.0,0.0,-3.7584,-3.7404,-3.7674,-3.8931,-4.1564,-4.4317,-4.598,-4.695,-4.7608,0.0,0.0,-4.7578,0.0,0.0,0.0,0.0,0.0,0.0,0.0,0.0,0.0,0.0,0.0,0.0,0.0,0.0,0.0,0.0,0.0,0.0,0.0,0.0,0.0,0.0,-4.7878,-4.7818,-4.8386,-4.8416,-4.9015,-5.0196,-5.0196,-5.0226,-5.0315,-5.0315,-5.0674,-5.1379,-5.2037,-5.2695,-5.3294,-5.2725,-5.3174,-5.4341,-5.4251,-5.461,-5.5119,-5.4551,-5.47,-5.5119,-5.4551,-5.47,-5.5179,0.0,0.0,0.0,0.0,0.0,0.0,0.0,0.0,0.0,0.0,0.0,-3.5519,0.0,0.0,0.0,0.0,0.0,0.0,0.0,0.0,0.0,-3.5975,-3.5653,-3.6006,-3.7084,-3.7968,-3.9318,-4.1205,-4.2366,-4.5602,-5.071,-5.0473,-5.0777,-5.1522,-5.1386,-5.0507,-4.9123,-4.9046,-4.8585,-4.7887,-4.7801,-4.698,-4.5864,-4.6352,-4.5262,-4.3453,-4.3959,-4.3431,-4.2447,-4.1909,-4.1545,-4.1102,-3.989,0.0,0.0,0.0,-3.8542,-3.8811,-4.0157,-4.1564,-4.309,0.0,-4.5424,-4.5813,-4.6471,0.0,0.0,0.0,0.0,0.0,0.0,0.0,0.0,0.0,0.0,0.0,0.0,0.0,0.0,0.0,0.0,0.0,0.0,0.0,0.0,0.0,0.0,0.0,-4.7758,-4.7459,-4.7429,-4.7728,-4.7728,-4.8177,-4.9134,-4.9134,-4.9523,-5.0196,-5.0196,-5.0524,-5.1229,-5.1528,-5.2007,-5.2606,-5.2336,-5.2755,-5.3593,-5.3234,-5.3713,-5.4581,-5.3892,-5.4042,-5.4551,-5.3892,-5.4072,-5.464,0.0,0.0,0.0,0.0,0.0,0.0,0.0,0.0,0.0,0.0,0.0,0.0,0.0,0.0,0.0,0.0,0.0,0.0,0.0,0.0,0.0,-3.5759,-3.5759,-3.6082,-3.6782,-3.8333,-3.9812,-4.1147,-4.2657,-4.6148,-5.1488,-5.186,-5.3044,-5.4871,-5.389,-5.2401,-5.0642,-5.0642,-5.0338,-4.9796,-4.9221,-4.7936,-4.647,-4.7368,-4.6028,-4.388,-4.5301,-4.5101,0.0,0.0,0.0,0.0,0.0,0.0,0.0,0.0,0.0,-3.9619,-4.0606,0.0,-4.1534,-4.315,-4.3688,-4.4018,0.0,0.0,0.0,0.0,0.0,0.0,0.0,0.0,0.0,0.0,0.0,0.0,0.0,0.0,0.0,0.0,0.0,0.0,0.0,0.0,0.0,0.0,0.0,0.0,-4.7339,-4.7309,-4.7309,-4.7309,-4.7309,-4.7608,-4.8267,-4.8297,-4.8865,-5.0002,-4.9823,-5.0092,-5.072,-5.072,-5.1079,-5.1708,-5.1887,-5.2336,-5.2905,-5.2396,-5.2905,-5.3892,-5.3204,-5.3354,-5.3862,-5.3174,-5.3473,-5.4221,0.0,0.0,0.0,0.0,0.0,0.0,0.0,0.0,0.0,0.0,0.0,0.0,-3.5519,-3.5519,-3.5519,-3.5519,0.0,0.0,0.0,0.0,0.0,-3.6417,-3.6447,0.0,-3.7353,-3.8999,-4.0251,-4.1018,-4.2637,-4.6447,-5.2232,-5.1589,-5.3889,-5.866,-5.7205,-5.4938,-5.2198,-5.2198,-5.2164,-5.1961,-4.983,-4.892,-4.8754,-4.8115,-4.6817,-4.5468,-4.6947,0.0,0.0,0.0,0.0,0.0,0.0,0.0,0.0,0.0,0.0,0.0,-3.9499,-3.9978,0.0,-4.1354,-4.2051,-4.283,0.0,0.0,0.0,0.0,0.0,0.0,0.0,0.0,0.0,0.0,0.0,0.0,0.0,0.0,0.0,0.0,0.0,0.0,0.0,0.0,0.0,0.0,0.0,0.0,-4.7309,-4.7309,-4.7309,-4.7309,-4.7309,-4.7608,-4.8267,-4.8297,-4.8626,-4.9359,-4.8686,-4.8745,-4.9419,-4.9419,-4.9733,-5.0315,-5.099,-5.1648,-5.2247,-5.2217,-5.2606,-5.3174,-5.2516,-5.2665,-5.3144,-5.2486,-5.3084,-5.4221,0.0,0.0,0.0,0.0,0.0,0.0,0.0,0.0,0.0,0.0,0.0,0.0,0.0,-3.5519,-3.5519,-3.5519,-3.5519,0.0,0.0,0.0,0.0,-3.5848,-3.6267,-3.6596,-3.6806,-3.8731,-4.0198,-4.102,-4.2574,-4.5939,-5.0879,-5.1116,-5.2976,-5.6156,-5.6122,-5.5243,-5.3721,-5.2706,-5.2029,-5.1488,-5.0202,-4.9424,-4.8984,-4.8714,-4.7956,0.0,0.0,0.0,0.0,0.0,0.0,0.0,0.0,0.0,0.0,0.0,0.0,-3.9373,0.0,0.0,0.0,-4.0576,-4.0935,-4.1235,0.0,0.0,0.0,0.0,0.0,0.0,0.0,0.0,0.0,0.0,0.0,0.0,0.0,0.0,0.0,0.0,0.0,0.0,0.0,0.0,0.0,0.0,0.0,0.0,-4.7309,-4.7309,-4.7309,-4.7309,-4.7309,-4.7429,-4.7668,-4.7668,-4.7997,-4.867,-4.8386,-4.8626,-4.9299,-4.9299,-4.9449,-4.9643,-5.0301,-5.096,-5.1558,-5.1558,-5.1947,-5.2486,-5.1828,-5.1977,-5.2516,-5.2276,-5.2785,-5.3623,0.0,0.0,0.0,0.0,0.0,0.0,0.0,0.0,0.0,-3.5818,0.0,0.0,0.0,0.0,-3.5759,-3.5519,-3.5519,-3.5519,-3.5519,-3.5519,-3.5609,-3.5818,-3.6447,-3.6896,-3.7105,-3.9017,-4.0473,-4.1341,-4.2633,-4.5532,-4.9729,-5.0236,-5.1961,-5.46,-5.4871,-5.4837,-5.4532,-5.3788,-5.3044,-5.2232,-5.071,-4.9932,-4.9729,-4.9458,-4.8917,0.0,0.0,0.0,0.0,0.0,0.0,0.0,0.0,0.0,0.0,0.0,0.0,0.0,-3.9738,0.0,0.0,0.0,0.0,-4.0068,0.0,0.0,0.0,0.0,0.0,0.0,0.0,0.0,0.0,0.0,0.0,0.0,0.0,0.0,0.0,0.0,0.0,0.0,0.0,0.0,0.0,0.0,0.0,0.0,-4.7309,-4.7309,-4.7309,-4.7309,-4.7309,-4.7309,-4.7309,-4.7309,-4.7519,-4.7967,-4.7967,-4.8177,-4.864,-4.864,-4.876,-4.9,-4.9404,-5.0092,-5.0853,-5.1139,-5.1468,-5.1828,-5.1379,-5.1498,-5.1887,-5.2127,-5.2606,-5.3294,0.0,0.0,0.0,0.0,0.0,0.0,0.0,0.0,-3.5729,-3.639,0.0,0.0,0.0,0.0,0.0,-3.5579,-3.5519,-3.5519,-3.5519,-3.5519,-3.5789,-3.6447,0.0,0.0,-3.8392,-3.9872,-4.1129,-4.1981,-4.2863,-4.5202,-4.8951,-4.8951,-5.0913,-5.4431,-5.3754,-5.3856,-5.4566,-5.5344,-5.5243,-5.4329,-5.1352,-5.0608,-5.1151,-5.0405,0.0,0.0,-5.1522,-5.142,0.0,-5.1048,0.0,0.0,0.0,0.0,0.0,0.0,0.0,0.0,0.0,0.0,0.0,0.0,0.0,0.0,0.0,0.0,0.0,0.0,0.0,0.0,0.0,0.0,0.0,0.0,0.0,0.0,0.0,0.0,0.0,0.0,0.0,0.0,0.0,0.0,0.0,0.0,0.0,-4.7309,-4.7309,-4.7309,-4.7309,-4.7309,-4.7309,-4.7309,-4.7309,-4.7309,-4.7309,-4.7309,-4.7309,-4.7309,-4.7309,-4.7309,-4.7668,-4.8267,-4.8267,-4.9015,-5.0196,-5.0853,-5.1199,-5.1199,-5.1199,-5.1229,-5.1289,-5.1977,-5.2636,-5.3294,0.0,0.0,0.0,0.0,0.0,0.0,-3.5519,-3.5519,-3.5776,0.0,0.0,0.0,-3.7483,-3.7295,-3.6896,-3.6267,-3.6207,-3.5998,-3.5549,-3.5519,-3.5789,-3.6447,-3.7075,-3.7704,-3.8392,-3.9299,-4.0516,-4.1981,-4.2237,-4.4089,-4.7394,-4.7394,-4.8815,-5.1352,-5.2232,-5.2739,-5.2976,-5.3788,-5.4296,-5.4431,-5.2469,-5.2164,0.0,0.0,0.0,0.0,0.0,-5.2739,-5.3281,0.0,-5.2539,-5.1765,0.0,0.0,0.0,0.0,0.0,0.0,-4.1115,0.0,0.0,0.0,0.0,0.0,0.0,0.0,0.0,0.0,0.0,0.0,0.0,0.0,0.0,0.0,0.0,0.0,0.0,0.0,0.0,0.0,0.0,0.0,0.0,0.0,0.0,0.0,-4.692,-4.7309,-4.7309,-4.7309,-4.7309,-4.7309,-4.7309,-4.7309,-4.7309,-4.7309,-4.7309,-4.7309,-4.7309,-4.7309,-4.7309,-4.7309,-4.7399,-4.7608,-4.8087,-4.8506,-4.8925,-4.9986,-5.0465,-5.0495,-5.0973,-5.1229,-5.1349,-5.2486,-5.3025,-5.3354,0.0,0.0,0.0,0.0,0.0,-3.6207,-3.5968,-3.6357,-3.699,0.0,0.0,0.0,-3.8937,-3.9209,-3.8844,-3.7529,-3.7436,-3.6998,-3.6001,-3.6148,-3.6357,-3.6477,-3.7345,-3.8003,-3.8392,-3.908,-4.0239,-4.1981,-4.1981,-4.3675,-4.6786,-4.6786,-4.78,-4.9695,-5.1183,-5.186,-5.1928,-5.3044,-5.3754,-5.4093,-5.3484,0.0,0.0,-5.4093,-5.4262,0.0,0.0,0.0,-5.6292,-5.5243,-5.3987,0.0,0.0,0.0,0.0,0.0,0.0,0.0,0.0,0.0,0.0,0.0,0.0,0.0,-3.902,-3.9349,0.0,0.0,0.0,0.0,0.0,0.0,0.0,0.0,0.0,0.0,0.0,0.0,0.0,0.0,0.0,0.0,0.0,0.0,0.0,0.0,-4.6501,-4.701,-4.7309,-4.7309,-4.7309,-4.7309,-4.7309,-4.7309,-4.7309,-4.7309,-4.7309,-4.7309,-4.7309,-4.7309,-4.7309,-4.7309,-4.7309,-4.7339,-4.7698,-4.8027,-4.8356,-4.9404,-5.0002,-5.0255,-5.096,-5.1229,-5.1379,-5.2695,-5.3174,-5.3384,0.0,0.0,0.0,-3.5609,-3.6596,-3.7255,-3.6776,-3.7674,-3.8776,0.0,-4.0181,-4.0636,-4.1405,-4.2045,-4.1565,-3.9402,-3.9118,-3.8452,-3.695,-3.7305,-3.7297,-3.675,-3.7853,-3.8542,-3.8601,-3.92,-4.0362,-4.2109,-4.2045,-4.3675,-4.6786,-4.6786,-4.7597,-4.9052,-5.0473,-5.115,-5.1319,-5.2739,-5.3416,-5.3585,-5.4397,-5.5175,0.0,0.0,-5.7949,-5.8084,-5.8761,-5.9066,-5.8896,-5.734,-5.4783,0.0,0.0,0.0,0.0,0.0,-4.7081,0.0,0.0,0.0,0.0,0.0,0.0,0.0,-4.019,-4.0214,-4.0184,0.0,0.0,0.0,0.0,0.0,0.0,0.0,0.0,0.0,0.0,0.0,0.0,0.0,0.0,0.0,0.0,0.0,-4.4556,-4.5155,-4.5903,-4.6621,-4.7279,-4.7309,-4.7309,-4.7309,-4.7309,-4.7309,-4.7309,-4.7309,-4.7309,-4.7309,-4.7309,-4.7309,-4.7309,-4.7309,-4.7309,-4.7309,-4.7309,-4.7668,-4.8327,-4.903,-4.9643,-5.0255,-5.096,-5.1229,-5.1379,-5.2695,-5.3174,-5.3384,0.0,0.0,-3.5669,-3.6207,-3.6896,-3.7554,-3.7943,-3.8242,-3.9169,-4.1243,-4.3202,-4.4399,-4.4456,-4.4582,-4.4034,-4.246,-4.1757,-4.0799,-3.923,-3.8729,-3.8302,-3.8038,-3.8781,-3.9469,-4.0008,-4.0127,-4.1066,-4.2813,-4.2269,-4.3675,-4.6786,-4.6786,-4.7597,-4.9052,-4.9932,-5.0642,-5.1285,-5.2164,0.0,-5.3619,-5.4972,0.0,-5.6697,-5.7543,-5.8254,-5.8829,-5.8964,-5.9404,-5.9573,-5.7509,-5.5577,-5.3954,0.0,0.0,0.0,0.0,0.0,0.0,0.0,0.0,0.0,0.0,0.0,0.0,-4.3013,-4.2171,-4.1401,0.0,0.0,0.0,0.0,0.0,0.0,0.0,0.0,0.0,0.0,0.0,0.0,0.0,0.0,0.0,0.0,0.0,-4.4377,-4.4496,-4.5633,-4.6621,-4.7279,-4.7309,-4.7309,-4.7309,-4.7309,-4.7309,-4.7309,-4.7309,-4.7309,-4.7309,-4.7309,-4.7309,-4.7309,-4.7309,-4.7309,-4.7309,-4.7309,-4.7668,-4.8327,-4.903,-4.9643,-5.0255,-5.096,-5.1229,-5.1379,-5.2695,-5.3174,-5.3384,0.0,-3.5519,-3.5699,-3.6357,-3.7554,-3.8422,-3.8392,-3.923,-4.067,-4.2841,-4.5828,-4.7493,-4.668,-4.6912,-4.6388,-4.4495,-4.4007,-4.3137,-4.1592,-4.0997,-4.0554,-4.01,-4.0299,-4.0546,-4.0876,-4.1364,-4.224,-4.3548,-4.3654,-4.4966,-4.7361,-4.7361,-4.7733,-4.8545,-4.9999,-5.0642,-5.0744,-5.2266,-5.3145,-5.3687,-5.5919,0.0,-5.7543,-5.9404,-6.0351,-6.0689,-6.0689,-6.0452,-5.981,-5.7949,-5.6359,0.0,0.0,-5.2875,-5.2131,0.0,-5.029,-4.8658,0.0,0.0,0.0,-4.5173,0.0,0.0,0.0,-4.2772,-4.1888,0.0,0.0,0.0,0.0,0.0,0.0,0.0,0.0,0.0,0.0,0.0,0.0,0.0,0.0,0.0,0.0,0.0,-4.3958,-4.4287,-4.5532,-4.6429,-4.68,-4.713,-4.7309,-4.7309,-4.7309,-4.7309,-4.7309,-4.7309,-4.7309,-4.7309,-4.7309,-4.7309,-4.7309,-4.7309,-4.7309,-4.7309,-4.7309,-4.7668,-4.8327,-4.903,-4.9643,-5.0255,-5.096,-5.1229,-5.1379,-5.2695,-5.3174,-5.3384,-3.5519,-3.5519,-3.5699,-3.6357,-3.8003,-3.908,-3.8661,-4.0187,-4.2156,-4.4259,-4.7869,-4.9779,-4.857,-4.9131,-4.8971,-4.7399,-4.6308,-4.5464,-4.4754,-4.3725,-4.2733,-4.1872,-4.2027,-4.1903,-4.1437,-4.2468,-4.342,-4.4283,-4.4919,-4.6142,-4.7906,-4.7906,-4.8041,-4.8409,-5.0035,-5.0676,-5.0608,-5.2334,0.0,-5.3957,0.0,-5.7679,-5.7983,-6.0858,-6.1941,-6.1941,-6.1941,-6.1163,-5.9844,-5.822,0.0,-5.5411,-5.3991,-5.3518,0.0,0.0,0.0,0.0,0.0,0.0,0.0,0.0,0.0,-4.6858,0.0,0.0,0.0,0.0,0.0,0.0,0.0,0.0,0.0,0.0,0.0,0.0,0.0,0.0,0.0,0.0,0.0,0.0,0.0,0.0,-4.3559,-4.4257,-4.5424,-4.613,-4.6279,-4.695,-4.7309,-4.7309,-4.7309,-4.7309,-4.7309,-4.7309,-4.7309,-4.7309,-4.7309,-4.7309,-4.7309,-4.7309,-4.7309,-4.7309,-4.7309,-4.7758,-4.8506,-4.909,-4.9733,-5.0435,-5.102,-5.1229,-5.1379,-5.2695,-5.3174,-5.3384,-3.5519,-3.5519,-3.5699,-3.6357,-3.7614,-3.8691,-3.923,-4.0487,-4.244,-4.5328,-4.8702,-5.0714,-5.0512,-5.133,-5.2368,-5.3484,-4.9333,0.0,-5.0048,0.0,-4.3521,-4.2045,-4.3763,-4.3756,-4.1621,-4.2942,-4.4109,-4.5019,-4.4515,-4.5538,-4.7906,-4.7906,-4.8612,-4.983,-4.9424,-5.0304,-5.2029,0.0,-5.2638,0.0,-5.6258,-5.6934,0.0,-5.9471,-6.0351,-6.0351,-6.0351,-6.025,-5.9776,0.0,-5.6393,-5.5411,0.0,-5.3518,-5.3484,0.0,0.0,0.0,0.0,0.0,0.0,0.0,-4.9502,0.0,0.0,0.0,-4.5064,0.0,0.0,0.0,0.0,0.0,0.0,0.0,0.0,0.0,0.0,0.0,0.0,0.0,0.0,0.0,0.0,0.0,0.0,-4.4257,-4.5005,-4.5693,-4.6249,-4.695,-4.7309,-4.7309,-4.7309,-4.7309,-4.7309,-4.7309,-4.7309,-4.7309,-4.7309,-4.7309,-4.7309,-4.7309,-4.7309,-4.7309,-4.7309,-4.7997,-4.9209,-4.9269,-5.0002,-5.1063,-5.1199,-5.1229,-5.1379,-5.2695,-5.3174,-5.3384,-3.5519,-3.5519,-3.5699,-3.6357,-3.7554,0.0,-3.8781,-4.2289,-4.541,-4.6592,-5.0424,-5.3038,-5.3004,-5.2977,-5.3247,-5.3923,0.0,-5.0345,0.0,0.0,-4.7243,-4.655,-4.6315,-4.5546,-4.4099,-4.518,-4.5746,-4.5757,-4.6553,-4.7491,-4.8545,-4.8545,-4.8883,-4.9458,-4.9593,0.0,-5.1048,0.0,-5.2672,0.0,0.0,0.0,0.0,-5.9776,-6.0791,-6.0689,-5.9776,-5.9471,-5.9201,0.0,-5.6325,0.0,0.0,0.0,0.0,0.0,0.0,0.0,0.0,0.0,0.0,0.0,0.0,0.0,0.0,0.0,-4.5253,0.0,0.0,0.0,0.0,0.0,0.0,0.0,0.0,0.0,0.0,0.0,0.0,0.0,0.0,0.0,0.0,0.0,0.0,0.0,0.0,-4.5424,-4.5693,-4.6741,-4.7309,-4.7309,-4.7309,-4.7309,-4.7309,-4.7309,-4.7309,-4.7309,-4.7309,-4.7309,-4.7309,-4.7309,-4.7309,-4.7309,-4.7309,-4.7608,-4.8177,-4.9,-4.9629,-5.0152,-5.093,-5.1229,-5.1319,-5.2276,-5.2845,-5.3324,-3.5729,-3.5639,-3.5639,-3.6118,-3.7285,-3.8362,-3.911,-4.3194,-4.6478,-4.7166,-5.093,-5.3816,-5.4386,-5.4631,0.0,0.0,-5.416,-5.3112,0.0,0.0,-4.9825,0.0,0.0,0.0,0.0,-4.7007,-4.7401,-4.7174,-4.8067,-4.8783,-4.9289,-4.9289,-4.9424,-4.9627,-5.0168,-5.0642,-5.1082,0.0,-5.301,-5.416,-5.4702,-5.5919,-5.7611,-5.9607,-6.0622,-6.0757,-5.9268,-5.8829,-5.8795,-5.7306,-5.6461,0.0,-5.5141,0.0,0.0,0.0,0.0,0.0,-5.2348,0.0,0.0,0.0,0.0,0.0,0.0,0.0,0.0,0.0,0.0,0.0,0.0,0.0,0.0,0.0,0.0,0.0,0.0,0.0,0.0,0.0,0.0,0.0,0.0,0.0,0.0,0.0,-4.4287,-4.5095,-4.5274,-4.6411,-4.713,-4.7309,-4.7309,-4.7309,-4.7309,-4.7309,-4.7309,-4.7309,-4.7309,-4.7309,-4.7309,-4.7489,-4.7578,-4.7578,-4.7578,-4.7788,-4.8177,-4.8955,-4.9509,-4.9883,-5.084,-5.1319,-5.1558,-5.2217,-5.2785,-5.3294,-3.6327,-3.5938,-3.5519,-3.5519,-3.6596,-3.8302,-4.0905,-4.2255,-4.3935,-4.6578,0.0,0.0,0.0,0.0,0.0,0.0,0.0,-5.5886,-5.6596,0.0,-4.9869,0.0,0.0,-4.9622,0.0,0.0,-4.8727,-4.9681,-4.8052,-4.8217,-5.0067,-5.0067,-5.0439,-5.1117,-5.1151,-5.1995,-5.3348,-5.2604,-5.3585,-5.5614,-5.5683,-5.7002,-5.8863,0.0,-5.8896,-5.9945,-5.8457,0.0,0.0,-5.7306,-5.6799,0.0,0.0,0.0,0.0,0.0,0.0,0.0,0.0,0.0,0.0,-5.2065,0.0,0.0,0.0,0.0,-4.707,0.0,0.0,0.0,0.0,0.0,0.0,0.0,0.0,0.0,0.0,0.0,0.0,0.0,0.0,0.0,0.0,0.0,0.0,-4.247,-4.3599,-4.4616,-4.5274,-4.5963,-4.6651,-4.7279,-4.7309,-4.7309,-4.7309,-4.7309,-4.7309,-4.7309,-4.7309,-4.7309,-4.7339,-4.7967,-4.8267,-4.8267,-4.8267,-4.8985,-5.0046,-4.9523,-5.0002,-5.1169,-5.1199,-5.1618,-5.2247,-5.2905,-5.3174,-5.3384,-3.7085,-3.6663,-3.6297,-3.6686,-3.7135,-3.8516,-4.1796,-4.4446,-4.7413,0.0,-5.3964,0.0,0.0,-6.1374,-6.211,0.0,0.0,-5.9607,-5.8355,-5.6156,0.0,0.0,0.0,-5.0951,0.0,0.0,0.0,0.0,-4.9326,-4.936,-4.9859,-5.0048,-5.0387,-5.0957,-5.1093,-5.1758,0.0,0.0,0.0,0.0,0.0,-5.8186,-5.9641,0.0,0.0,-5.9235,-5.8254,-5.7746,0.0,-5.6968,-5.6156,-5.531,-5.504,-5.4465,-5.3856,-5.3856,-5.3687,0.0,0.0,0.0,-5.3213,-5.217,0.0,0.0,0.0,0.0,0.0,0.0,0.0,0.0,0.0,0.0,0.0,0.0,0.0,0.0,0.0,0.0,0.0,0.0,0.0,0.0,0.0,0.0,0.0,-4.1782,-4.294,-4.3738,0.0,-4.5442,-4.6369,-4.6651,-4.707,-4.7309,-4.7309,-4.7309,-4.7309,-4.7309,-4.7309,-4.7309,-4.7309,-4.7549,-4.7638,-4.7668,-4.8087,-4.8536,-4.8985,-4.9643,-5.0182,-5.0614,-5.1528,-5.2007,-5.2217,-5.2456,-5.3084,-5.4042,-3.7869,-3.7162,-3.6686,-3.7315,-3.8073,-3.9551,-4.2359,-4.6493,0.0,0.0,-5.7096,0.0,-6.4208,0.0,-6.4884,0.0,-6.4749,-6.2821,-5.9268,-5.8863,0.0,-5.4329,-5.3874,0.0,0.0,0.0,0.0,0.0,0.0,-5.0259,-5.0074,-5.0625,-5.0827,-5.0836,0.0,-5.23,-5.2739,-5.2739,-5.3585,0.0,0.0,-5.8457,0.0,0.0,-5.8795,-5.8896,0.0,-5.7036,-5.6427,-5.6427,-5.5784,-5.5006,-5.5006,-5.4499,-5.389,-5.389,-5.3721,-5.3551,-5.3822,-5.3415,0.0,-5.1962,-5.082,0.0,-4.8501,0.0,0.0,0.0,0.0,0.0,0.0,0.0,0.0,0.0,0.0,0.0,0.0,0.0,0.0,0.0,0.0,0.0,0.0,0.0,-4.1572,-4.1055,-4.2043,-4.2851,0.0,0.0,-4.5843,-4.6279,-4.695,-4.7309,-4.7309,-4.7309,-4.7309,-4.7309,-4.7309,-4.7429,-4.7668,-4.7668,-4.7908,-4.8356,-4.8566,-4.8895,-4.9374,-4.9956,-5.0315,-5.0614,-5.1528,-5.2127,-5.2576,-5.2815,-5.3623,-5.47,-3.8643,-3.7588,-3.6866,-3.7464,-3.9378,0.0,0.0,0.0,-5.2768,0.0,-5.8643,-6.2381,-6.4681,-6.6203,-6.7049,-6.7049,-6.7624,-6.5561,-5.9844,-6.1366,0.0,0.0,-5.5852,-5.5886,-5.3721,0.0,0.0,0.0,0.0,0.0,-5.0867,-5.1799,-5.1731,-5.0935,-5.2706,0.0,-5.3518,-5.3518,-5.4363,-5.5852,-5.7273,-5.7915,-5.7983,-5.7881,0.0,-5.8761,-5.7306,-5.6325,-5.5683,-5.5683,-5.5649,-5.558,-5.558,-5.5108,-5.4532,-5.4532,-5.4059,-5.3653,-5.4363,-5.3302,-5.1904,-5.1585,0.0,0.0,0.0,0.0,-4.7309,0.0,0.0,0.0,0.0,0.0,0.0,0.0,0.0,0.0,0.0,0.0,0.0,0.0,0.0,0.0,0.0,-4.1542,-4.1722,-4.0457,-4.0965,-4.1893,0.0,0.0,-4.4915,-4.6249,-4.695,-4.7309,-4.7309,-4.7309,-4.7309,-4.7309,-4.7339,-4.7668,-4.8297,-4.8327,-4.9015,-5.0106,-4.9583,-5.0032,-5.1109,-5.0495,-5.0614,-5.1229,-5.1289,-5.2127,-5.3354,-5.4012,-5.467,-5.5329,-3.8518,-3.9043,-3.9439,0.0,-4.0649,-4.2143,0.0,0.0,0.0,0.0,-6.2094,-6.5831,-6.9214,-6.9925,-7.0161,-7.0161,-6.9823,0.0,0.0,0.0,0.0,-6.0216,-5.9032,-5.7679,-5.5987,-5.5132,0.0,-5.3179,0.0,0.0,-5.1625,-5.1345,-5.1343,-5.1693,0.0,0.0,-5.3518,-5.3518,-5.4363,-5.5784,-5.6697,-5.8051,0.0,0.0,-5.7543,-5.8051,-5.7137,-5.5987,-5.4871,-5.4871,-5.4532,-5.4059,-5.4059,-5.3923,-5.3788,-5.3788,-5.3653,-5.3551,-5.3721,-5.3449,-5.2868,-5.2006,-5.0908,-4.9694,0.0,0.0,0.0,0.0,0.0,0.0,0.0,0.0,0.0,0.0,0.0,0.0,0.0,0.0,0.0,0.0,0.0,0.0,0.0,-4.0546,-4.0038,-3.9709,-4.0277,-4.1235,0.0,0.0,0.0,-4.6249,-4.695,-4.7309,-4.7309,-4.7309,-4.7309,-4.7309,-4.7788,-4.8117,-4.8297,-4.885,-4.9239,-4.9523,-4.9853,-5.0136,-5.0465,-5.0794,-5.1033,-5.1319,-5.2306,-5.3503,-5.47,-5.488,-5.5359,-5.6017,-3.911,-4.0016,0.0,-4.1205,0.0,0.0,-4.6913,-5.0826,0.0,-5.9532,-6.3666,0.0,-6.9113,-7.0534,-7.1176,-7.0838,-7.0432,0.0,-6.6609,0.0,0.0,-6.2482,-6.1163,-5.9471,-5.734,-5.5919,0.0,-5.2976,0.0,0.0,-5.1229,-5.1277,-5.1274,-5.1303,0.0,-5.3518,-5.3518,-5.3856,-5.4668,-5.5749,-5.6494,0.0,0.0,-5.7273,-5.6664,-5.6393,-5.5987,-5.5108,-5.4126,-5.4126,-5.3856,-5.3518,-5.3518,-5.3518,-5.3518,-5.3518,-5.3518,-5.3585,-5.389,-5.3069,-5.2056,-5.1806,-5.0388,-4.8882,-4.8293,-4.7722,-4.7309,0.0,0.0,0.0,0.0,0.0,0.0,0.0,0.0,0.0,0.0,0.0,0.0,0.0,0.0,0.0,0.0,-4.0876,-4.0157,-3.9858,-4.0187,0.0,0.0,0.0,0.0,-4.5843,-4.707,-4.7608,-4.7309,-4.7578,-4.7578,-4.7309,-4.7967,-4.8446,-4.876,-4.9149,-4.9629,-5.0122,-5.0212,-5.0345,-5.0674,-5.1379,-5.1648,-5.1768,-5.3114,-5.4102,-5.482,-5.5418,-5.5867,-5.6368,-4.0016,-4.0822,0.0,0.0,0.0,0.0,0.0,-5.3827,0.0,-6.0216,0.0,-6.7117,-6.7117,-6.9451,-7.077,-7.0094,0.0,-6.8673,-6.5392,-6.6812,-6.6339,-6.3125,-6.2685,-6.1163,-5.8254,-5.6122,0.0,0.0,0.0,0.0,-5.0817,-5.1414,-5.1377,0.0,0.0,0.0,0.0,-5.416,-5.4871,0.0,-5.6258,-5.6562,-5.6664,-5.6562,-5.5716,-5.4566,-5.4465,-5.4025,-5.3518,-5.3518,-5.3518,-5.3518,-5.3518,-5.3518,-5.3518,-5.3518,-5.3518,-5.3653,-5.4262,-5.2666,-5.0902,-5.125,-4.9521,-4.7624,-4.7352,-4.7309,-4.7309,-4.7309,-4.7309,-4.7309,0.0,0.0,0.0,0.0,0.0,0.0,0.0,0.0,0.0,0.0,0.0,0.0,0.0,0.0,0.0,0.0,0.0,0.0,0.0,0.0,0.0,0.0,-4.7189,0.0,-4.7578,0.0,-4.8087,-4.7698,-4.8267,-4.8835,-4.9449,-4.9539,-5.0152,-5.1199,-5.0554,-5.0704,-5.1379,-5.1977,-5.2306,-5.2576,-5.3743,-5.4311,-5.461,-5.5837,-5.6346,-5.6585,-4.0476,0.0,0.0,0.0,0.0,-5.2128,-5.3865,-5.8059,-6.1447,-6.2735,-6.6305,-6.8707,-6.8707,-6.918,-6.9417,-6.9316,-6.9282,0.0,0.0,0.0,0.0,-6.6068,-6.4275,-6.2178,-5.9776,-5.8118,-5.6292,0.0,0.0,0.0,-5.2904,-5.1373,0.0,0.0,0.0,0.0,-5.3518,-5.3653,0.0,-5.4803,-5.4938,-5.5344,-5.5852,-5.5209,-5.4803,-5.4499,-5.3923,-5.3619,-5.3518,-5.3518,-5.3518,-5.3518,-5.3518,-5.3518,-5.3518,-5.3518,-5.3518,-5.3551,-5.3653,-5.3314,-5.2555,-5.0978,-5.0221,-4.9407,-4.7709,-4.7309,-4.7309,-4.7309,-4.7309,-4.7309,-4.7309,0.0,0.0,0.0,0.0,0.0,0.0,0.0,0.0,0.0,0.0,0.0,0.0,0.0,0.0,0.0,0.0,0.0,0.0,0.0,0.0,0.0,0.0,0.0,0.0,0.0,0.0,-4.9687,-4.9807,-4.9897,-5.0046,-5.0631,-5.099,-5.1199,-5.1109,-5.1409,-5.2037,-5.2157,-5.2845,-5.3892,-5.4132,-5.488,-5.5927,-5.6645,-5.7304,-5.7812,-4.2612,0.0,0.0,0.0,0.0,0.0,0.0,-6.1277,0.0,-6.3586,-6.5425,-6.6779,-6.6779,-6.8166,-6.8774,-6.7996,-6.7929,-6.759,-6.6812,-6.6068,-6.5662,-6.5662,-6.3903,0.0,-6.0148,-5.7915,-5.6055,-5.46,0.0,0.0,-5.2627,0.0,0.0,-5.2697,0.0,-5.3518,0.0,0.0,0.0,-5.5141,-5.4735,-5.504,-5.5649,-5.4871,-5.4363,-5.3991,-5.3619,-5.3518,-5.3518,-5.3518,-5.3518,-5.3518,-5.3518,-5.3518,-5.3518,-5.3518,-5.3518,-5.3518,-5.3518,-5.311,-5.2277,-5.0779,-4.997,-4.9175,-4.7666,-4.7309,-4.7309,-4.7309,-4.7309,-4.7309,-4.7309,-4.7309,0.0,0.0,0.0,0.0,0.0,0.0,0.0,0.0,0.0,0.0,0.0,0.0,0.0,0.0,0.0,0.0,0.0,0.0,0.0,0.0,0.0,0.0,0.0,0.0,0.0,-4.9733,-5.0016,-5.0196,-5.0226,-5.0883,-5.1229,-5.1229,-5.1229,-5.1588,-5.2247,-5.2965,-5.3832,-5.476,-5.5089,-5.5628,-5.6338,-5.7274,-5.7842,-5.8171,0.0,-4.5101,0.0,0.0,-5.3704,0.0,-5.8514,-6.3172,-6.5933,-6.4208,-6.4613,-6.5087,-6.5087,-6.7049,-6.7895,-6.6677,-6.644,-6.5831,-6.4681,-6.4444,-6.4377,-6.4377,-6.3091,-6.167,-6.0148,-5.7543,-5.575,0.0,0.0,0.0,0.0,0.0,0.0,0.0,0.0,0.0,0.0,0.0,-5.4262,-5.5412,-5.4668,-5.4905,-5.5649,-5.4871,-5.4228,-5.3721,-5.3721,-5.3619,-5.3518,-5.3518,-5.3518,-5.3518,-5.3518,-5.3518,-5.3518,-5.3518,-5.3518,-5.3518,-5.3518,-5.297,-5.2155,-5.0735,-4.9868,-4.9027,-4.7611,-4.7309,-4.7309,-4.7309,-4.7309,-4.7309,-4.7309,-4.7309,0.0,0.0,0.0,0.0,0.0,0.0,0.0,0.0,0.0,0.0,0.0,0.0,0.0,0.0,0.0,0.0,0.0,0.0,0.0,0.0,0.0,-4.8925,-4.8716,0.0,-5.0122,0.0,-5.0272,-5.0405,-5.0405,-5.0943,-5.1289,-5.1439,-5.1439,-5.1887,-5.2725,-5.3922,-5.482,-5.5448,-5.5957,-5.6346,-5.6705,-5.7752,-5.8201,-5.8411,0.0,0.0,0.0,0.0,0.0,0.0,0.0,-6.2736,-6.573,-6.5493,-6.6136,-6.6609,-6.6609,-6.6237,-6.5933,-6.5797,-6.5189,-6.4749,-6.4613,-6.3971,-6.3632,-6.3632,-6.2821,-6.167,-6.0148,-5.8524,-5.7002,0.0,0.0,0.0,0.0,0.0,0.0,0.0,0.0,0.0,0.0,-5.3518,-5.3957,-5.4634,-5.389,-5.4465,-5.5649,-5.4871,-5.4566,-5.4499,-5.4499,-5.4059,-5.3518,-5.3518,-5.3518,-5.3518,-5.3518,-5.3518,-5.3518,-5.3518,-5.3518,-5.3518,-5.3518,-5.3889,-5.3707,-5.1054,-5.0838,-5.0532,-4.7915,-4.7309,-4.7309,-4.7309,-4.7309,-4.7309,-4.7309,-4.7309,-4.7309,0.0,0.0,0.0,0.0,0.0,0.0,0.0,0.0,0.0,0.0,0.0,0.0,0.0,0.0,0.0,0.0,0.0,0.0,-4.5304,0.0,-4.8925,-4.9986,-5.0136,0.0,-5.1917,-5.1379,-5.1139,-5.1139,-5.1199,-5.1558,-5.2127,-5.2127,-5.2845,-5.4072,-5.479,-5.5478,-5.6077,-5.6188,-5.6885,-5.7962,-5.8082,-5.8501,-5.9009,0.0,0.0,0.0,0.0,0.0,0.0,0.0,-6.2822,-6.4645,-6.3442,-6.5354,-6.6643,-6.6203,-6.5865,-6.5696,-6.5696,-6.4613,-6.3937,-6.3937,-6.326,-6.2854,-6.2854,-6.2144,-6.1231,-6.0114,-5.866,-5.7171,0.0,0.0,0.0,0.0,0.0,0.0,0.0,0.0,-5.3518,-5.3551,-5.3957,-5.46,-5.5243,-5.4938,-5.5446,-5.6292,-5.5547,-5.5006,-5.46,-5.46,-5.4126,-5.3518,-5.3518,-5.3518,-5.3518,-5.3518,-5.3518,-5.3518,-5.3518,-5.3518,-5.3585,-5.4025,-5.4363,-5.4153,-5.2393,-5.1732,-5.0914,-4.8707,-4.7722,-4.7309,-4.7309,-4.7309,-4.7309,-4.7309,-4.7309,-4.7309,0.0,0.0,0.0,0.0,0.0,0.0,0.0,0.0,0.0,0.0,0.0,0.0,0.0,0.0,0.0,0.0,0.0,0.0,-4.5903,0.0,-4.9134,-4.9643,-5.0421,-5.1079,-5.1618,-5.1349,-5.1229,-5.1229,-5.1618,-5.2157,-5.2815,-5.3234,-5.3713,-5.4281,-5.5359,-5.5927,-5.6308,-5.7034,-5.7663,-5.8171,-5.856,-5.889,-5.9099,-5.0989,0.0,-5.3367,0.0,-5.7888,-5.93,-6.043,-6.2505,-6.3492,-6.2074,-6.4396,-6.5967,-6.5425,-6.5189,-6.5053,-6.5053,-6.3903,-6.3193,-6.3193,-6.2685,-6.2381,-6.2381,-6.1907,0.0,-6.0114,-5.8863,-5.7408,-5.5681,-5.4972,0.0,0.0,0.0,0.0,0.0,-5.3518,-5.3518,-5.3551,-5.4296,-5.504,-5.5681,-5.5681,-5.6156,-5.6731,-5.6224,-5.5446,-5.4634,-5.4837,-5.4296,-5.3518,-5.3518,-5.3518,-5.3518,-5.3518,-5.3518,-5.3518,-5.3518,-5.3653,-5.3923,-5.4465,-5.4905,-5.4932,-5.3629,-5.2557,-5.1351,-4.9562,-4.8304,-4.7608,-4.7608,-4.7429,-4.7309,-4.7309,-4.7309,-4.7309,-4.7309,0.0,0.0,0.0,0.0,0.0,0.0,0.0,-4.6279,-4.6279,0.0,0.0,0.0,0.0,0.0,0.0,0.0,0.0,0.0,0.0,0.0,0.0,-5.0571,-5.1229,-5.1229,-5.1229,-5.1319,-5.1528,-5.2396,-5.3054,-5.3533,-5.4192,-5.461,-5.485,-5.5777,-5.6406,-5.6825,-5.7752,-5.8231,-5.8471,-5.8949,-5.9099,-5.9099,-5.2675,-5.3804,-5.5191,-5.7798,-5.893,-5.9729,-6.0487,-6.1635,-6.2415,-6.2415,-6.37,-6.4613,-6.4613,-6.3971,-6.3531,-6.3531,-6.2854,-6.2415,-6.2415,-6.2381,-6.2381,0.0,0.0,-6.167,-6.0148,-5.937,-5.7915,-5.5681,0.0,0.0,-5.23,0.0,-5.2739,-5.3518,-5.3518,-5.3518,-5.3551,-5.4296,-5.504,-5.5681,-5.5681,-5.6156,-5.6799,-5.6799,-5.5886,-5.4702,-5.5446,-5.4769,-5.3518,-5.3518,-5.3518,-5.3518,-5.3518,-5.3518,-5.3518,-5.3518,-5.4025,-5.4566,-5.46,-5.5649,-5.6347,-5.456,-5.3343,-5.2125,-5.033,-4.9047,-4.8267,-4.8267,-4.7758,-4.7309,-4.7309,-4.7309,-4.7309,-4.7309,0.0,0.0,0.0,0.0,0.0,0.0,-4.6741,-4.6279,-4.6279,0.0,0.0,0.0,0.0,0.0,0.0,0.0,0.0,-4.6279,-4.8237,0.0,-4.9299,-5.0571,-5.1229,-5.1229,-5.1229,-5.1558,-5.2247,-5.3563,-5.4192,-5.4251,-5.491,-5.5538,-5.6188,-5.6218,-5.6944,-5.8112,-5.8112,-5.853,-5.9099,-5.9099,-5.9099,-5.9099,-5.2734,-5.5253,-5.7489,-5.7316,-5.8516,-5.9762,-6.0487,-6.0912,-6.116,-6.116,-6.2314,-6.3091,-6.3091,-6.3362,-6.37,0.0,-6.3125,-6.2618,0.0,-6.2685,-6.2381,-6.2381,-6.1907,-6.1163,-6.0114,-5.9404,-5.8186,-5.6461,0.0,0.0,0.0,-5.3112,-5.3247,-5.3518,-5.4025,-5.4262,-5.4329,-5.5581,-5.6224,-5.6494,-5.7002,-5.734,-5.7543,-5.7543,-5.6934,-5.6122,-5.6393,-5.5513,-5.4262,-5.4262,-5.3923,-5.3518,-5.3518,-5.3518,-5.3518,-5.3518,-5.4025,-5.4702,-5.5209,-5.6055,-5.6381,-5.4523,-5.3343,-5.1957,-4.9687,-4.8335,-4.7758,-4.8207,-4.7758,-4.7309,-4.7309,-4.7309,-4.7309,-4.7309,0.0,0.0,0.0,0.0,0.0,0.0,-4.713,-4.698,0.0,-4.68,0.0,0.0,0.0,0.0,0.0,0.0,0.0,0.0,-4.876,0.0,-5.0601,-5.102,-5.1678,-5.2546,-5.2097,-5.2486,-5.3593,-5.4012,-5.4461,-5.491,-5.5568,-5.5987,-5.6308,-5.7124,-5.7752,-5.8171,-5.862,-5.8919,-5.9099,-5.9099,-5.9099,-5.9159,-5.3765,-5.5496,-5.7061,-5.6983,-5.7193,-5.801,-5.99,-5.996,-6.0159,-6.1168,-6.1951,-6.2381,-6.2381,-6.2821,0.0,-6.3734,-6.2685,-6.2178,-6.2651,-6.1975,-6.1535,-6.1535,-6.1095,-6.0486,-5.9708,0.0,0.0,-5.6799,-5.5784,-5.4668,-5.3518,-5.3518,-5.3518,-5.3551,-5.4262,-5.46,-5.4702,-5.6156,-5.663,-5.6494,-5.7476,-5.7374,-5.6697,-5.7273,-5.6697,-5.5615,-5.5886,-5.5209,-5.4228,-5.4499,-5.4296,-5.3957,-5.4262,-5.4329,-5.4262,-5.3991,-5.4634,-5.548,-5.5649,-5.6461,-5.6858,-5.5469,-5.4377,-5.2956,-5.0518,-4.8761,-4.7938,-4.8835,-4.8297,-4.7758,-4.7997,-4.7638,-4.7399,-4.7638,-4.7459,-4.7309,-4.7309,0.0,0.0,0.0,0.0,0.0,0.0,-4.7758,0.0,0.0,0.0,0.0,0.0,0.0,0.0,-4.8267,-4.9404,0.0,-5.1199,-5.1708,-5.2366,-5.3174,-5.3025,-5.3384,-5.4221,-5.473,-5.5179,-5.5598,-5.6226,-5.6675,-5.6974,-5.7782,-5.8261,-5.853,-5.8949,-5.9099,-5.9129,-5.9368,-5.9488,-5.9578,-5.5295,-5.4681,0.0,0.0,-5.5271,0.0,-5.8754,-5.8791,-5.9371,-6.1874,-6.2308,-6.2381,-6.2381,-6.2381,-6.2381,-6.2313,0.0,0.0,0.0,-6.0554,-6.0114,-6.0114,-6.0047,-5.9708,-5.9032,-5.893,-5.8118,-5.6664,-5.5277,-5.4228,-5.3518,-5.3518,-5.3518,-5.3619,-5.4329,-5.4702,-5.4837,-5.6258,-5.6494,-5.5987,-5.734,-5.6664,-5.4972,-5.6359,-5.5615,-5.389,-5.4566,-5.4363,-5.3822,-5.4499,-5.4702,-5.4803,-5.548,-5.575,-5.5649,-5.4871,-5.5683,-5.6664,-5.5987,-5.6833,-5.7712,-5.6896,-5.5825,-5.4424,-5.2278,-5.0039,-4.8716,-4.9927,-4.9224,-4.8536,-4.9209,-4.8267,-4.7638,-4.8207,-4.7788,-4.7369,-4.7309,0.0,0.0,0.0,0.0,0.0,0.0,-4.8476,-4.876,0.0,0.0,0.0,0.0,0.0,-4.8416,-4.8416,-5.0272,-5.1319,-5.1439,-5.2606,-5.3204,-5.3264,-5.4012,-5.4341,-5.4401,-5.5658,-5.6226,-5.6286,-5.6885,-5.7513,-5.8112,-5.8171,-5.856,-5.9099,-5.9099,-5.9099,-5.9189,-5.9847,-6.0086,-6.0176,0.0,0.0,-5.4785,-5.4778,-5.4295,-5.471,-5.7099,-5.7721,-5.8538,-6.0059,-6.1501,-6.2381,-6.2381,-6.2381,-6.2178,-6.1603,-6.14,-6.1298,-6.1298,-6.0554,-6.0114,-6.0114,-5.9573,-5.9201,-5.9032,-5.7915,-5.6596,-5.5108,-5.4769,-5.4228,-5.3518,-5.3518,-5.3788,-5.4363,-5.5108,-5.575,-5.6325,-5.7239,-5.7543,-5.7408,-5.7746,-5.7577,-5.7137,-5.7509,-5.7306,-5.6867,-5.7036,-5.663,-5.6055,-5.6224,-5.5919,-5.548,-5.5649,-5.6089,-5.6393,-5.5683,-5.6089,-5.6765,-5.6596,-5.7205,-5.7533,-5.6021,-5.3758,-5.1706,-5.0832,-4.9809,-4.9254,-5.0016,-4.9583,-4.912,-4.9269,-4.906,-4.8686,-4.8356,-4.8147,-4.7878,-4.7369,-4.7309,0.0,0.0,-4.7878,-4.8237,-4.8057,-4.8327,-4.8805,0.0,0.0,0.0,0.0,0.0,-4.9717,-4.9717,-5.1199,-5.2456,-5.3503,-5.3294,-5.3443,-5.3982,-5.5149,-5.5718,-5.5718,-5.6526,-5.6885,-5.6915,-5.7573,-5.7962,-5.8171,-5.865,-5.8979,-5.9099,-5.9099,-5.9099,-5.9189,-5.9847,-6.0086,-6.0266,-5.3323,-5.4463,-5.5332,-5.441,-5.3827,-5.4171,-5.6411,-5.7075,-5.8023,-5.9843,-6.1408,-6.2381,-6.2381,-6.2381,-6.211,-6.1366,-6.096,-6.0622,-6.0283,-5.9539,-5.9099,-5.9099,-5.8727,-5.849,-5.849,-5.7374,-5.6089,-5.46,-5.46,-5.4228,-5.3518,-5.3856,-5.4228,-5.4634,-5.5716,-5.6427,-5.6867,-5.7577,-5.7509,-5.6934,-5.7611,-5.7273,-5.6461,-5.7137,-5.7171,-5.69,-5.69,-5.663,-5.6359,-5.6697,-5.6528,-5.6258,-5.6596,-5.6968,-5.7205,-5.6833,-5.7002,-5.7239,-5.69,-5.734,-5.756,-5.6084,-5.351,-5.1376,-5.1408,-5.0563,-4.9883,-5.0495,-5.0152,-4.9793,-5.0092,-4.9673,-4.9179,-4.885,-4.8476,-4.8057,-4.7399,-4.7309,0.0,-4.7728,-4.8327,-4.8745,-4.8745,-4.9284,-4.9673,-4.9793,0.0,0.0,-5.0136,-5.1079,-5.1319,-5.0674,-5.2546,-5.3922,-5.464,-5.485,-5.5029,-5.5119,-5.6107,-5.6585,-5.6615,-5.7274,-5.7573,-5.7603,-5.8291,-5.859,-5.859,-5.8949,-5.9279,-5.9548,-5.9548,-5.9727,-6.0116,-6.0775,-6.1014,-6.1164,-5.4307,-5.4913,-5.5287,-5.4473,-5.3396,-5.3392,-5.5537,-5.6237,-5.7377,-5.9713,-6.1265,-6.2223,-6.2381,-6.2381,-6.211,-6.1366,-6.0554,-5.981,-5.9066,-5.8423,-5.8017,-5.7881,-5.7881,-5.7848,-5.7712,-5.69,-5.5784,-5.4431,-5.4431,-5.416,-5.3687,-5.4296,-5.4702,-5.4972,-5.6224,-5.6867,-5.7002,-5.7611,-5.7171,-5.6156,-5.7408,-5.6765,-5.5209,-5.6494,-5.6596,-5.6055,-5.6055,-5.6055,-5.6156,-5.6765,-5.6968,-5.707,-5.7679,-5.7881,-5.7881,-5.7881,-5.7881,-5.7746,-5.7137,-5.7299,-5.7335,-5.6047,-5.386,-5.2144,-5.2555,-5.1455,-5.0524,-5.1229,-5.0883,-5.0674,-5.1259,-5.0451,-4.9689,-4.9479,-4.8865,-4.8207,-4.7549,0.0,-4.7668,-4.8207,-4.8955,-4.9509,-4.9599,-5.0571,-5.093,-5.0258,-5.081,0.0,0.0,-5.2546,-5.2905,-5.1977,-5.4162,-5.5388,-5.5478,-5.6555,-5.6825,-5.6316,-5.6944,-5.7244,-5.7274,-5.7962,-5.8261,-5.8321,-5.8979,-5.9249,-5.9249,-5.9368,-5.9727,-6.0236,-6.0236,-6.0595,-6.1194,-6.1852,-6.2091,-6.2181,-5.4531,-5.3614,-5.2609,-5.3084,-5.2245,-5.1586,-5.1999,-5.3914,-5.5794,-5.7205,-5.9418,-6.1276,-6.2302,-6.2381,-6.211,-6.1366,-6.0554,-5.981,-5.9066,-5.8896,-5.8558,-5.7915,-5.7881,-5.7611,-5.6968,-5.5649,-5.4532,-5.3687,-5.3687,-5.3923,-5.4431,-5.4532,-5.5243,-5.6461,-5.6697,-5.7137,-5.7712,-5.7848,-5.7746,-5.7577,-5.7814,-5.7679,-5.7408,-5.7645,-5.7645,-5.7543,-5.7543,-5.7543,-5.7577,-5.7679,-5.7712,-5.7746,-5.7848,-5.7881,-5.7881,-5.7881,-5.7881,-5.7881,-5.7746,-5.7122,-5.5968,-5.3924,-5.3072,-5.251,-5.1651,-5.1279,-5.1259,-5.1917,-5.1977,-5.1917,-5.2037,-5.1887,-5.1379,-5.0226,-4.9553,-4.894,-4.8237,0.0,-4.8177,-4.8267,-4.9344,-5.0255,-5.087,-5.1109,-5.2067,-5.4132,-5.2366,-5.2396,-5.5119,-5.4491,-5.4461,-5.5359,-5.5807,-5.6256,-5.6795,-5.7004,-5.7034,-5.6944,-5.7633,-5.7962,-5.7992,-5.865,-5.8949,-5.8979,-5.9638,-5.9937,-5.9967,-6.0565,-6.0864,-6.0954,-6.0954,-6.1014,-6.1194,-6.1852,-6.2091,-6.2181,-5.3323,-5.378,-5.3745,-5.2274,-5.2063,-5.2002,-5.1772,-5.3284,-5.4909,-5.6172,-5.8518,-6.044,-6.1324,-6.203,-6.211,-6.1366,-6.096,-6.025,-5.9099,-5.8626,-5.8254,-5.7915,-5.7881,-5.7374,-5.6258,-5.5141,-5.4228,-5.3518,-5.3518,-5.389,-5.46,-5.5006,-5.5784,-5.6833,-5.7205,-5.7577,-5.7881,-5.7881,-5.7645,-5.734,-5.7712,-5.7645,-5.734,-5.7746,-5.7881,-5.7881,-5.7881,-5.7881,-5.7881,-5.7881,-5.7881,-5.7881,-5.7881,-5.7881,-5.7881,-5.7881,-5.7881,-5.7772,-5.7151,-5.6165,-5.4929,-5.3309,-5.2717,-5.2381,-5.188,-5.2007,-5.2366,-5.2665,-5.2725,-5.2606,-5.2276,-5.2187,-5.1887,-5.0883,-4.9912,0.0,0.0,-4.8506,-4.8536,-4.9254,-5.0182,-5.1319,-5.2695,-5.2845,-5.3473,-5.5059,-5.4042,-5.4192,-5.6128,-5.5598,-5.5867,-5.7184,-5.7214,-5.7363,-5.7633,-5.7992,-5.7992,-5.7663,-5.868,-5.9009,-5.868,-5.9727,-5.9997,-5.9668,-6.0356,-6.0625,-6.0655,-6.0984,-6.1313,-6.1642,-6.1642,-6.1852,-6.2211,-6.251,-6.263,-6.266,-5.2656,-5.3871,-5.4305,-5.2018,-5.2109,-5.2398,-5.203,-5.29,-5.4129,-5.5566,-5.7496,-5.9131,-6.0063,-6.1276,-6.1688,-6.0948,-6.0974,-6.0452,-5.9099,-5.8321,-5.7814,-5.7645,-5.7306,-5.6596,-5.548,-5.4735,-5.4059,-5.3518,-5.3518,-5.3957,-5.4871,-5.5446,-5.619,-5.707,-5.7645,-5.7881,-5.7881,-5.7881,-5.7577,-5.7103,-5.7679,-5.7543,-5.7103,-5.7679,-5.7881,-5.7881,-5.7881,-5.7881,-5.7881,-5.7881,-5.7881,-5.7881,-5.7881,-5.7881,-5.7881,-5.7881,-5.7701,-5.726,-5.6126,-5.514,-5.4166,-5.3015,-5.2593,-5.2426,-5.2426,-5.2815,-5.3234,-5.3384,-5.3414,-5.3264,-5.2755,-5.2665,-5.2396,-5.1588,0.0,0.0,0.0,-4.9194,-4.9344,-5.0315,-5.1319,-5.2576,-5.4281,-5.4581,-5.4999,-5.5807,-5.5718,-5.5987,-5.6825,-5.6855,-5.7453,-5.877,-5.868,-5.859,-5.859,-5.9069,-5.9069,-5.859,-5.9608,-5.9907,-5.9608,-6.0655,-6.0835,-6.0356,-6.1044,-6.1343,-6.1343,-6.1493,-6.1882,-6.2331,-6.2331,-6.263,-6.3079,-6.3079,-6.3079,-6.3079,-5.3893,-5.2869,-5.1789,-5.2634,-5.1972,-5.1323,-5.1289,-5.1892,-5.2967,-5.4854,-5.5751,-5.6961,-5.8748,-6.0,-6.0448,-5.9688,-5.998,-5.9844,-5.9066,-5.8321,-5.7577,-5.69,-5.5547,-5.4769,-5.4668,-5.3957,-5.3551,-5.3518,-5.3518,-5.4228,-5.5649,-5.5683,-5.6461,-5.7814,-5.7881,-5.7881,-5.7881,-5.7881,-5.7848,-5.7814,-5.7881,-5.7848,-5.7814,-5.7881,-5.7881,-5.7881,-5.7881,-5.7881,-5.7881,-5.7881,-5.7881,-5.7881,-5.7881,-5.7881,-5.7881,-5.7881,-5.7151,-5.6087,-5.5002,-5.4344,-5.368,-5.2571,-5.2702,-5.3114,-5.3114,-5.3144,-5.3354,-5.4012,-5.4132,-5.4132,-5.4072,-5.4072,-5.3653,-5.2336,0.0,0.0,-5.0196,-5.0661,-5.105,-5.1139,-5.2815,-5.4281,-5.5029,-5.5658,-5.6555,-5.7812,-5.7304,-5.7513,-5.883,-5.889,-5.9518,-6.0864,-6.0266,-5.9937,-5.9937,-5.9997,-5.9997,-5.9937,-6.0027,-6.0386,-6.0984,-6.1074,-6.1074,-6.1074,-6.1732,-6.2032,-6.2061,-6.269,-6.2959,-6.3019,-6.3019,-6.3049,-6.3079,-6.3079,-6.3079,-6.3079,-5.2379,-5.235,-5.22,-5.188,-5.1479,-5.1229,-5.1229,-5.1439,-5.2137,-5.3667,-5.4775,-5.5984,-5.7496,-5.9014,-5.9795,-5.9531,-5.9432,-5.9302,-5.9032,-5.8321,-5.7577,-5.6833,-5.6258,-5.5547,-5.46,-5.4329,-5.3957,-5.3518,-5.3518,-5.4025,-5.504,-5.5513,-5.6258,-5.7239,-5.7679,-5.7881,-5.7881,-5.7881,-5.7881,-5.7881,-5.7881,-5.748,-5.6849,-5.6849,-5.6849,-5.6849,-5.6849,-5.7297,-5.7881,-5.7881,-5.7881,-5.7881,-5.7881,-5.7881,-5.7839,-5.7568,-5.6697,-5.5702,-5.4983,-5.4362,-5.3729,-5.3001,-5.3324,-5.3832,-5.3832,-5.4461,-5.5119,-5.5359,-5.5748,-5.5748,-5.497,-5.482,-5.4521,-5.3593,0.0,-5.1887,-5.2037,-5.2276,-5.2606,-5.3025,-5.4461,-5.5837,-5.6915,-5.7244,-5.7932,-5.9249,-5.9099,-5.9368,-6.0296,-6.0356,-6.0775,-6.1702,-6.1463,-6.1134,-6.0715,-6.0715,-6.0715,-6.0745,-6.1134,-6.1253,-6.1134,-6.1972,-6.2121,-6.1762,-6.2421,-6.272,-6.272,-6.2959,-6.3079,-6.3079,-6.3079,-6.3079,-6.3079,-6.3079,-6.3079,-6.3079,-5.1339,-5.1865,-5.2109,-5.1339,-5.1229,-5.1229,-5.1229,-5.1229,-5.1678,-5.2995,-5.3932,-5.4849,-5.6015,-5.779,-5.8759,-5.8344,-5.8703,-5.893,-5.8693,-5.8186,-5.7577,-5.6833,-5.6596,-5.5886,-5.4634,-5.46,-5.4228,-5.3518,-5.3518,-5.3991,-5.4972,-5.548,-5.6224,-5.7171,-5.7679,-5.7881,-5.7881,-5.7881,-5.7665,-5.7372,-5.7372,-5.6701,-5.573,-5.573,-5.5821,-5.6057,-5.6448,-5.7199,-5.8039,-5.8039,-5.8039,-5.8006,-5.7771,-5.7704,-5.7611,-5.7142,-5.6262,-5.5254,-5.4807,-5.4479,-5.4199,-5.3928,-5.4311,-5.488,-5.5089,-5.5807,-5.6466,-5.6466,-5.6795,-5.6825,-5.5957,-5.5777,-5.5568,-5.494,-5.4042,-5.3533,-5.3773,-5.3982,-5.4281,-5.476,-5.5987,-5.7214,-5.8321,-5.862,-5.9219,-6.0326,-6.0416,-6.0715,-6.1373,-6.1433,-6.1732,-6.2391,-6.2391,-6.2181,-6.1732,-6.1523,-6.1433,-6.1433,-6.1882,-6.1972,-6.1762,-6.266,-6.2839,-6.2421,-6.2869,-6.3079,-6.3079,-6.3079,-6.3079,-6.3079,-6.3079,-6.3079,-6.3079,-6.3079,-6.3079,-6.3079,-5.1229,-5.1229,-5.1229,-5.1229,-5.1229,-5.1229,-5.1229,-5.1229,-5.1678,-5.3025,-5.3174,-5.3443,-5.4132,-5.6295,-5.7105,-5.573,-5.7674,-5.8693,-5.7949,-5.7881,-5.7577,-5.6833,-5.6122,-5.5378,-5.46,-5.46,-5.4228,-5.3518,-5.3518,-5.4262,-5.5716,-5.5681,-5.6494,-5.7881,-5.7881,-5.7881,-5.7881,-5.7881,-5.726,-5.6204,-5.6204,-5.5571,-5.4589,-5.4589,-5.5005,-5.5772,-5.6922,-5.7778,-5.8297,-5.8297,-5.8297,-5.8165,-5.7434,-5.7204,-5.7134,-5.6809,-5.5852,-5.4791,-5.4356,-5.47,-5.5209,-5.5209,-5.5688,-5.6346,-5.6944,-5.7094,-5.7094,-5.7094,-5.7124,-5.7124,-5.7124,-5.7124,-5.6915,-5.6286,-5.6248,-5.5957,-5.5299,-5.5777,-5.6248,-5.6248,-5.7363,-5.8411,-5.9069,-5.9697,-6.0386,-6.1074,-6.1134,-6.1403,-6.2061,-6.2121,-6.2391,-6.3049,-6.3079,-6.3079,-6.3079,-6.2421,-6.2121,-6.2121,-6.2121,-6.245,-6.3079,-6.3079,-6.3079,-6.3079,-6.3079,-6.3079,-6.3079,-6.3079,-6.3079,-6.3079,-6.3079,-6.3079,-6.3079,-6.3079,-6.3079,-6.3079,-5.1229,-5.1229,-5.1229,-5.1229,-5.1229,-5.1379,-5.1828,-5.1498,-5.1858,-5.3653,-5.3084,-5.3114,-5.473,-5.4974,-5.5367,-5.6176,-5.6693,-5.7272,-5.7845,-5.7881,-5.778,-5.7577,-5.734,-5.6393,-5.4634,-5.5108,-5.4769,-5.3518,-5.3518,-5.3991,-5.4938,-5.548,-5.6224,-5.7137,-5.7645,-5.7881,-5.7845,-5.7039,-5.6963,-5.726,-5.5691,-5.4879,-5.4505,-5.3699,-5.3834,-5.4429,-5.4825,-5.5878,-5.7055,-5.7055,-5.7055,-5.7023,-5.6755,-5.6691,-5.6638,-5.6266,-5.5844,-5.5592,-5.5591,-5.5718,-5.5867,-5.5867,-5.6346,-5.6855,-5.7064,-5.7453,-5.7812,-5.7812,-5.856,-5.9039,-5.859,-5.8501,-5.8291,-5.7633,-5.7124,-5.6765,-5.6555,-5.7513,-5.8231,-5.8231,-5.9398,-6.0296,-6.0505,-6.0685,-6.1074,-6.1762,-6.2241,-6.257,-6.278,-6.278,-6.2869,-6.3079,-6.3079,-6.3079,-6.3079,-6.2869,-6.278,-6.278,-6.278,-6.2899,-6.3079,-6.3079,-6.3079,-6.3079,-6.3079,-6.3079,-6.3079,-6.3079,-6.3079,-6.3079,-6.3079,-6.3079,-6.3079,-6.3079,-6.3079,-6.3079,-5.1229,-5.1229,-5.1229,-5.1229,-5.1229,-5.1349,-5.1738,-5.1708,-5.2037,-5.3264,-5.2935,-5.2965,-5.3892,-5.3941,-5.4402,-5.5665,-5.6421,-5.7151,-5.7845,-5.7881,-5.7881,-5.7881,-5.748,-5.6536,-5.5074,-5.5024,-5.4554,-5.3518,-5.3788,-5.4296,-5.504,-5.5784,-5.6528,-5.7239,-5.7679,-5.7881,-5.7845,-5.6663,-5.6321,-5.6432,-5.4672,-5.3656,-5.324,-5.2762,-5.304,-5.3698,-5.4452,-5.559,-5.6699,-5.6699,-5.6496,-5.6307,-5.6636,-5.6465,-5.6266,-5.6326,-5.6159,-5.6035,-5.6182,-5.6555,-5.7004,-5.7274,-5.7423,-5.7573,-5.7842,-5.8411,-5.889,-5.889,-5.9757,-6.0386,-5.9967,-5.9907,-5.9787,-5.9368,-5.8949,-5.868,-5.868,-5.9398,-5.9907,-5.9907,-6.0625,-6.1224,-6.1493,-6.1493,-6.1762,-6.245,-6.2839,-6.3079,-6.3079,-6.3079,-6.3079,-6.3079,-6.3079,-6.3079,-6.3079,-6.3079,-6.3079,-6.3079,-6.3079,-6.3079,-6.3079,-6.3079,-6.3079,-6.3079,-6.3079,-6.3079,-6.3079,-6.3079,-6.3079,-6.3079,-6.3079,-6.3079,-6.3079,-6.3079,-6.3079,-6.3079,-5.1229,-5.1229,-5.1229,-5.1229,-5.1229,-5.1229,-5.1289,-5.1768,-5.2157,-5.2276,-5.2695,-5.2815,-5.2336,-5.3131,-5.3895,-5.4465,-5.6503,-5.7808,-5.7881,-5.7881,-5.7845,-5.7772,-5.6663,-5.588,-5.5535,-5.4568,-5.3977,-5.3721,-5.4363,-5.5074,-5.5818,-5.6494,-5.7171,-5.7881,-5.7881,-5.7881,-5.7808,-5.6586,-5.5571,-5.463,-5.3296,-5.22,-5.14,-5.1995,-5.2606,-5.3458,-5.5187,-5.626,-5.6848,-5.6848,-5.6398,-5.598,-5.6614,-5.6429,-5.6073,-5.6707,-5.6614,-5.6308,-5.6316,-5.7244,-5.8381,-5.9039,-5.88,-5.856,-5.9159,-5.9757,-6.0176,-6.0176,-6.0715,-6.1194,-6.1194,-6.1194,-6.1194,-6.1194,-6.1164,-6.1104,-6.1104,-6.1164,-6.1194,-6.1194,-6.1253,-6.1523,-6.2121,-6.2181,-6.2421,-6.3019,-6.3079,-6.3079,-6.3079,-6.3079,-6.3079,-6.3079,-6.3079,-6.3079,-6.3079,-6.3079,-6.3079,-6.3079,-6.3079,-6.3079,-6.3079,-6.3079,-6.3079,-6.3079,-6.3079,-6.3079,-6.3079,-6.3079,-6.3079,-6.3079,-6.3079,-6.3079,-6.3079,-6.3079,-6.3079,-6.3079,-5.1229,-5.1229,-5.1229,-5.1229,-5.1229,-5.1379,-5.1917,-5.1678,-5.1798,-5.2845,-5.2187,-5.1977,-5.2875,-5.2274,-5.2383,-5.3912,-5.558,-5.6963,-5.7845,-5.7881,-5.7517,-5.6624,-5.553,-5.4624,-5.4017,-5.4573,-5.4974,-5.5243,-5.5412,-5.5852,-5.6562,-5.6731,-5.7171,-5.7881,-5.7881,-5.7881,-5.7772,-5.577,-5.5296,-5.5578,-5.2723,-5.1972,-5.2532,-5.2296,-5.2606,-5.3313,-5.4266,-5.5028,-5.5601,-5.5601,-5.551,-5.537,-5.554,-5.5842,-5.6204,-5.6325,-5.6633,-5.7004,-5.7543,-5.8291,-5.9039,-5.9697,-6.0176,-6.0505,-6.0655,-6.0775,-6.0894,-6.0894,-6.1433,-6.1882,-6.1882,-6.1882,-6.1882,-6.1882,-6.1433,-6.1104,-6.1104,-6.1553,-6.1882,-6.1882,-6.2331,-6.272,-6.2839,-6.2869,-6.2929,-6.3079,-6.3079,-6.3079,-6.3079,-6.3079,-6.3079,-6.3079,-6.3079,-6.3079,-6.3079,-6.3079,-6.3079,-6.3079,-6.3079,-6.3079,-6.3079,-6.3079,-6.3079,-6.3079,-6.3079,-6.3079,-6.3079,-6.3079,-6.3079,-6.3079,-6.3079,-6.3079,-6.3079,-6.3079,-6.3079,-6.3079,-5.1229,-5.1229,-5.1229,-5.1229,-5.1229,-5.1319,-5.1678,-5.1708,-5.1828,-5.2187,-5.2187,-5.2306,-5.2665,-5.2097,-5.2285,-5.3757,-5.5134,-5.614,-5.6731,-5.6513,-5.608,-5.5458,-5.4379,-5.3883,-5.4003,-5.4013,-5.4338,-5.4901,-5.5235,-5.5892,-5.6799,-5.7171,-5.7509,-5.7881,-5.7881,-5.7591,-5.6963,-5.5329,-5.463,-5.4431,-5.2124,-5.1753,-5.2566,-5.2635,-5.3084,-5.3743,-5.4431,-5.491,-5.5179,-5.5179,-5.5388,-5.5658,-5.5658,-5.6107,-5.6615,-5.6615,-5.7064,-5.7723,-5.8411,-5.9069,-5.9817,-6.0805,-6.1313,-6.1493,-6.1194,-6.1373,-6.1583,-6.1583,-6.2121,-6.257,-6.257,-6.257,-6.257,-6.257,-6.2271,-6.2061,-6.2061,-6.2361,-6.257,-6.257,-6.2869,-6.3079,-6.3079,-6.3079,-6.3079,-6.3079,-6.3079,-6.3079,-6.3079,-6.3079,-6.3079,-6.3079,-6.3079,-6.3079,-6.3079,-6.3079,-6.3079,-6.3079,-6.3079,-6.3079,-6.3079,-6.3079,-6.3079,-6.3079,-6.3079,-6.3079,-6.3079,-6.3079,-6.3079,-6.3079,-6.3079,-6.3079,-6.3079,-6.3079,-6.3079,-6.3079,-5.1229,-5.1229,-5.1229,-5.1229,-5.1229,-5.1259,-5.1379,-5.1858,-5.2007,-5.1439,-5.2426,-5.2875,-5.2127,-5.2127,-5.2739,-5.3973,-5.4844,-5.5357,-5.5602,-5.5101,-5.4633,-5.4337,-5.3521,-5.3346,-5.3999,-5.3077,-5.309,-5.4088,-5.471,-5.5501,-5.6426,-5.7066,-5.7409,-5.7591,-5.7591,-5.7222,-5.6398,-5.5166,-5.4041,-5.3077,-5.1727,-5.1618,-5.2276,-5.2935,-5.3623,-5.4311,-5.497,-5.5179,-5.5179,-5.5179,-5.5628,-5.6218,-5.6218,-5.6675,-5.7274,-5.7274,-5.7842,-5.859,-5.9129,-5.9847,-6.0685,-6.1822,-6.2181,-6.2121,-6.1583,-6.1882,-6.2271,-6.2271,-6.269,-6.3079,-6.3079,-6.3079,-6.3079,-6.3079,-6.3079,-6.3079,-6.3079,-6.3079,-6.3079,-6.3079,-6.3079,-6.3079,-6.3079,-6.3079,-6.3079,-6.3079,-6.3079,-6.3079,-6.3079,-6.3079,-6.3079,-6.3079,-6.3079,-6.3079,-6.3079,-6.3079,-6.3079,-6.3079,-6.3079,-6.3079,-6.3079,-6.3079,-6.3079,-6.3079,-6.3079,-6.3079,-6.3079,-6.3079,-6.3079,-6.3079,-6.3079,-6.3079,-6.3079,-6.3079,-6.3079,-6.3079,-5.1229,-5.1229,-5.1229,-5.1229,-5.1229,-5.1409,-5.1977,-5.2127,-5.2157,-5.2067,-5.2725,-5.2725,-5.1498,-5.1858,-5.2873,-5.4607,-5.4355,-5.4562,-5.5559,-5.5506,-5.4761,-5.3165,-5.3548,-5.3114,-5.1711,-5.1526,-5.2438,-5.4507,-5.4604,-5.4718,-5.4914,-5.5011,-5.553,-5.6398,-5.6398,-5.6887,-5.7554,-5.549,-5.4505,-5.4168,-5.2063,-5.1618,-5.2276,-5.2935,-5.3623,-5.4311,-5.497,-5.5179,-5.5179,-5.5179,-5.5628,-5.6218,-5.6218,-5.7004,-5.7992,-5.7992,-5.886,-5.9847,-5.9937,-6.0864,-6.1882,-6.2061,-6.254,-6.2929,-6.2839,-6.2869,-6.2929,-6.2929,-6.3019,-6.3079,-6.3079,-6.3079,-6.3079,-6.3079,-6.3079,-6.3079,-6.3079,-6.3079,-6.3079,-6.3079,-6.3079,-6.3079,-6.3079,-6.3079,-6.3079,-6.3079,-6.3079,-6.3079,-6.3079,-6.3079,-6.3079,-6.3079,-6.3079,-6.3079,-6.3079,-6.3079,-6.3079,-6.3079,-6.3079,-6.3079,-6.3079,-6.3079,-6.3079,-6.3079,-6.3079,-6.3079,-6.3079,-6.3079,-6.3079,-6.3079,-6.3079,-6.3079,-6.3079,-6.3079,-6.3079,-6.3079,-5.1229,-5.1229,-5.1229,-5.1229,-5.1229,-5.1439,-5.2097,-5.1887,-5.1798,-5.2157,-5.2456,-5.2426,-5.1828,-5.2695,-5.3458,-5.3914,-5.4023,-5.4138,-5.4268,-5.4283,-5.3591,-5.2033,-5.2564,-5.2392,-5.1229,-5.1229,-5.1681,-5.2678,-5.3309,-5.3999,-5.4589,-5.4589,-5.5174,-5.6204,-5.6665,-5.6906,-5.6849,-5.5709,-5.4603,-5.3514,-5.2259,-5.2157,-5.2815,-5.3503,-5.4162,-5.479,-5.5089,-5.5179,-5.5239,-5.5628,-5.6166,-5.6765,-5.7124,-5.7902,-5.874,-5.9129,-5.9638,-6.0236,-6.1014,-6.1642,-6.2181,-6.254,-6.2869,-6.3079,-6.3079,-6.3079,-6.3079,-6.3079,-6.3079,-6.3079,-6.3079,-6.3079,-6.3079,-6.3079,-6.3079,-6.3079,-6.3079,-6.3079,-6.3079,-6.3079,-6.3079,-6.3079,-6.3079,-6.3079,-6.3079,-6.3079,-6.3079,-6.3079,-6.3079,-6.3079,-6.3079,-6.3079,-6.3079,-6.3079,-6.3079,-6.3079,-6.3079,-6.3079,-6.3079,-6.3079,-6.3079,-6.3079,-6.3079,-6.3079,-6.3079,-6.3079,-6.3079,-6.3079,-6.3079,-6.3079,-6.3079,-6.3079,-6.3079,-6.3079,-6.3079,-6.3079]},{"header":{"parameterUnit":"m.s-1","parameterCategory":1,"la1":30.6,"la2":28.766,"lo1":-90.7593,"lo2":-88.6598,"dy":0.0162,"dx":0.0183,"nx":116,"ny":114,"refTime":"2023-03-31T06:00:00:Z","depth":0,"parameterNumber":3,"parameterNumberName":"V-component_of_WINDS"},"data":[0.0,0.0,0.0,0.0,0.0,0.0,0.0,0.0,0.0,0.0,0.0,0.0,0.0,0.0,0.0,0.0,0.0,0.0,0.0,0.0,0.0,0.0,0.0,0.0,0.0,0.0,0.0,0.0,0.0,0.0,0.0,0.0,0.0,0.0,0.0,0.0,0.0,0.0,0.0,0.0,0.0,0.0,0.0,0.0,0.0,0.0,0.0,0.0,0.0,0.0,0.0,0.0,0.0,0.0,0.0,0.0,0.0,0.0,0.0,0.0,0.0,0.0,0.0,0.0,0.0,0.0,0.0,0.0,0.0,0.0,0.0,0.0,0.0,0.0,0.0,0.0,0.0,0.0,0.0,0.0,0.0,0.0,0.0,0.0,0.0,0.0,0.0,0.0,0.0,0.0,0.0,0.0,0.0,0.0,0.0,0.0,0.0,0.0,0.0,0.0,0.0,0.0,0.0,0.0,0.0,0.0,0.0,0.0,0.0,0.0,0.0,0.0,0.0,0.0,0.0,0.0,0.0,0.0,0.0,0.0,0.0,0.0,0.0,0.0,0.0,0.0,0.0,0.0,0.0,0.0,0.0,0.0,0.0,0.0,0.0,0.0,0.0,0.0,0.0,0.0,0.0,0.0,0.0,0.0,0.0,0.0,0.0,0.0,0.0,0.0,0.0,0.0,0.0,0.0,0.0,0.0,0.0,0.0,0.0,0.0,0.0,0.0,0.0,0.0,0.0,0.0,0.0,0.0,0.0,0.0,0.0,0.0,0.0,0.0,0.0,0.0,0.0,0.0,0.0,0.0,0.0,0.0,0.0,0.0,0.0,0.0,0.0,0.0,0.0,0.0,0.0,0.0,0.0,0.0,0.0,0.0,0.0,0.0,0.0,0.0,0.0,0.0,0.0,0.0,0.0,0.0,0.0,0.0,0.0,0.0,0.0,0.0,0.0,0.0,0.0,0.0,0.0,0.0,0.0,0.0,0.0,0.0,0.0,0.0,0.0,0.0,0.0,0.0,0.0,0.0,0.0,0.0,0.0,0.0,0.0,0.0,0.0,0.0,0.0,0.0,0.0,0.0,0.0,0.0,0.0,0.0,0.0,0.0,0.0,0.0,0.0,0.0,0.0,0.0,0.0,0.0,0.0,0.0,0.0,0.0,0.0,0.0,0.0,0.0,0.0,0.0,0.0,0.0,0.0,0.0,0.0,0.0,0.0,0.0,0.0,0.0,0.0,0.0,0.0,0.0,0.0,0.0,0.0,0.0,0.0,0.0,0.0,0.0,0.0,0.0,0.0,0.0,0.0,0.0,0.0,0.0,0.0,0.0,0.0,0.0,0.0,0.0,0.0,0.0,0.0,0.0,0.0,0.0,0.0,0.0,0.0,0.0,0.0,0.0,0.0,0.0,0.0,0.0,0.0,0.0,0.0,0.0,0.0,0.0,0.0,0.0,0.0,0.0,0.0,0.0,0.0,0.0,0.0,0.0,0.0,0.0,0.0,0.0,0.0,0.0,0.0,0.0,0.0,0.0,0.0,0.0,0.0,0.0,0.0,0.0,0.0,0.0,0.0,0.0,0.0,0.0,0.0,0.0,0.0,0.0,0.0,0.0,0.0,0.0,0.0,0.0,0.0,0.0,0.0,0.0,0.0,0.0,0.0,0.0,0.0,0.0,0.0,0.0,0.0,0.0,0.0,0.0,0.0,0.0,0.0,0.0,0.0,0.0,0.0,0.0,0.0,0.0,0.0,0.0,0.0,0.0,0.0,0.0,0.0,0.0,0.0,0.0,0.0,0.0,0.0,0.0,0.0,0.0,0.0,0.0,0.0,0.0,0.0,0.0,0.0,0.0,0.0,0.0,0.0,0.0,0.0,0.0,0.0,0.0,0.0,0.0,0.0,0.0,0.0,0.0,0.0,0.0,0.0,0.0,0.0,0.0,0.0,0.0,0.0,0.0,0.0,0.0,0.0,0.0,0.0,0.0,0.0,0.0,0.0,0.0,0.0,0.0,0.0,0.0,0.0,0.0,0.0,0.0,0.0,0.0,0.0,0.0,0.0,0.0,0.0,0.0,0.0,0.0,0.0,0.0,0.0,0.0,0.0,0.0,0.0,0.0,0.0,0.0,0.0,0.0,0.0,0.0,0.0,0.0,0.0,0.0,0.0,0.0,0.0,0.0,0.0,0.0,0.0,0.0,0.0,0.0,0.0,0.0,0.0,0.0,0.0,0.0,0.0,0.0,0.0,0.0,0.0,0.0,0.0,0.0,0.0,0.0,0.0,0.0,0.0,0.0,0.0,0.0,0.0,0.0,0.0,0.0,0.0,0.0,0.0,0.0,0.0,0.0,0.0,0.0,0.0,0.0,0.0,0.0,0.0,0.0,0.0,0.0,0.0,0.0,0.0,0.0,0.0,0.0,0.0,0.0,0.0,0.0,0.0,0.0,0.0,0.0,0.0,0.0,0.0,0.0,0.0,0.0,0.0,0.0,0.0,0.0,0.0,0.0,0.0,0.0,0.0,0.0,0.0,0.0,0.0,0.0,0.0,0.0,0.0,0.0,0.0,0.0,0.0,0.0,0.0,0.0,0.0,0.0,0.0,0.0,0.0,0.0,0.0,0.0,0.0,0.0,0.0,0.0,0.0,0.0,0.0,0.0,0.0,0.0,0.0,0.0,0.0,0.0,0.0,0.0,0.0,0.0,0.0,0.0,0.0,0.0,0.0,0.0,0.0,0.0,0.0,0.0,0.0,0.0,0.0,0.0,0.0,0.0,0.0,0.0,0.0,0.0,0.0,0.0,0.0,0.0,0.0,0.0,0.0,0.0,0.0,0.0,0.0,0.0,0.0,0.0,0.0,0.0,0.0,0.0,0.0,0.0,0.0,0.0,0.0,0.0,0.0,0.0,0.0,0.0,0.0,0.0,0.0,0.0,0.0,0.0,0.0,0.0,0.0,0.0,0.0,0.0,0.0,0.0,0.0,0.0,0.0,0.0,0.0,0.0,0.0,0.0,0.0,0.0,0.0,0.0,0.0,0.0,0.0,0.0,0.0,0.0,0.0,0.0,0.0,0.0,0.0,0.0,0.0,0.0,0.0,0.0,0.0,0.0,0.0,0.0,0.0,0.0,0.0,0.0,0.0,0.0,0.0,0.0,0.0,0.0,0.0,0.0,0.0,0.0,0.0,0.0,0.0,0.0,0.0,0.0,0.0,0.0,0.0,0.0,0.0,0.0,0.0,0.0,0.0,0.0,0.0,0.0,0.0,0.0,0.0,0.0,0.0,0.0,0.0,0.0,0.0,0.0,0.0,0.0,0.0,0.0,0.0,0.0,0.0,0.0,0.0,0.0,0.0,0.0,0.0,0.0,0.0,0.0,0.0,0.0,0.0,0.0,0.0,0.0,0.0,0.0,0.0,0.0,0.0,0.0,0.0,0.0,0.0,0.0,0.0,0.0,0.0,0.0,0.0,0.0,0.0,0.0,0.0,0.0,0.0,0.0,0.0,0.0,0.0,0.0,0.0,0.0,0.0,0.0,0.0,0.0,0.0,0.0,0.0,0.0,0.0,0.0,0.0,0.0,0.0,0.0,0.0,0.0,0.0,0.0,0.0,0.0,0.0,0.0,0.0,0.0,0.0,0.0,0.0,0.0,0.0,0.0,0.0,0.0,0.0,0.0,0.0,0.0,0.0,0.0,0.0,0.0,0.0,0.0,0.0,0.0,0.0,0.0,0.0,0.0,0.0,0.0,0.0,0.0,0.0,0.0,0.0,0.0,0.0,0.0,0.0,0.0,0.0,0.0,0.0,0.0,0.0,0.0,0.0,0.0,0.0,0.0,0.0,0.0,0.0,0.0,0.0,0.0,0.0,0.0,0.0,0.0,0.0,0.0,0.0,0.0,0.0,0.0,0.0,0.0,0.0,0.0,0.0,0.0,0.0,0.0,0.0,0.0,0.0,0.0,0.0,0.0,0.0,0.0,0.0,0.0,0.0,0.0,0.0,0.0,0.0,0.0,0.0,0.0,0.0,0.0,0.0,0.0,0.0,0.0,0.0,0.0,0.0,0.0,0.0,0.0,0.0,0.0,0.0,0.0,0.0,0.0,0.0,0.0,0.0,0.0,0.0,0.0,0.0,0.0,0.0,0.0,0.0,0.0,0.0,0.0,0.0,0.0,0.0,0.0,0.0,0.0,0.0,0.0,0.0,0.0,0.0,0.0,0.0,0.0,0.0,0.0,0.0,0.0,0.0,0.0,0.0,0.0,0.0,0.0,0.0,0.0,0.0,0.0,0.0,0.0,0.0,0.0,0.0,0.0,0.0,0.0,0.0,0.0,0.0,0.0,0.0,0.0,0.0,0.0,0.0,0.0,0.0,0.0,0.0,0.0,0.0,0.0,0.0,0.0,0.0,0.0,0.0,0.0,0.0,0.0,0.0,0.0,0.0,0.0,0.0,0.0,0.0,0.0,0.0,0.0,0.0,0.0,0.0,0.0,0.0,0.0,0.0,0.0,0.0,0.0,0.0,0.0,0.0,0.0,0.0,0.0,0.0,0.0,0.0,0.0,0.0,0.0,0.0,0.0,0.0,0.0,0.0,0.0,0.0,0.0,0.0,0.0,0.0,0.0,0.0,0.0,0.0,0.0,0.0,0.0,0.0,0.0,0.0,0.0,0.0,0.0,0.0,0.0,0.0,0.0,0.0,0.0,0.0,0.0,0.0,0.0,0.0,0.0,0.0,0.0,0.0,0.0,0.0,0.0,0.0,0.0,0.0,0.0,0.0,0.0,0.0,0.0,0.0,0.0,0.0,0.0,0.0,0.0,0.0,0.0,0.0,0.0,0.0,0.0,0.0,0.0,0.0,0.0,0.0,0.0,0.0,0.0,0.0,0.0,0.0,0.0,0.0,0.0,0.0,0.0,0.0,0.0,0.0,0.0,0.0,0.0,0.0,0.0,0.0,0.0,0.0,0.0,0.0,0.0,0.0,0.0,0.0,0.0,0.0,0.0,0.0,0.0,0.0,0.0,0.0,0.0,0.0,0.0,0.0,0.0,0.0,0.0,0.0,0.0,0.0,0.0,0.0,0.0,0.0,0.0,0.0,0.0,0.0,0.0,0.0,0.0,0.0,0.0,0.0,0.0,0.0,0.0,0.0,0.0,0.0,0.0,0.0,0.0,0.0,0.0,0.0,0.0,0.0,0.0,0.0,0.0,0.0,0.0,0.0,0.0,0.0,0.0,0.0,0.0,0.0,0.0,0.0,0.0,0.0,0.0,0.0,0.0,0.0,0.0,0.0,0.0,0.0,0.0,0.0,0.0,0.0,0.0,0.0,0.0,0.0,0.0,0.0,0.0,0.0,0.0,0.0,0.0,0.0,0.0,0.0,0.0,0.0,0.0,0.0,0.0,0.0,0.0,0.0,0.0,0.0,0.0,0.0,0.0,0.0,0.0,0.0,0.0,0.0,0.0,0.0,0.0,0.0,0.0,0.0,0.0,0.0,0.0,0.0,0.0,0.0,0.0,0.0,0.0,0.0,0.0,0.0,0.0,0.0,0.0,0.0,0.0,0.0,0.0,0.0,0.0,0.0,0.0,0.0,0.0,0.0,0.0,0.0,0.0,0.0,0.0,0.0,0.0,0.0,0.0,0.0,0.0,0.0,0.0,0.0,0.0,0.0,0.0,0.0,0.0,0.0,0.0,0.0,0.0,0.0,0.0,0.0,0.0,0.0,0.0,0.0,0.0,0.0,0.0,0.0,0.0,0.0,0.0,0.0,0.0,0.0,0.0,0.0,0.0,0.0,0.0,0.0,0.0,0.0,0.0,0.0,0.0,0.0,0.0,0.0,0.0,0.0,0.0,0.0,0.0,0.0,0.0,0.0,0.0,0.0,0.0,0.0,0.0,0.0,0.0,0.0,0.0,0.0,0.0,0.0,0.0,0.0,0.0,0.0,0.0,0.0,0.0,0.0,0.0,0.0,0.0,0.0,0.0,0.0,0.0,0.0,0.0,0.0,0.0,0.0,0.0,0.0,0.0,0.0,0.0,0.0,0.0,0.0,0.0,0.0,0.0,0.0,0.0,0.0,0.0,0.0,0.0,0.0,0.0,0.0,0.0,0.0,0.0,3.2366,0.0,0.0,0.0,0.0,0.0,0.0,0.0,0.0,0.0,0.0,0.0,0.0,0.0,0.0,0.0,0.0,0.0,0.0,0.0,0.0,0.0,0.0,0.0,0.0,0.0,0.0,0.0,0.0,0.0,0.0,0.0,0.0,0.0,0.0,0.0,0.0,0.0,0.0,0.0,2.757,2.772,2.772,2.8574,2.9277,2.9804,0.0,0.0,0.0,0.0,0.0,0.0,0.0,0.0,0.0,0.0,0.0,0.0,0.0,0.0,0.0,0.0,0.0,0.0,0.0,0.0,0.0,0.0,0.0,0.0,0.0,0.0,0.0,0.0,0.0,0.0,0.0,0.0,0.0,0.0,0.0,0.0,0.0,0.0,0.0,0.0,0.0,0.0,0.0,0.0,0.0,0.0,0.0,0.0,0.0,0.0,0.0,0.0,0.0,0.0,0.0,0.0,0.0,0.0,0.0,0.0,0.0,0.0,0.0,0.0,0.0,0.0,0.0,0.0,0.0,0.0,0.0,3.4054,0.0,0.0,0.0,0.0,0.0,0.0,0.0,0.0,0.0,0.0,0.0,0.0,0.0,0.0,0.0,0.0,0.0,0.0,0.0,0.0,0.0,0.0,0.0,0.0,2.7178,2.6826,2.7203,2.7228,0.0,0.0,0.0,0.0,0.0,0.0,0.0,2.7645,2.7846,2.7293,2.7293,2.7394,2.757,2.8047,2.885,2.9955,3.0206,0.0,0.0,0.0,0.0,0.0,0.0,0.0,0.0,0.0,0.0,0.0,0.0,0.0,0.0,0.0,0.0,0.0,0.0,0.0,0.0,0.0,0.0,0.0,0.0,0.0,0.0,0.0,0.0,0.0,0.0,0.0,0.0,0.0,0.0,0.0,0.0,0.0,0.0,0.0,0.0,0.0,0.0,0.0,0.0,0.0,0.0,0.0,0.0,0.0,0.0,0.0,0.0,0.0,0.0,0.0,0.0,0.0,0.0,0.0,0.0,0.0,0.0,0.0,3.7462,3.8266,3.917,3.9823,4.0174,4.0172,3.8334,3.6944,3.6138,0.0,0.0,0.0,0.0,0.0,0.0,0.0,0.0,0.0,0.0,0.0,0.0,0.0,0.0,0.0,0.0,0.0,0.0,0.0,0.0,0.0,0.0,2.7278,2.7444,2.7846,2.7946,2.777,0.0,0.0,0.0,0.0,0.0,0.0,2.7896,2.8021,2.7846,2.7293,2.7293,2.777,2.8687,2.8737,2.9389,3.0457,2.9515,2.969,3.0708,0.0,0.0,0.0,0.0,0.0,0.0,0.0,0.0,0.0,0.0,0.0,0.0,0.0,0.0,0.0,0.0,0.0,0.0,0.0,0.0,0.0,0.0,0.0,0.0,0.0,0.0,0.0,0.0,0.0,0.0,0.0,0.0,0.0,0.0,0.0,0.0,0.0,0.0,0.0,0.0,0.0,3.0859,3.1235,0.0,0.0,0.0,0.0,0.0,0.0,0.0,0.0,0.0,0.0,0.0,0.0,0.0,0.0,3.7094,3.7865,3.8366,3.8592,3.9597,4.0149,4.035,4.1408,4.2137,4.2585,4.3219,0.0,3.8417,3.7917,0.0,0.0,0.0,0.0,0.0,0.0,0.0,0.0,0.0,0.0,0.0,0.0,0.0,0.0,0.0,0.0,0.0,0.0,0.0,0.0,0.0,2.757,2.772,2.7645,2.8222,2.8197,2.7344,2.8097,0.0,0.0,0.0,2.8423,2.8122,2.8423,2.8147,2.7293,2.7896,2.8147,2.8021,2.8612,2.9164,2.964,2.9765,3.0482,3.1461,3.0859,0.0,0.0,0.0,0.0,0.0,0.0,0.0,0.0,0.0,0.0,0.0,0.0,0.0,0.0,0.0,0.0,0.0,0.0,0.0,0.0,0.0,0.0,0.0,0.0,0.0,0.0,0.0,0.0,0.0,0.0,0.0,0.0,0.0,0.0,0.0,0.0,0.0,0.0,0.0,3.2466,3.2767,3.239,3.3093,3.3495,0.0,0.0,0.0,0.0,0.0,0.0,0.0,0.0,0.0,3.5301,3.6048,3.681,3.7538,3.8417,3.917,3.9823,4.153,4.2534,4.2861,4.4292,4.5246,4.5824,4.6928,4.5924,4.3388,4.1555,4.0249,3.9193,0.0,0.0,0.0,0.0,0.0,3.632,0.0,0.0,0.0,0.0,0.0,0.0,0.0,0.0,0.0,0.0,0.0,0.0,2.7645,2.7946,2.8072,2.7946,2.8674,2.875,2.777,2.8473,0.0,0.0,2.8813,2.895,2.8549,2.8649,2.8373,2.7695,2.8373,2.8524,2.8147,2.8976,2.9465,2.9765,3.0507,3.1336,3.2164,3.121,3.111,3.1512,0.0,0.0,0.0,0.0,0.0,0.0,0.0,0.0,0.0,0.0,0.0,0.0,0.0,0.0,0.0,0.0,0.0,0.0,0.0,0.0,0.0,0.0,0.0,0.0,0.0,0.0,0.0,0.0,0.0,0.0,0.0,0.0,0.0,0.0,0.0,0.0,0.0,3.3395,3.3822,3.3169,3.3922,3.4299,0.0,0.0,0.0,0.0,0.0,0.0,3.4411,3.6079,3.731,3.7814,3.7965,3.8241,3.8668,3.9647,4.0626,4.158,4.3388,4.4593,4.5321,4.6702,4.7631,4.8184,4.9163,4.8987,4.7757,4.497,4.2861,4.1146,3.9145,3.8238,3.7988,3.7762,3.8674,4.0207,0.0,0.0,0.0,0.0,0.0,0.0,0.0,0.0,0.0,0.0,0.0,2.649,2.8587,2.8398,2.8524,2.9578,2.9704,2.9503,2.8838,2.8863,2.8888,2.8838,2.9428,2.9729,2.9704,2.8674,2.8373,2.8813,2.8373,2.8925,3.0457,3.0507,3.106,3.2014,3.1562,3.1662,3.2164,3.1587,3.1662,3.2089,3.1009,0.0,0.0,0.0,0.0,0.0,0.0,0.0,0.0,0.0,0.0,0.0,0.0,0.0,0.0,0.0,0.0,0.0,0.0,0.0,0.0,0.0,0.0,0.0,0.0,0.0,0.0,0.0,0.0,0.0,0.0,0.0,0.0,0.0,0.0,0.0,0.0,0.0,0.0,3.3061,3.3596,0.0,0.0,0.0,0.0,3.4535,3.6536,3.7313,3.6313,3.7864,3.8994,3.9546,4.0074,4.1103,4.266,4.3263,4.384,4.4418,4.5095,4.5974,4.6968,4.7606,4.8184,4.8761,4.9339,4.9841,5.0042,4.728,4.5146,4.3589,4.293,4.3006,4.34,4.3394,4.3769,4.4227,0.0,0.0,0.0,0.0,0.0,0.0,0.0,0.0,2.5737,2.6138,2.6791,2.7645,2.8762,2.9076,2.9503,3.0256,3.0005,2.9704,2.9503,2.9478,2.9478,2.9478,2.9679,2.9628,2.9252,2.8499,2.8373,2.8888,2.9101,2.9679,3.0633,3.0959,3.1512,3.2215,3.239,3.2591,3.2717,3.1788,3.1712,3.2114,3.1035,3.0507,0.0,0.0,0.0,0.0,0.0,0.0,0.0,0.0,0.0,0.0,0.0,0.0,0.0,0.0,0.0,0.0,0.0,0.0,0.0,0.0,0.0,0.0,0.0,0.0,0.0,0.0,0.0,0.0,0.0,0.0,0.0,0.0,0.0,0.0,0.0,0.0,0.0,3.6132,3.7061,0.0,3.6332,3.6282,3.6307,3.6307,3.7362,3.8165,3.8492,3.9747,4.0877,4.1781,4.2333,4.3087,4.4041,4.4593,4.4995,4.5196,4.6451,4.7255,4.7657,4.8586,4.9113,4.9339,4.9891,5.0042,4.9841,4.9213,4.7958,4.6326,4.507,4.4493,4.4418,4.5146,4.5547,4.5773,0.0,0.0,0.0,0.0,0.0,0.0,0.0,0.0,2.5335,2.5335,2.6615,2.777,2.8323,2.9051,2.9729,3.0281,2.9829,2.9578,2.9779,2.9428,2.9402,2.9779,2.9804,2.9428,2.8674,2.8674,2.875,2.8888,2.9503,3.0156,3.0884,3.1235,3.1788,3.2516,3.2893,3.3194,3.3294,3.2541,3.234,3.2416,3.1311,3.121,3.1537,0.0,0.0,0.0,0.0,0.0,0.0,0.0,0.0,0.0,0.0,0.0,0.0,0.0,0.0,0.0,0.0,0.0,0.0,0.0,0.0,0.0,0.0,0.0,0.0,0.0,0.0,0.0,0.0,0.0,0.0,0.0,0.0,0.0,0.0,0.0,3.7337,3.8442,3.9245,3.9471,3.8919,3.8517,3.8391,3.8567,3.9446,4.03,4.1028,4.1957,4.2861,4.379,4.4166,4.4644,4.5196,4.5748,4.605,4.605,4.7305,4.8008,4.8234,4.8987,4.9414,4.9615,4.9992,5.0042,4.9891,5.0067,4.959,4.8636,4.7355,4.6627,4.6426,4.7355,4.7832,4.8058,0.0,0.0,0.0,0.0,0.0,0.0,0.0,2.4424,2.4775,2.475,2.5762,2.6725,2.7218,2.8273,2.9202,2.9804,2.9277,2.9176,2.9779,2.8725,2.8574,2.9704,2.9729,2.9227,2.8147,2.9176,2.9478,2.8913,2.9528,3.0331,3.1386,3.1386,3.1989,3.3111,3.3111,3.337,3.3872,3.3897,3.3621,3.3043,3.1888,3.2416,3.3545,0.0,0.0,0.0,0.0,0.0,0.0,0.0,0.0,0.0,0.0,0.0,0.0,0.0,0.0,0.0,0.0,0.0,0.0,0.0,0.0,0.0,0.0,0.0,0.0,0.0,0.0,0.0,0.0,0.0,0.0,0.0,0.0,0.0,3.4675,3.6684,3.8492,3.9647,3.9823,4.0049,4.0576,4.0626,4.0852,4.1326,4.2911,4.3815,4.3815,4.4342,4.492,4.5497,4.5522,4.5773,4.6326,4.6853,4.7043,4.7093,4.7657,4.8209,4.8761,4.8786,4.9088,4.959,4.9615,4.9916,5.0343,4.9841,4.9916,5.0343,4.9791,4.959,4.9665,5.0193,5.0745,5.1147,0.0,0.0,0.0,0.0,0.0,0.0,0.0,2.4173,2.4499,2.3672,2.5611,2.7153,2.7268,2.8649,2.993,3.0859,2.9352,2.8925,3.0306,2.8574,2.7996,2.9088,2.8398,2.8197,2.8662,2.8624,2.89,2.9553,2.9704,3.0331,3.1386,3.1386,3.1989,3.3111,3.3111,3.3169,3.3345,3.4148,3.4399,3.4173,3.3068,3.2641,3.2516,0.0,0.0,0.0,0.0,0.0,0.0,0.0,0.0,0.0,0.0,0.0,0.0,0.0,0.0,0.0,0.0,0.0,0.0,0.0,0.0,0.0,0.0,0.0,0.0,0.0,0.0,0.0,0.0,0.0,0.0,0.0,0.0,3.6307,3.701,3.8341,3.9798,4.1358,4.2534,4.3162,4.2936,4.3263,4.3388,4.3137,4.3915,4.4392,4.4392,4.4945,4.5497,4.6075,4.6075,4.6351,4.6842,4.6652,4.6753,4.7093,4.7657,4.8209,4.8786,4.9188,4.9464,4.9615,5.0017,5.0042,4.9841,5.0092,5.0042,4.9816,4.9665,4.959,4.9615,4.9766,4.9916,5.0092,0.0,0.0,0.0,0.0,0.0,0.0,0.0,2.4073,2.4148,2.2347,2.5134,2.6841,2.5661,2.7469,2.89,2.934,2.8373,2.8072,2.8825,2.8097,2.7821,2.8222,2.8072,2.8273,2.8888,2.885,2.9252,3.0131,2.9905,3.0457,3.1738,3.1486,3.1989,3.3136,3.3319,3.3294,3.3169,3.45,3.4881,3.47,3.4525,3.4399,3.4098,3.2315,3.2365,3.3194,3.1964,3.2265,3.3093,3.2014,0.0,0.0,0.0,0.0,0.0,0.0,0.0,0.0,0.0,0.0,0.0,0.0,0.0,0.0,0.0,0.0,0.0,0.0,0.0,0.0,0.0,0.0,0.0,0.0,3.6533,3.804,3.9521,4.03,4.1329,4.2986,4.4041,4.4694,4.4844,4.5146,4.5296,4.5196,4.5698,4.5899,4.5698,4.5999,4.6326,4.6652,4.6426,4.6577,4.7068,4.7029,4.7129,4.7456,4.8234,4.8786,4.9138,4.9439,4.9715,0.0,5.0268,5.0368,5.0318,5.0393,5.0218,0.0,0.0,0.0,0.0,0.0,5.0343,4.9992,0.0,0.0,0.0,0.0,0.0,0.0,0.0,2.4073,2.3828,2.1144,2.4437,2.5988,2.3296,2.536,2.6826,2.6524,2.6826,2.6876,2.6524,2.7444,2.7821,2.7394,2.8373,2.8888,2.8888,2.9553,3.0131,3.0608,3.0181,3.0733,3.2215,3.1712,3.2064,3.3093,3.3646,3.3621,3.3269,3.4831,3.5232,3.4901,3.6006,3.6757,3.681,3.4299,3.4876,3.6734,3.4726,3.4399,3.4751,3.3696,0.0,0.0,0.0,0.0,0.0,0.0,0.0,0.0,0.0,0.0,0.0,0.0,0.0,0.0,0.0,0.0,0.0,0.0,0.0,0.0,0.0,0.0,0.0,0.0,3.804,3.9396,4.2112,4.2539,4.3087,4.4618,4.4819,4.5246,4.6376,4.6426,4.6627,4.7179,4.7657,4.7707,4.7255,0.0,0.0,0.0,0.0,4.6677,4.7143,4.7631,4.7883,4.8008,4.9088,4.959,4.959,4.9715,5.0017,5.0419,5.0544,5.087,5.1247,5.072,5.0444,5.0268,4.9791,5.0218,5.1147,5.1724,5.1247,0.0,0.0,0.0,0.0,0.0,0.0,0.0,0.0,2.4073,2.3979,2.1672,2.3653,2.4582,2.2644,2.3778,2.5134,2.6373,2.5737,2.5636,2.6449,2.7102,2.7595,2.7921,2.8574,2.8888,2.8888,2.993,3.0507,3.0608,3.0934,3.1461,3.2215,3.2114,3.2416,3.3093,3.3646,3.3847,3.3822,3.4981,3.5433,3.5433,3.6584,3.6883,3.6455,3.5429,3.5357,3.5708,3.4831,3.5203,3.5956,3.5278,3.5278,3.5424,3.4399,3.3219,0.0,0.0,0.0,0.0,0.0,0.0,0.0,0.0,0.0,0.0,0.0,0.0,0.0,0.0,0.0,0.0,0.0,0.0,0.0,3.8944,4.0478,4.2007,4.389,4.4543,4.5121,4.5899,4.5974,4.6401,4.7506,4.723,4.7179,4.7707,4.7857,4.7857,4.7757,4.7757,0.0,4.7757,4.7255,4.723,4.7757,4.7431,4.7732,4.8611,0.0,0.0,4.9615,5.0544,5.077,5.0469,5.1373,5.1599,5.1272,5.1147,5.0569,4.9741,4.964,4.9715,4.9992,5.0544,5.0318,4.9816,0.0,0.0,0.0,0.0,0.0,0.0,0.0,2.3822,2.3803,2.2121,2.3828,2.4682,2.3301,2.413,2.5034,2.5586,2.4883,2.4983,2.6399,2.6751,2.7278,2.8072,2.89,2.9503,2.9715,3.0583,3.1135,3.1411,3.1411,3.1813,3.2641,3.234,3.2516,3.3162,3.3947,3.4148,3.3997,3.5378,3.5805,3.5608,3.7036,3.7262,3.6782,3.6483,3.6709,3.7111,3.6257,3.6483,3.7061,3.6232,3.5956,3.5805,3.4931,3.3947,3.3119,0.0,0.0,0.0,0.0,0.0,0.0,0.0,0.0,0.0,0.0,0.0,0.0,0.0,0.0,3.7287,0.0,0.0,3.9722,4.1103,4.2258,4.3463,4.4869,4.5296,4.5698,4.625,4.6552,4.6928,4.7481,4.7782,4.7658,4.6993,4.8054,4.823,4.7018,4.7868,4.8335,4.8335,4.7807,4.7782,4.8335,4.8083,4.8234,4.8786,4.9339,4.9741,5.0017,5.0318,5.0745,5.1272,5.1272,5.1423,5.1649,5.1071,5.0519,4.9967,4.969,4.959,4.9665,5.0218,5.0067,4.964,0.0,0.0,0.0,0.0,0.0,0.0,0.0,2.3597,2.3516,2.2213,2.386,2.4643,2.3387,2.4185,2.4707,2.4474,2.418,2.4707,2.6373,2.6499,2.7027,2.8222,2.9352,3.0156,3.0608,3.1235,3.1763,3.2215,3.1888,3.219,3.3111,3.2591,3.2616,3.3162,3.4223,3.4474,3.4148,3.5751,3.6107,3.5784,3.7262,3.7588,3.7186,3.7186,3.7814,3.8567,3.7663,3.7412,3.7437,3.6885,3.6107,3.5332,3.5228,3.4675,3.4048,3.4048,3.3897,0.0,0.0,0.0,0.0,0.0,0.0,0.0,0.0,0.0,3.7538,3.7136,3.8266,3.9521,4.0074,4.1078,4.2183,4.3288,4.394,4.4618,4.5522,4.5648,4.5824,4.625,4.6803,4.723,4.7431,4.8259,4.8213,4.6817,4.8516,4.8719,4.68,4.812,4.8887,4.8761,4.8309,4.8309,4.8825,4.8761,4.8837,4.8937,4.949,4.9941,5.0243,5.0142,5.0695,5.1749,5.1046,5.1197,5.1875,5.0971,5.0444,5.0218,4.9766,4.959,4.964,5.0092,4.9967,4.959,0.0,0.0,0.0,0.0,0.0,0.0,0.0,0.0,2.33,2.1392,2.2444,2.2675,2.0811,2.1416,2.2322,2.3221,2.3728,2.4707,2.6373,2.6499,2.7203,2.8737,2.993,3.0557,3.0608,3.1612,3.2139,3.2215,3.2667,3.2986,3.3111,3.3061,3.3061,3.3162,3.4223,3.47,3.47,3.5881,3.638,3.638,3.701,3.7236,3.7186,3.7186,3.7563,3.809,3.7965,3.701,3.5984,3.7362,3.6483,3.5052,3.6458,3.5855,3.4625,3.4625,3.3947,3.3169,3.3136,3.3162,3.3395,3.4374,3.5056,3.5859,0.0,0.0,3.9396,3.9346,4.0249,4.1229,4.1835,4.2785,4.389,4.502,4.5673,4.6075,4.62,4.6225,4.625,4.6301,4.6803,4.7506,4.8485,4.8711,4.8899,4.9182,4.9411,4.95,4.9232,4.9361,4.9289,4.8786,4.8711,4.8711,4.8761,4.8761,4.9012,4.9515,5.0067,5.0092,4.9741,5.1172,5.1373,5.0645,5.1523,5.1699,5.1373,5.1247,5.0594,4.9665,4.9615,4.959,4.9615,4.9665,4.964,4.959,0.0,0.0,0.0,0.0,0.0,0.0,0.0,0.0,0.0,2.1302,2.1751,2.2099,2.2107,2.2911,2.3477,2.3597,2.3521,2.433,2.6373,2.6172,2.6992,2.9327,3.0482,3.106,3.106,3.2139,3.2717,3.2717,3.3011,3.3111,3.3111,3.3111,3.3244,3.3596,3.4374,3.4856,3.5207,3.6031,3.6606,3.6885,3.7437,3.7462,3.7186,3.7186,3.6734,3.6132,3.6411,3.6085,0.0,3.5981,3.5658,3.5282,3.5959,3.5303,3.4299,3.4625,3.3947,3.3111,3.3111,3.3545,3.4223,3.4956,3.606,3.7337,3.8693,3.9848,4.0651,4.0651,4.1781,4.3037,4.394,4.4719,4.5623,0.0,4.7079,4.7129,4.6828,4.6527,4.6075,4.5397,4.5824,4.6728,4.8134,4.856,4.8579,4.8011,4.8958,4.9112,4.806,4.9023,4.949,4.9264,4.9264,4.9264,4.9264,4.9264,4.9364,4.959,4.9816,4.9992,5.0092,5.0469,5.0569,5.0469,5.1624,5.18,5.1247,5.0921,5.0695,5.0519,4.9841,4.9791,5.0042,4.9715,4.959,4.959,0.0,0.0,0.0,0.0,0.0,0.0,0.0,0.0,0.0,0.0,2.1029,2.1658,2.2939,2.3821,2.4148,2.3803,2.3346,2.3785,2.5402,2.5561,2.6571,2.8711,3.0202,3.1085,3.1386,3.219,3.281,3.3111,3.2918,3.2918,3.3111,3.3111,3.337,3.3922,3.4474,3.4981,3.5533,3.6132,3.6631,3.6985,3.7387,3.7236,3.6709,3.6558,3.5579,3.4349,3.4856,3.4756,3.4329,3.4299,3.4324,3.443,3.4906,3.455,3.3972,3.4374,3.3922,3.3345,3.3495,3.4223,3.5107,3.5959,3.7362,3.8818,4.0074,4.1354,4.2203,4.2203,4.3313,4.4568,4.5522,4.605,4.6728,4.7958,4.8008,4.7782,4.7405,4.6753,4.5899,4.4769,4.4869,4.5547,4.6878,4.7933,4.8203,4.7375,4.8754,4.9023,4.7641,4.8893,4.959,4.959,4.959,4.959,4.959,4.959,4.959,4.959,4.959,4.9791,5.0167,4.9941,5.0218,5.0921,5.1599,5.1649,5.1247,5.067,5.0569,5.0745,4.9916,4.9841,5.0167,4.9916,4.9715,4.959,0.0,0.0,0.0,0.0,0.0,0.0,0.0,0.0,0.0,0.0,0.0,0.0,0.0,2.269,2.3145,2.312,2.312,2.3071,2.3007,2.4624,2.5806,2.6299,2.8586,3.0331,3.1361,3.1411,3.1989,3.3111,3.2516,3.2516,3.3111,3.3111,3.337,3.3922,3.4474,3.4981,3.5533,3.6132,3.6405,3.643,3.6455,3.6081,3.5483,3.4956,3.4098,3.3194,3.3746,3.2893,3.1687,3.2767,3.2416,3.1788,3.3445,3.3922,0.0,3.3922,3.3897,0.0,0.0,0.0,3.5859,3.7538,3.8793,4.0074,4.176,4.3338,4.4518,4.4518,4.502,4.5623,4.6175,4.6301,4.6853,4.8485,4.8259,4.7908,4.7883,4.6979,4.5899,4.4769,4.4166,4.4091,0.0,4.6677,4.8159,4.8673,4.9289,4.959,4.9525,4.959,4.959,4.959,4.959,4.959,4.959,4.959,4.959,4.959,4.959,4.9615,4.964,5.0167,5.0996,5.2026,5.1523,5.1297,5.1247,5.067,5.0117,4.964,4.9615,4.9615,4.969,5.0193,5.0067,4.959,0.0,0.0,0.0,0.0,0.0,0.0,0.0,0.0,0.0,0.0,0.0,0.0,0.0,0.0,0.0,0.0,2.2267,2.2163,2.3221,2.2996,2.3644,2.5457,2.6676,2.7711,2.8664,2.9047,2.9759,3.0907,3.0737,3.1073,3.1964,3.234,3.2792,3.3395,3.4299,3.4981,3.5533,3.6132,3.6631,3.6835,3.6107,3.5931,3.5931,3.4274,3.3169,3.2441,0.0,3.1361,3.0884,3.0884,3.0884,3.0984,3.1537,3.1712,0.0,3.2566,0.0,0.0,0.0,0.0,3.8065,3.9346,4.0777,4.2308,4.3991,4.4794,4.5095,4.4694,4.4493,4.4317,4.4141,4.4392,4.5196,4.6878,4.7581,4.7908,4.7908,4.7606,4.6552,4.4342,4.4242,0.0,0.0,0.0,0.0,4.8021,4.7706,4.7979,4.95,4.959,4.959,4.959,4.959,4.959,4.959,4.959,4.959,4.959,4.959,4.959,4.9615,5.0167,5.0845,5.1548,5.1373,5.1272,5.1247,5.067,5.0318,5.0117,4.9741,5.0042,5.0645,5.0067,4.9992,5.0142,0.0,0.0,0.0,0.0,0.0,0.0,0.0,0.0,0.0,0.0,0.0,0.0,0.0,0.0,0.0,0.0,0.0,2.1896,2.2166,2.2128,2.2547,2.364,2.4922,2.6086,2.7032,2.7349,2.8074,2.9211,2.8836,2.9118,3.0014,3.0379,3.0816,3.1417,3.2273,3.3134,3.4061,3.4453,3.5055,3.5655,3.4951,3.4751,3.4726,3.3093,3.2114,0.0,3.0633,3.0306,3.0256,2.9905,3.003,3.0306,3.0306,3.0583,0.0,0.0,0.0,0.0,0.0,3.8492,4.0377,4.1404,4.2785,4.4166,4.5246,4.5497,4.5221,4.4242,4.3589,4.2986,4.2233,4.2057,4.2785,4.5045,4.5497,4.605,4.7431,4.7104,4.6225,4.4869,4.4644,4.4418,0.0,0.0,0.0,4.7382,4.6713,4.7239,4.95,4.959,4.959,4.959,4.959,4.959,4.959,4.959,4.959,4.959,4.959,4.959,4.9615,5.0167,5.0745,5.1272,5.1071,5.1096,5.1222,5.0444,5.0117,5.0092,4.9741,5.0042,5.0619,5.0092,4.9992,5.0117,0.0,0.0,0.0,0.0,0.0,0.0,0.0,0.0,0.0,0.0,0.0,0.0,0.0,0.0,0.0,0.0,0.0,0.0,2.0073,2.1939,2.2445,2.0913,2.336,2.5284,2.6367,2.6333,2.6825,2.7916,2.6973,2.6832,2.7451,2.7473,2.7765,2.8241,2.8719,2.9796,3.1288,3.1311,3.1977,3.3025,3.2975,3.2624,3.2139,3.1537,3.1009,3.0532,2.998,2.9804,2.9804,2.9804,0.0,0.0,0.0,0.0,0.0,0.0,0.0,3.7059,3.922,4.1028,4.259,4.3614,4.4719,4.5522,4.5447,4.5422,4.492,4.3212,4.2414,4.1659,0.0,0.0,3.9898,4.3187,4.2509,4.283,4.6617,4.5899,4.5296,0.0,0.0,0.0,0.0,0.0,0.0,4.7007,0.0,4.7239,4.95,4.9615,4.964,4.964,4.964,4.9665,4.969,4.9665,4.964,4.964,4.9615,4.9615,4.9665,5.0142,5.0695,5.1197,5.0619,5.0695,5.1147,5.0042,4.959,4.959,4.959,4.9615,4.969,5.0193,5.0067,4.964,0.0,0.0,0.0,0.0,0.0,0.0,0.0,0.0,0.0,0.0,0.0,0.0,0.0,0.0,0.0,0.0,0.0,0.0,2.0506,2.0654,2.0595,2.0183,2.1172,2.2298,2.3493,2.3515,2.4218,2.5658,2.5359,2.5779,2.6745,2.7169,2.7437,2.7595,2.8473,2.9147,2.9573,3.0008,3.0822,3.1772,3.0973,3.1294,3.2064,3.0708,3.0382,3.0532,2.998,2.9804,2.9804,0.0,0.0,0.0,0.0,3.2039,3.3621,0.0,0.0,3.9245,4.1081,4.2735,4.4166,4.4869,4.5573,4.5874,4.5045,4.4518,4.3639,4.158,4.0049,3.8843,0.0,0.0,0.0,4.2162,4.3614,0.0,4.7983,4.8686,0.0,4.8209,0.0,4.7908,4.6828,4.5497,0.0,0.0,4.7045,4.7239,4.95,4.9992,5.0218,5.0218,5.0218,5.0419,5.0845,5.0419,5.0218,5.0193,4.9791,4.9816,5.0193,4.9916,5.0117,5.0619,5.0042,5.0117,5.0594,4.9891,4.959,4.959,4.959,4.9841,5.0167,4.9916,4.9967,5.0142,0.0,0.0,0.0,0.0,0.0,0.0,0.0,0.0,0.0,0.0,0.0,0.0,0.0,0.0,0.0,0.0,0.0,0.0,0.0,2.0466,2.0135,1.9915,2.0521,2.1293,2.2211,2.2419,2.2995,2.4039,2.3898,2.4135,2.4766,2.5062,2.519,2.5232,2.602,2.6627,2.7129,2.7459,2.8489,0.0,0.0,2.9878,3.106,3.0131,2.998,3.0206,2.9905,2.9955,3.0231,0.0,0.0,3.1537,3.2817,3.4022,3.5403,3.7563,0.0,4.1178,4.3168,4.4644,4.5799,4.6125,4.6075,4.5529,4.377,4.3042,4.1918,3.9093,3.804,0.0,3.6282,3.6358,0.0,0.0,0.0,0.0,4.723,4.8435,4.9188,0.0,4.9916,0.0,4.9012,4.8105,4.8222,0.0,4.7824,4.7579,4.9851,5.0494,5.0569,5.0067,5.0544,5.0946,5.1272,5.0971,5.0795,5.0795,5.0494,5.0368,5.0419,5.0092,5.0117,5.0393,0.0,4.9916,5.0368,4.9816,4.959,4.959,4.959,4.9791,5.0017,4.9715,4.9791,5.0017,0.0,0.0,0.0,0.0,0.0,0.0,0.0,0.0,0.0,0.0,0.0,0.0,0.0,0.0,0.0,0.0,0.0,0.0,0.0,0.0,2.0442,1.994,2.0664,2.1387,2.1875,2.2246,2.2656,2.3101,2.273,2.2598,2.2598,2.2598,2.2598,2.2617,2.2925,2.3627,2.4575,2.4575,2.5775,2.7683,2.7683,2.8347,2.9365,0.0,2.9585,2.9585,2.9765,3.0105,3.0708,3.2014,3.2491,3.2918,3.5031,3.6307,3.7412,3.9973,4.163,4.3092,4.5045,4.6401,4.7168,4.6822,4.5974,4.4566,4.1962,4.1027,3.977,3.6611,0.0,3.6285,3.4749,3.459,3.5411,3.7742,0.0,4.1339,4.594,4.697,4.8258,5.1071,5.1021,5.0921,5.1348,5.0946,5.0845,5.1348,4.9071,4.8506,5.0428,5.1071,5.0946,4.9967,5.0946,5.1473,5.1398,5.1398,5.1398,5.1398,5.1322,5.1021,5.0519,5.0444,5.0368,5.0268,0.0,0.0,5.0268,4.9791,4.959,4.959,4.959,4.959,4.959,4.959,4.959,4.959,0.0,0.0,0.0,0.0,0.0,0.0,0.0,0.0,0.0,0.0,1.8613,1.814,0.0,0.0,0.0,0.0,0.0,0.0,0.0,0.0,0.0,1.994,2.041,2.1094,2.1875,2.1953,2.2363,2.3101,0.0,2.2984,2.2984,2.2984,2.2984,2.2984,2.3062,2.3212,2.3387,2.3387,2.4168,2.5357,2.5357,2.6047,2.718,2.8068,0.0,0.0,2.9443,2.9854,3.0306,3.2767,3.3922,3.46,3.6358,3.8241,4.0074,4.1509,4.3313,4.5095,4.5949,4.6954,4.7346,4.5479,4.4374,4.2951,3.9997,3.8401,0.0,0.0,3.4969,3.423,3.3349,3.4019,3.5553,3.8149,3.9176,4.1653,4.752,4.8003,4.8774,0.0,5.2277,5.2352,0.0,0.0,0.0,0.0,0.0,5.123,5.1147,5.1649,5.1875,5.1674,5.2302,5.2427,5.1975,5.1975,5.1975,5.195,5.1498,5.1222,5.1122,5.0645,5.0167,4.9741,0.0,0.0,4.9715,4.964,4.959,4.959,4.959,4.959,4.959,4.959,4.959,4.959,0.0,0.0,0.0,0.0,0.0,0.0,0.0,1.9999,2.0117,2.0508,1.9863,1.9336,1.926,2.0309,2.0995,0.0,0.0,0.0,0.0,0.0,0.0,0.0,0.0,0.0,0.0,0.0,0.0,0.0,0.0,0.0,0.0,0.0,0.0,0.0,0.0,2.3101,2.3101,2.3101,2.3757,2.4787,2.4787,2.5462,0.0,0.0,0.0,0.0,0.0,3.0156,3.0859,3.2491,3.3972,3.5483,3.7789,3.9421,4.0852,4.2509,4.4192,4.5723,4.6853,4.7933,4.8181,4.5645,4.428,4.2482,3.8245,0.0,0.0,0.0,3.3534,3.362,3.27,3.3203,0.0,3.6189,3.744,4.0058,4.5257,4.6865,0.0,5.1757,5.2578,0.0,0.0,0.0,0.0,0.0,0.0,5.2176,5.1322,5.1247,5.1498,5.2076,5.2352,5.2503,5.2528,5.2528,5.2528,5.2528,5.2277,5.185,5.1272,5.0996,5.0393,4.959,4.959,0.0,4.959,4.959,4.959,4.959,4.959,4.959,4.959,4.959,4.959,4.959,0.0,0.0,0.0,0.0,0.0,0.0,0.0,2.0742,2.0898,2.1405,2.1113,2.0742,2.0508,2.0703,2.1111,0.0,0.0,0.0,0.0,0.0,0.0,0.0,0.0,0.0,0.0,0.0,0.0,0.0,0.0,0.0,0.0,0.0,0.0,0.0,0.0,0.0,0.0,2.3343,2.3844,0.0,0.0,0.0,0.0,0.0,0.0,0.0,0.0,0.0,3.116,3.1938,3.337,3.5232,3.7839,3.9496,4.0852,4.2585,4.4317,4.5999,4.7506,4.8736,4.8864,4.5787,4.4159,4.1981,3.677,3.569,0.0,3.1886,3.2572,3.3333,3.2052,3.2204,3.2864,0.0,3.5247,3.775,4.258,4.5123,4.7832,0.0,5.2377,0.0,0.0,0.0,0.0,0.0,0.0,0.0,5.1498,5.1021,5.1172,5.2076,5.2101,5.2377,5.2929,5.2929,5.2929,5.2929,5.2804,5.2226,5.1272,5.1147,5.0544,4.959,4.959,0.0,0.0,4.959,4.959,4.959,4.959,4.959,4.959,4.959,4.959,4.959,0.0,0.0,0.0,0.0,0.0,0.0,0.0,2.1132,2.1424,2.2285,2.2031,2.1894,2.2246,2.2005,2.1535,0.0,0.0,0.0,0.0,0.0,0.0,0.0,0.0,0.0,0.0,0.0,0.0,0.0,0.0,0.0,0.0,0.0,0.0,0.0,0.0,0.0,0.0,0.0,0.0,0.0,0.0,0.0,0.0,0.0,0.0,0.0,0.0,0.0,0.0,0.0,0.0,3.2817,3.4625,3.7638,4.0551,4.0752,0.0,0.0,4.7606,4.8736,4.8679,4.4764,4.2762,4.0537,3.5725,0.0,3.3311,3.229,3.2657,3.2642,3.0903,3.0981,3.1783,3.3156,3.3247,3.5428,4.1803,4.3935,4.61,4.9396,0.0,0.0,0.0,0.0,0.0,0.0,0.0,0.0,0.0,5.1975,5.2,5.2101,5.2101,5.2377,5.2929,5.2929,5.2929,5.2929,5.2427,5.1875,5.1272,5.0745,5.0167,4.959,0.0,0.0,0.0,4.959,4.959,4.959,4.959,4.959,4.959,4.959,4.959,4.959,0.0,0.0,0.0,0.0,0.0,0.0,2.1192,2.119,2.1502,2.2402,2.2363,2.2422,2.2808,2.2522,2.2292,2.2228,0.0,0.0,0.0,0.0,0.0,0.0,0.0,0.0,0.0,0.0,0.0,0.0,0.0,0.0,0.0,0.0,0.0,0.0,0.0,0.0,0.0,0.0,0.0,0.0,0.0,0.0,0.0,0.0,0.0,0.0,0.0,0.0,0.0,0.0,0.0,0.0,3.094,3.3187,0.0,0.0,4.1555,4.4267,4.6376,4.8234,4.8565,4.4219,4.2541,4.0684,3.5636,0.0,3.3379,3.2389,3.2667,3.2764,3.1699,3.1303,3.1244,3.1318,3.118,3.2431,3.6297,3.816,4.1069,0.0,0.0,0.0,0.0,0.0,0.0,0.0,0.0,0.0,0.0,5.1925,5.2101,5.2101,5.2427,5.2703,5.2929,5.2929,5.2929,5.2929,5.2703,5.2126,5.1272,5.1046,5.0444,4.959,0.0,0.0,0.0,4.959,4.959,4.959,4.959,4.959,4.959,4.959,4.959,4.959,0.0,0.0,0.0,0.0,0.0,2.1939,2.1689,2.1391,2.1502,2.2402,2.2519,2.2676,2.3042,2.2828,2.2814,2.3206,2.2406,0.0,0.0,0.0,0.0,0.0,0.0,0.0,0.0,0.0,0.0,2.3584,0.0,0.0,0.0,0.0,0.0,0.0,0.0,0.0,0.0,0.0,0.0,0.0,0.0,0.0,0.0,0.0,0.0,0.0,0.0,0.0,0.0,0.0,0.0,3.0638,2.909,3.0244,3.2792,3.6358,3.9421,4.2233,4.4869,4.7179,4.8001,4.4212,4.2604,4.0676,0.0,0.0,3.352,3.224,3.2566,3.2893,3.2315,3.1371,3.0647,3.0558,3.0058,3.0543,3.2954,3.4779,3.7791,0.0,0.0,0.0,0.0,0.0,0.0,0.0,0.0,0.0,0.0,5.1749,5.1774,5.1599,5.1975,5.2277,5.2452,5.2452,5.2528,5.2678,5.2352,5.1875,5.1272,5.0946,5.0343,4.959,0.0,0.0,0.0,4.959,4.959,4.959,4.959,4.959,4.959,4.959,4.959,4.959,0.0,0.0,0.0,0.0,0.0,0.0,2.2628,2.1829,2.1502,2.2402,2.2519,2.2676,2.3042,2.3081,2.3081,2.3081,2.2363,0.0,0.0,0.0,0.0,0.0,0.0,0.0,0.0,0.0,2.4221,2.4787,2.4787,2.5378,0.0,0.0,0.0,0.0,0.0,0.0,0.0,0.0,0.0,0.0,0.0,0.0,0.0,0.0,0.0,0.0,0.0,0.0,0.0,0.0,0.0,0.0,0.0,2.9804,3.0382,3.3144,3.7086,4.1003,4.3237,4.5447,4.6699,4.4918,4.2866,4.0326,0.0,0.0,3.342,3.1738,3.229,3.2893,3.2315,3.069,2.9988,3.1594,3.0252,3.0177,3.3511,3.5414,0.0,0.0,0.0,0.0,0.0,0.0,0.0,0.0,0.0,0.0,0.0,5.1574,5.1021,5.0444,5.0444,5.072,5.1297,5.1297,5.1574,5.2101,5.0971,5.0745,5.1247,5.0117,4.9615,0.0,0.0,0.0,0.0,4.959,4.959,4.959,4.959,4.959,4.959,4.959,4.959,4.959,0.0,0.0,0.0,0.0,0.0,0.0,0.0,2.2514,2.2499,2.1725,2.2211,2.2655,2.2679,2.2672,2.3113,2.419,2.3302,0.0,0.0,0.0,0.0,0.0,0.0,0.0,0.0,0.0,2.3569,2.4787,2.4787,2.5378,2.6524,2.6524,0.0,0.0,0.0,0.0,0.0,0.0,0.0,0.0,0.0,0.0,0.0,0.0,0.0,0.0,0.0,0.0,0.0,0.0,0.0,0.0,0.0,0.0,0.0,3.1286,3.4204,0.0,3.8445,4.0913,4.2612,4.0502,3.9228,3.7643,3.4475,3.3584,3.2968,3.1662,3.229,3.2893,3.2315,3.2044,3.197,3.2027,3.2042,3.2179,0.0,0.0,0.0,0.0,0.0,0.0,0.0,0.0,0.0,0.0,0.0,0.0,0.0,5.1373,5.1197,5.1021,5.0996,5.1096,5.1272,5.1272,5.1373,5.1548,5.1172,5.0896,5.067,5.0318,0.0,0.0,0.0,0.0,0.0,4.959,4.959,4.959,4.959,4.959,4.959,4.959,4.959,4.959,0.0,0.0,0.0,0.0,0.0,0.0,0.0,2.3342,2.3222,2.2436,2.2702,2.3116,2.3639,2.3509,2.3924,2.5315,2.4808,0.0,0.0,0.0,0.0,0.0,0.0,0.0,2.4168,2.3216,2.341,2.4787,2.4976,2.5719,2.7116,2.7282,2.7487,2.7747,0.0,0.0,0.0,0.0,0.0,0.0,0.0,0.0,2.8806,0.0,0.0,0.0,0.0,0.0,0.0,0.0,0.0,0.0,0.0,0.0,0.0,0.0,3.1555,3.3945,3.5376,3.7717,3.9413,3.7979,3.7096,0.0,0.0,3.2892,3.2491,3.1587,3.1754,3.2179,3.2481,3.169,3.1342,3.2325,3.1691,0.0,0.0,0.0,0.0,0.0,0.0,0.0,0.0,0.0,0.0,0.0,0.0,0.0,0.0,0.0,5.0645,5.0645,5.0645,5.0645,5.0645,5.0645,5.0745,5.0946,5.0745,5.0569,5.0419,5.0193,0.0,0.0,0.0,0.0,0.0,4.959,4.959,4.959,4.959,4.959,4.959,4.959,4.959,4.959,0.0,0.0,0.0,0.0,0.0,0.0,0.0,2.423,2.383,2.4115,2.3772,2.4009,2.5409,2.5159,2.5293,2.64,0.0,0.0,0.0,0.0,0.0,0.0,0.0,0.0,2.3256,2.3144,2.3691,2.4829,2.5247,2.6342,2.8203,2.8661,2.9205,2.9854,2.9854,0.0,0.0,0.0,0.0,0.0,0.0,0.0,0.0,0.0,0.0,0.0,0.0,0.0,0.0,0.0,0.0,0.0,0.0,0.0,0.0,0.0,0.0,0.0,0.0,3.5554,3.6784,3.681,3.6056,3.4856,3.337,3.2641,0.0,3.1512,3.0978,3.1086,3.2746,3.0214,2.9026,3.2624,2.9983,0.0,0.0,0.0,0.0,0.0,0.0,0.0,0.0,0.0,0.0,0.0,0.0,0.0,0.0,0.0,4.9615,4.954,4.9565,4.959,4.959,4.9565,4.9816,5.0343,4.9841,4.9866,5.0343,4.9816,0.0,0.0,0.0,0.0,0.0,4.959,4.959,4.959,4.959,4.959,4.959,4.959,4.959,4.959,0.0,0.0,0.0,0.0,0.0,0.0,0.0,0.0,0.0,0.0,2.4557,2.521,2.5155,2.5409,2.5813,0.0,0.0,0.0,0.0,0.0,0.0,0.0,0.0,0.0,2.4425,2.356,2.3807,2.5246,2.5371,2.6735,2.9255,2.9374,2.9762,3.0407,3.0407,3.0181,0.0,0.0,0.0,0.0,0.0,0.0,0.0,0.0,0.0,0.0,2.9507,2.9585,0.0,0.0,0.0,0.0,0.0,0.0,0.0,0.0,2.966,3.0131,3.0783,0.0,3.2842,3.3269,3.3194,3.2893,0.0,3.2641,3.2591,3.1587,3.1955,3.2468,3.2423,3.1268,3.1215,3.3906,0.0,0.0,0.0,0.0,0.0,0.0,0.0,0.0,0.0,0.0,0.0,0.0,0.0,0.0,0.0,0.0,4.9841,4.8987,4.9364,4.959,4.959,4.9163,4.9238,4.9791,4.9665,4.9665,4.9791,4.9665,0.0,0.0,0.0,0.0,4.959,4.959,4.959,4.959,4.959,4.959,4.959,4.959,4.959,4.959,0.0,0.0,0.0,0.0,0.0,0.0,0.0,0.0,0.0,0.0,0.0,2.6192,2.6401,2.6659,0.0,0.0,0.0,0.0,0.0,0.0,0.0,0.0,0.0,2.4532,2.4039,2.343,2.3505,2.4338,2.4743,2.586,2.7689,2.866,2.9376,2.9772,3.0094,3.008,0.0,0.0,0.0,0.0,2.9804,0.0,0.0,0.0,0.0,0.0,2.9804,2.9804,0.0,2.9804,2.9804,2.9804,0.0,0.0,0.0,0.0,2.9804,2.9804,2.9804,3.0407,3.111,3.1411,3.1863,3.2139,3.1888,3.2265,3.2516,3.1888,3.1819,3.2044,3.2531,3.1384,3.126,0.0,3.3477,0.0,0.0,0.0,0.0,0.0,0.0,0.0,0.0,0.0,0.0,0.0,0.0,0.0,0.0,0.0,4.9766,4.9163,4.8937,4.8937,4.9213,4.9163,4.9289,4.959,4.959,4.959,4.959,4.959,0.0,0.0,0.0,0.0,4.959,4.959,4.959,4.959,4.959,4.959,4.959,4.959,4.959,4.959,0.0,0.0,0.0,0.0,0.0,0.0,0.0,0.0,0.0,0.0,0.0,0.0,0.0,0.0,0.0,0.0,0.0,0.0,0.0,0.0,0.0,0.0,2.4059,2.4082,2.3144,2.3101,2.314,2.3198,2.4102,2.4931,2.5792,2.7673,2.8672,2.8946,2.9618,2.988,0.0,0.0,0.0,0.0,2.9804,0.0,0.0,0.0,0.0,0.0,0.0,0.0,0.0,2.9804,2.9804,2.9804,2.9804,0.0,0.0,0.0,0.0,0.0,3.0005,3.0507,3.0959,3.0783,3.1322,3.188,3.1696,3.1864,3.2105,3.2298,3.1528,3.1288,3.2796,3.1187,0.0,0.0,0.0,0.0,0.0,0.0,0.0,0.0,0.0,0.0,0.0,0.0,0.0,0.0,0.0,0.0,0.0,0.0,0.0,4.9464,4.846,4.8134,4.8636,4.9113,4.9389,4.9464,4.9565,4.959,4.959,4.959,4.959,0.0,0.0,0.0,4.959,4.959,4.959,4.959,4.959,4.959,4.959,4.959,4.959,4.959,0.0,0.0,0.0,0.0,0.0,0.0,0.0,0.0,0.0,0.0,0.0,0.0,0.0,0.0,0.0,0.0,0.0,0.0,0.0,0.0,0.0,2.3212,2.3256,2.3256,2.3101,2.3101,2.3276,2.3691,2.4551,2.5759,2.7285,2.7952,2.8715,2.9511,3.0161,3.0231,2.9804,2.9804,2.9804,2.9804,2.9804,0.0,0.0,0.0,0.0,0.0,0.0,0.0,0.0,2.9804,2.9804,2.9804,2.9804,0.0,0.0,0.0,0.0,0.0,3.0909,3.1913,3.2466,3.1512,3.0964,3.1076,3.2504,3.2043,3.1656,3.2746,3.2814,3.2796,3.3068,3.1687,3.1523,0.0,0.0,0.0,0.0,0.0,0.0,0.0,0.0,0.0,0.0,0.0,0.0,0.0,0.0,0.0,0.0,0.0,0.0,4.8887,4.8259,4.7958,4.8033,4.8134,4.841,4.8912,4.9364,4.959,4.959,4.959,4.959,0.0,0.0,4.959,4.959,4.959,4.959,4.959,4.959,4.959,4.959,4.959,4.959,4.959,0.0,0.0,0.0,0.0,0.0,0.0,0.0,0.0,0.0,0.0,0.0,0.0,0.0,0.0,0.0,0.0,0.0,0.0,0.0,0.0,2.5755,2.4082,2.343,2.3101,2.3101,2.3379,2.3711,2.4121,2.5,2.5935,2.6984,2.7483,2.8099,2.8737,2.9337,2.9358,2.8949,2.9546,2.9955,3.0231,0.0,0.0,0.0,0.0,0.0,0.0,0.0,0.0,0.0,0.0,2.9804,2.9804,2.9804,0.0,0.0,0.0,0.0,0.0,3.0382,3.1135,3.1763,3.1813,3.2265,3.2862,3.3389,3.2878,3.2468,3.3358,3.3294,3.3212,0.0,0.0,3.4486,3.8042,0.0,0.0,0.0,0.0,0.0,0.0,0.0,0.0,0.0,0.0,0.0,0.0,0.0,0.0,0.0,0.0,0.0,0.0,4.7782,4.7481,4.7481,4.7481,4.7933,4.8761,4.8711,4.9012,4.959,4.9289,4.9163,4.9163,0.0,4.8962,4.8686,4.8686,4.8862,4.9163,4.9163,4.9339,4.959,4.959,4.959,4.959,0.0,0.0,0.0,0.0,0.0,0.0,0.0,0.0,0.0,0.0,0.0,0.0,0.0,0.0,0.0,0.0,0.0,0.0,0.0,0.0,2.5964,2.483,2.3814,2.3257,2.3257,2.3613,2.4043,2.457,2.5449,2.6113,2.6573,2.7255,2.7551,2.7524,2.8556,2.8661,2.8164,2.9326,3.003,3.0432,0.0,0.0,0.0,0.0,0.0,0.0,0.0,0.0,0.0,0.0,0.0,0.0,0.0,0.0,0.0,2.9804,2.9804,2.9854,3.0105,3.0557,3.1185,3.2014,3.2953,3.3792,3.4159,3.3726,3.3488,3.4304,3.4248,3.4098,0.0,3.5403,0.0,4.062,0.0,0.0,0.0,0.0,0.0,0.0,0.0,0.0,0.0,0.0,0.0,0.0,0.0,0.0,0.0,0.0,0.0,0.0,4.728,4.6943,4.7068,4.7004,4.7431,4.8385,4.8058,4.836,4.9188,4.8761,4.856,4.856,4.856,4.8309,4.7908,4.7908,4.8259,4.8761,4.8761,4.9113,4.959,4.959,4.959,4.959,0.0,0.0,0.0,0.0,0.0,0.0,0.0,0.0,0.0,0.0,0.0,0.0,0.0,0.0,0.0,0.0,0.0,0.0,0.0,0.0,2.5964,2.483,2.4115,2.375,2.375,2.3769,2.4199,2.5067,2.5918,2.6562,2.6953,2.7754,2.7447,2.6328,2.8543,2.8994,2.8164,2.9326,2.9804,2.9854,2.9854,0.0,0.0,0.0,0.0,0.0,0.0,0.0,0.0,0.0,0.0,0.0,0.0,0.0,2.9804,2.9804,2.9804,3.0005,3.1009,3.1687,3.2114,3.219,3.1461,3.1524,3.4678,3.4495,3.4123,3.5868,3.6606,3.6584,0.0,3.7186,0.0,0.0,0.0,0.0,0.0,0.0,0.0,0.0,0.0,0.0,0.0,0.0,0.0,0.0,0.0,0.0,0.0,0.0,0.0,0.0,0.0,4.6627,4.7129,4.6627,4.6677,4.7255,4.7707,4.7958,4.8033,4.7983,4.7958,4.7958,4.7958,4.7933,4.7908,4.7908,4.8259,4.8761,4.8761,4.9113,4.959,4.959,4.959,4.959,0.0,0.0,0.0,0.0,0.0,0.0,0.0,0.0,0.0,0.0,0.0,0.0,0.0,0.0,0.0,0.0,0.0,0.0,0.0,2.7075,2.5964,2.483,2.3874,2.3516,2.3789,2.4316,2.4883,2.5488,2.6348,2.6719,2.6621,2.6923,2.6528,2.5551,2.7091,2.7876,2.8035,2.8831,2.9794,3.0758,3.0432,3.0306,0.0,0.0,0.0,0.0,0.0,0.0,0.0,0.0,2.9804,2.9804,2.9804,2.9804,2.9804,2.9804,2.9804,2.988,3.0281,3.1035,3.1788,3.2139,3.2127,3.2698,3.4965,3.5431,3.5761,3.7114,3.7839,3.8115,0.0,0.0,0.0,0.0,0.0,0.0,0.0,0.0,0.0,0.0,0.0,0.0,0.0,0.0,0.0,0.0,0.0,0.0,0.0,0.0,0.0,0.0,0.0,4.5899,4.61,4.5899,4.5899,4.6125,4.6652,4.7255,4.7908,4.7581,4.7431,4.7431,4.7431,4.723,4.6928,4.728,4.7732,4.8309,4.9012,4.9414,4.959,4.959,4.959,4.959,0.0,0.0,0.0,0.0,0.0,0.0,0.0,0.0,0.0,0.0,0.0,0.0,0.0,0.0,0.0,0.0,0.0,0.0,2.8688,2.7626,2.6502,2.5378,2.4354,2.383,2.3789,2.4492,2.5156,2.5693,2.6551,2.6797,2.6387,2.6387,2.5996,2.5321,2.6253,2.7016,2.7591,2.863,2.9718,3.082,3.0648,3.0608,0.0,0.0,0.0,0.0,0.0,0.0,0.0,0.0,2.9804,2.9804,2.9804,2.9804,2.9804,2.9804,2.9804,2.9804,2.9804,3.0331,3.106,3.1763,3.2516,3.3646,3.5784,3.6759,3.7538,3.8793,3.9094,3.917,3.9346,0.0,0.0,0.0,0.0,0.0,0.0,0.0,0.0,0.0,0.0,0.0,0.0,0.0,0.0,0.0,0.0,0.0,0.0,0.0,0.0,0.0,0.0,4.5221,4.5221,4.5221,4.5296,4.5497,4.5874,4.6527,4.738,4.7029,4.6878,4.6878,4.6878,4.6652,4.6351,4.6728,4.7179,4.7757,4.8686,4.9063,4.9063,4.9063,4.9063,4.9088,0.0,0.0,0.0,0.0,0.0,0.0,0.0,0.0,0.0,0.0,0.0,0.0,0.0,0.0,0.0,0.0,0.0,0.0,2.9779,2.8727,2.7602,2.6565,2.5808,2.4907,2.3834,2.4199,2.4844,2.5674,2.6582,2.6777,2.6387,2.6387,2.6152,2.5723,2.6417,2.6702,2.6844,2.8751,2.9569,2.9672,3.0325,3.0608,3.0557,0.0,0.0,0.0,0.0,0.0,0.0,0.0,2.9804,2.9804,2.9804,2.9804,2.9804,2.9804,2.9779,2.9804,2.9804,2.9804,3.0055,3.1135,3.2265,3.3972,3.7262,3.8467,3.9346,4.0974,4.0475,3.9898,4.0425,4.0526,0.0,0.0,0.0,0.0,0.0,0.0,0.0,0.0,0.0,0.0,0.0,0.0,0.0,0.0,0.0,0.0,0.0,0.0,0.0,0.0,0.0,0.0,4.4618,4.4618,4.4895,4.5472,4.5472,4.5773,4.6301,4.6301,4.6301,4.6301,4.6301,4.6301,4.6301,4.6326,4.6652,4.7143,4.7707,4.7908,4.7908,4.7908,4.7908,4.7983,0.0,0.0,0.0,0.0,0.0,0.0,0.0,0.0,0.0,0.0,0.0,0.0,0.0,0.0,0.0,0.0,0.0,0.0,2.8648,2.8307,2.7602,2.6565,2.5529,2.4826,2.4502,2.4177,2.4238,2.4805,2.5371,2.5586,2.5517,2.5781,2.581,2.5742,2.624,2.6797,2.7373,2.8011,2.8988,3.0172,3.0474,3.0834,3.111,0.0,0.0,0.0,0.0,0.0,0.0,0.0,0.0,0.0,2.9804,2.9804,2.9804,2.9804,2.9248,2.8767,2.9585,2.9816,3.026,3.2122,3.3696,3.5579,3.8517,3.932,4.0149,4.2559,4.2183,4.1534,4.1685,0.0,0.0,0.0,0.0,0.0,0.0,0.0,0.0,0.0,0.0,0.0,0.0,0.0,0.0,0.0,0.0,0.0,0.0,0.0,0.0,0.0,0.0,0.0,4.4041,4.4041,4.4141,4.4317,4.4694,4.5372,4.6301,4.6301,4.6301,4.6301,4.6301,4.6301,4.6351,4.6728,4.7205,4.7682,4.7857,4.7908,4.7908,4.7908,4.7908,4.7933,0.0,0.0,0.0,0.0,0.0,0.0,0.0,0.0,0.0,0.0,2.9804,2.9804,0.0,0.0,0.0,0.0,0.0,0.0,0.0,2.8767,2.8267,2.7157,2.6088,2.5041,2.4125,2.391,2.3828,2.3861,2.4863,2.5234,2.5125,2.5879,2.625,2.62,2.6523,2.6914,2.7426,2.828,2.9172,3.0062,3.0901,3.1436,3.1662,0.0,0.0,0.0,0.0,0.0,0.0,0.0,0.0,0.0,3.0055,2.9955,2.9804,2.9804,2.9326,2.8973,2.9899,3.0292,3.0947,3.3189,3.4977,3.6935,3.9722,4.0852,4.1932,0.0,4.3237,4.2288,4.2489,0.0,0.0,0.0,0.0,0.0,0.0,0.0,0.0,0.0,0.0,0.0,0.0,0.0,0.0,0.0,0.0,0.0,0.0,0.0,0.0,0.0,0.0,0.0,4.3463,4.3463,4.3589,4.379,4.4141,4.4769,4.5648,4.5874,4.5974,4.5999,4.6225,4.6301,4.6326,4.6677,4.7004,4.728,4.728,4.728,4.728,4.728,4.728,4.7305,0.0,0.0,0.0,0.0,0.0,0.0,0.0,0.0,0.0,0.0,2.9804,2.9804,0.0,0.0,0.0,0.0,0.0,0.0,0.0,0.0,2.9326,2.8307,2.7197,2.5526,2.3125,2.3604,2.3644,2.3159,2.4777,2.541,2.5086,2.6348,2.6953,2.6973,2.7031,2.7031,2.7066,2.9123,2.9773,2.9669,3.1577,3.239,3.2365,3.1763,0.0,0.0,0.0,0.0,0.0,0.0,0.0,0.0,3.0482,3.0281,2.9854,2.9804,2.9702,2.9788,3.0493,3.0979,3.1889,3.4304,3.6307,3.8316,4.0902,4.261,4.3966,4.5045,0.0,4.2489,0.0,0.0,0.0,0.0,0.0,0.0,0.0,0.0,0.0,0.0,0.0,0.0,0.0,0.0,0.0,0.0,0.0,0.0,0.0,0.0,0.0,0.0,0.0,0.0,4.2986,4.2986,4.3237,0.0,4.374,4.3991,4.4493,4.5171,4.5522,4.5598,4.605,4.625,4.6301,4.6301,4.6301,4.6301,4.6301,4.6301,4.6301,4.6301,4.6301,4.6376,0.0,0.0,0.0,0.0,0.0,0.0,0.0,0.0,0.0,0.0,0.0,0.0,0.0,0.0,0.0,0.0,0.0,0.0,0.0,0.0,2.9702,2.9443,2.8347,2.6273,2.3169,2.4054,2.428,2.3652,2.4355,2.4648,2.459,2.5898,2.6523,2.6562,2.7226,2.7148,2.6654,2.8993,3.0021,3.0258,3.2596,3.3796,3.4073,3.3093,3.2717,0.0,0.0,0.0,0.0,0.0,0.0,0.0,3.0708,3.0532,3.0357,2.9905,2.9145,2.8882,3.0733,3.1008,3.1709,3.5694,3.8894,4.1408,4.2384,4.2559,4.2766,4.3388,4.3489,0.0,0.0,0.0,0.0,0.0,0.0,0.0,0.0,0.0,0.0,0.0,0.0,0.0,0.0,0.0,0.0,0.0,0.0,0.0,0.0,0.0,0.0,0.0,0.0,4.259,4.2961,4.2986,4.3037,0.0,4.3162,4.3212,4.3388,4.4819,4.5723,4.6125,4.5799,4.5899,4.6301,4.6301,4.6301,4.6301,4.6301,4.6301,4.6301,4.6301,4.6301,4.6326,0.0,0.0,0.0,0.0,0.0,0.0,0.0,0.0,0.0,0.0,0.0,0.0,0.0,0.0,0.0,0.0,0.0,0.0,0.0,0.0,2.9585,2.9028,2.8426,2.6767,2.3973,2.4489,2.4479,2.3789,2.4219,2.4582,2.5078,2.6172,2.6797,2.7031,2.7676,2.7598,2.7145,2.8971,2.9683,2.9729,3.1623,3.2779,3.335,3.3032,3.297,3.2993,3.2416,0.0,0.0,0.0,0.0,0.0,0.0,0.0,3.0934,3.0633,3.0174,2.9975,3.1372,3.2184,3.3527,3.7391,3.9898,4.153,4.2057,4.1982,4.1856,4.2133,0.0,0.0,0.0,0.0,0.0,0.0,0.0,0.0,0.0,0.0,0.0,0.0,0.0,0.0,0.0,0.0,0.0,0.0,0.0,0.0,0.0,0.0,0.0,0.0,4.1756,4.2032,4.264,4.264,4.2766,4.2986,4.2986,4.3112,4.3413,4.4543,4.5372,4.5899,4.5623,4.5799,4.6301,4.6024,4.6075,4.6301,4.6301,4.6301,4.6301,4.6301,4.6301,4.6301,0.0,0.0,0.0,0.0,0.0,0.0,0.0,0.0,0.0,0.0,0.0,0.0,0.0,0.0,0.0,0.0,0.0,0.0,0.0,0.0,0.0,2.8124,2.8307,2.736,2.5126,2.5083,2.4823,2.4202,2.433,2.5059,2.6259,2.6855,2.7363,2.7845,2.8203,2.8125,2.778,2.9075,2.9387,2.9069,3.0395,3.1354,3.2019,3.2371,3.2779,3.3165,3.3065,0.0,3.2516,3.2516,0.0,0.0,0.0,0.0,3.1512,3.1411,3.1386,3.1537,3.219,3.3721,3.5855,3.8818,3.9973,0.0,4.1025,4.1075,4.1,4.1,0.0,0.0,0.0,0.0,0.0,0.0,0.0,0.0,0.0,0.0,0.0,0.0,0.0,0.0,0.0,0.0,0.0,0.0,0.0,0.0,0.0,0.0,4.105,4.115,4.115,4.1505,4.2213,4.2213,4.2439,4.2836,4.2836,4.3112,4.3689,4.4242,4.4794,4.5321,4.5246,4.5573,4.6125,4.5673,4.5824,4.6301,4.62,4.6225,4.6301,4.62,4.6225,4.6301,0.0,0.0,0.0,0.0,0.0,0.0,0.0,0.0,0.0,0.0,2.9804,2.9804,0.0,0.0,0.0,0.0,0.0,0.0,0.0,0.0,0.0,2.8124,2.9067,2.8554,2.6295,2.6276,2.6128,2.5796,2.488,2.582,2.8476,2.7871,2.7812,2.8223,2.8652,2.8398,2.778,2.9456,2.9971,2.9724,3.1422,3.2157,3.2194,3.1784,3.2406,3.3409,3.2931,3.3158,3.3671,3.3671,3.3319,0.0,0.0,0.0,0.0,3.1537,3.1386,3.1612,3.2667,3.4876,3.7186,3.8668,3.9396,3.9948,0.0,0.0,3.9923,0.0,0.0,0.0,0.0,0.0,0.0,0.0,0.0,0.0,0.0,0.0,0.0,0.0,0.0,0.0,0.0,0.0,0.0,0.0,0.0,0.0,0.0,4.0174,4.0124,4.0601,4.0626,4.1128,4.2213,4.2213,4.2238,4.2313,4.2313,4.2615,4.3112,4.3664,4.4217,4.4719,4.4242,4.4618,4.5598,4.5522,4.5824,4.625,4.5773,4.5899,4.625,4.5773,4.5899,4.6301,0.0,0.0,0.0,0.0,0.0,0.0,0.0,0.0,0.0,0.0,0.0,2.9804,0.0,0.0,0.0,0.0,0.0,0.0,0.0,0.0,0.0,2.9067,2.9521,2.9028,2.7441,2.702,2.6583,2.6124,2.5205,2.6328,2.9277,2.9141,2.9316,2.9746,2.9668,2.916,2.8432,2.918,2.9265,2.8987,2.9724,3.0146,3.0356,3.068,3.1108,3.157,3.1938,3.2064,3.2204,3.2965,3.3047,3.2914,3.3102,0.0,0.0,0.0,3.234,3.2566,3.3696,3.4876,3.6157,0.0,3.8115,3.8442,3.8994,0.0,0.0,0.0,0.0,0.0,0.0,0.0,0.0,0.0,0.0,0.0,0.0,0.0,0.0,0.0,0.0,0.0,0.0,0.0,0.0,0.0,0.0,0.0,4.0074,3.9823,3.9798,4.0049,4.0049,4.0425,4.1229,4.1229,4.1555,4.2213,4.2213,4.2489,4.2986,4.3237,4.3639,4.4141,4.3915,4.4267,4.497,4.4669,4.507,4.5799,4.5221,4.5347,4.5773,4.5221,4.5372,4.5849,0.0,0.0,0.0,0.0,0.0,0.0,0.0,0.0,0.0,0.0,0.0,0.0,0.0,0.0,0.0,0.0,0.0,0.0,0.0,0.0,0.0,3.0005,3.0005,2.9677,2.8931,2.7851,2.7107,2.6721,2.5631,2.671,2.9726,2.9941,3.0625,3.168,3.1113,3.0254,2.9238,2.9238,2.9062,2.875,2.8418,2.8448,2.8757,2.9384,2.9677,2.9877,3.0844,3.0997,0.0,0.0,0.0,0.0,0.0,0.0,0.0,0.0,0.0,3.3244,3.4073,0.0,3.4851,3.6207,3.6659,3.6935,0.0,0.0,0.0,0.0,0.0,0.0,0.0,0.0,0.0,0.0,0.0,0.0,0.0,0.0,0.0,0.0,0.0,0.0,0.0,0.0,0.0,0.0,0.0,0.0,3.9722,3.9697,3.9697,3.9697,3.9697,3.9948,4.0501,4.0526,4.1003,4.1957,4.1806,4.2032,4.2559,4.2559,4.2861,4.3388,4.3539,4.3915,4.4392,4.3966,4.4392,4.5221,4.4644,4.4769,4.5196,4.4618,4.4869,4.5497,0.0,0.0,0.0,0.0,0.0,0.0,0.0,0.0,0.0,0.0,0.0,0.0,2.9804,2.9804,2.9804,2.9804,0.0,0.0,0.0,0.0,0.0,3.0557,3.0583,0.0,3.1204,2.899,2.8053,2.8455,2.6192,2.6816,3.0156,2.9785,3.1192,3.3867,3.3027,3.1719,3.0137,3.0137,3.0117,3.0,2.8769,2.8315,2.829,2.799,2.834,2.9176,3.0053,0.0,0.0,0.0,0.0,0.0,0.0,0.0,0.0,0.0,0.0,0.0,3.3144,3.3545,0.0,3.47,3.5207,3.5859,0.0,0.0,0.0,0.0,0.0,0.0,0.0,0.0,0.0,0.0,0.0,0.0,0.0,0.0,0.0,0.0,0.0,0.0,0.0,0.0,0.0,0.0,0.0,0.0,3.9697,3.9697,3.9697,3.9697,3.9697,3.9948,4.0501,4.0526,4.0802,4.1326,4.0852,4.0902,4.1376,4.1376,4.1731,4.2313,4.2785,4.3338,4.384,4.3815,4.4141,4.4618,4.4066,4.4192,4.4593,4.4041,4.4543,4.5497,0.0,0.0,0.0,0.0,0.0,0.0,0.0,0.0,0.0,0.0,0.0,0.0,0.0,2.9804,2.9804,2.9804,2.9804,0.0,0.0,0.0,0.0,3.008,3.0432,3.0708,3.0884,2.9989,2.9206,2.8589,2.7319,2.7603,2.9375,2.9512,3.0586,3.2422,3.2402,3.1894,3.1016,3.043,3.0039,2.9726,2.8984,2.8535,2.8281,2.8125,2.8107,0.0,0.0,0.0,0.0,0.0,0.0,0.0,0.0,0.0,0.0,0.0,0.0,3.3111,0.0,0.0,0.0,3.4048,3.4349,3.46,0.0,0.0,0.0,0.0,0.0,0.0,0.0,0.0,0.0,0.0,0.0,0.0,0.0,0.0,0.0,0.0,0.0,0.0,0.0,0.0,0.0,0.0,0.0,0.0,3.9697,3.9697,3.9697,3.9697,3.9697,3.9798,3.9998,3.9998,4.0275,4.0749,4.0601,4.0802,4.1275,4.1275,4.1401,4.1656,4.2208,4.276,4.3263,4.3263,4.3589,4.4041,4.3489,4.3614,4.4066,4.3865,4.4292,4.4995,0.0,0.0,0.0,0.0,0.0,0.0,0.0,0.0,0.0,3.0055,0.0,0.0,0.0,0.0,3.0005,2.9804,2.9804,2.9804,2.9804,2.9804,2.988,3.0055,3.0583,3.0959,3.1135,3.0828,3.0085,2.888,2.8018,2.7971,2.8711,2.9004,3.0,3.1523,3.168,3.166,3.1484,3.1055,3.0625,3.0156,2.9277,2.8828,2.8711,2.8555,2.8242,0.0,0.0,0.0,0.0,0.0,0.0,0.0,0.0,0.0,0.0,0.0,0.0,0.0,3.3345,0.0,0.0,0.0,0.0,3.3621,0.0,0.0,0.0,0.0,0.0,0.0,0.0,0.0,0.0,0.0,0.0,0.0,0.0,0.0,0.0,0.0,0.0,0.0,0.0,0.0,0.0,0.0,0.0,0.0,3.9697,3.9697,3.9697,3.9697,3.9697,3.9697,3.9697,3.9697,3.9873,4.0249,4.0249,4.0425,4.0724,4.0724,4.0824,4.1025,4.1455,4.2032,4.2766,4.2911,4.3187,4.3489,4.3112,4.3212,4.3539,4.374,4.4141,4.4719,0.0,0.0,0.0,0.0,0.0,0.0,0.0,0.0,2.998,3.0468,0.0,0.0,0.0,0.0,0.0,2.9854,2.9804,2.9804,2.9804,2.9804,3.003,3.0583,0.0,0.0,3.2215,3.1574,3.0643,2.9396,2.8236,2.7836,2.8262,2.8262,2.9394,3.1426,3.1035,3.1094,3.1504,3.1953,3.1894,3.1367,2.9648,2.9219,2.9607,2.9101,0.0,0.0,2.9746,2.9687,0.0,2.9473,0.0,0.0,0.0,0.0,0.0,0.0,0.0,0.0,0.0,0.0,0.0,0.0,0.0,0.0,0.0,0.0,0.0,0.0,0.0,0.0,0.0,0.0,0.0,0.0,0.0,0.0,0.0,0.0,0.0,0.0,0.0,0.0,0.0,0.0,0.0,0.0,0.0,3.9697,3.9697,3.9697,3.9697,3.9697,3.9697,3.9697,3.9697,3.9697,3.9697,3.9697,3.9697,3.9697,3.9697,3.9697,3.9998,4.0501,4.0501,4.1128,4.2213,4.2766,4.2961,4.2961,4.2961,4.2986,4.3037,4.3614,4.4166,4.4719,0.0,0.0,0.0,0.0,0.0,0.0,2.9804,2.9804,2.9557,0.0,0.0,0.0,2.9682,3.0539,3.0959,3.0432,3.0382,3.0206,2.9829,2.9804,3.003,3.0583,3.111,3.1637,3.2215,3.2468,3.1512,2.9396,2.9096,2.8359,2.7363,2.7363,2.8184,2.9648,3.0156,3.0449,3.0586,3.1055,3.1348,3.1426,3.0293,3.0117,0.0,0.0,0.0,0.0,0.0,3.0449,3.0762,0.0,3.0717,3.1027,0.0,0.0,0.0,0.0,0.0,0.0,3.45,0.0,0.0,0.0,0.0,0.0,0.0,0.0,0.0,0.0,0.0,0.0,0.0,0.0,0.0,0.0,0.0,0.0,0.0,0.0,0.0,0.0,0.0,0.0,0.0,0.0,0.0,0.0,3.9371,3.9697,3.9697,3.9697,3.9697,3.9697,3.9697,3.9697,3.9697,3.9697,3.9697,3.9697,3.9697,3.9697,3.9697,3.9697,3.9772,3.9948,4.035,4.0701,4.1053,4.2037,4.2439,4.2464,4.2866,4.2986,4.3087,4.4041,4.4493,4.4769,0.0,0.0,0.0,0.0,0.0,3.0382,3.0181,3.0507,3.0357,0.0,0.0,0.0,2.8877,2.9815,3.0417,3.0188,3.018,3.0161,3.0142,3.0331,3.0507,3.0608,3.1336,3.1888,3.2215,3.2792,3.1865,2.9396,2.9396,2.8566,2.7012,2.7012,2.7598,2.8691,2.9551,2.9941,2.998,3.0625,3.1035,3.123,3.0879,0.0,0.0,3.123,3.1328,0.0,0.0,0.0,3.25,3.1894,3.1722,0.0,0.0,0.0,0.0,0.0,0.0,0.0,0.0,0.0,0.0,0.0,0.0,0.0,3.2742,3.3018,0.0,0.0,0.0,0.0,0.0,0.0,0.0,0.0,0.0,0.0,0.0,0.0,0.0,0.0,0.0,0.0,0.0,0.0,0.0,0.0,3.9019,3.9446,3.9697,3.9697,3.9697,3.9697,3.9697,3.9697,3.9697,3.9697,3.9697,3.9697,3.9697,3.9697,3.9697,3.9697,3.9697,3.9722,4.0023,4.03,4.0576,4.1455,4.1957,4.2263,4.276,4.2986,4.3112,4.4217,4.4618,4.4794,0.0,0.0,0.0,2.988,3.0708,3.126,3.0859,3.1612,3.1752,0.0,3.0279,2.9864,2.8992,2.9236,2.9512,2.9625,2.9612,2.984,3.0527,3.0957,3.1088,3.0768,3.1763,3.234,3.239,3.2893,3.1962,2.9485,2.9441,2.8566,2.7012,2.7012,2.748,2.832,2.9141,2.9531,2.9629,3.0449,3.084,3.0937,3.1406,3.1855,0.0,0.0,3.3457,3.3535,3.3926,3.4101,3.4004,3.3105,3.2754,0.0,0.0,0.0,0.0,0.0,3.2737,0.0,0.0,0.0,0.0,0.0,0.0,0.0,3.3352,3.3446,3.3421,0.0,0.0,0.0,0.0,0.0,0.0,0.0,0.0,0.0,0.0,0.0,0.0,0.0,0.0,0.0,0.0,0.0,3.7387,3.7889,3.8517,3.912,3.9672,3.9697,3.9697,3.9697,3.9697,3.9697,3.9697,3.9697,3.9697,3.9697,3.9697,3.9697,3.9697,3.9697,3.9697,3.9697,3.9697,3.9998,4.0551,4.105,4.1656,4.2263,4.276,4.2986,4.3112,4.4217,4.4618,4.4794,0.0,0.0,2.993,3.0382,3.0959,3.1512,3.1838,3.2089,3.1577,2.9827,2.9277,2.9526,3.0626,3.0856,3.0619,2.9869,2.9511,2.9574,3.0238,3.0055,3.0535,3.1847,3.2541,3.3119,3.3571,3.3671,3.2519,3.0047,2.9597,2.8566,2.7012,2.7012,2.748,2.832,2.8828,2.9238,2.9609,3.0117,0.0,3.0957,3.1738,0.0,3.2734,3.3223,3.3633,3.3965,3.4043,3.4297,3.4394,3.3203,3.233,3.1702,0.0,0.0,0.0,0.0,0.0,0.0,0.0,0.0,0.0,0.0,0.0,0.0,3.3455,3.2947,3.2346,0.0,0.0,0.0,0.0,0.0,0.0,0.0,0.0,0.0,0.0,0.0,0.0,0.0,0.0,0.0,0.0,0.0,3.7236,3.7337,3.8291,3.912,3.9672,3.9697,3.9697,3.9697,3.9697,3.9697,3.9697,3.9697,3.9697,3.9697,3.9697,3.9697,3.9697,3.9697,3.9697,3.9697,3.9697,3.9998,4.0551,4.105,4.1656,4.2263,4.276,4.2986,4.3112,4.4217,4.4618,4.4794,0.0,2.9804,2.9955,3.0507,3.1512,3.224,3.2215,3.2918,3.2641,3.0347,2.9337,2.9033,2.9453,2.9671,2.9695,2.9381,2.9128,2.9302,3.0011,3.0754,3.14,3.204,3.322,3.4022,3.4299,3.3646,3.2412,3.0564,2.9584,2.8509,2.7344,2.7344,2.7559,2.8027,2.8867,2.9238,2.9297,3.0176,3.0684,3.0996,3.2285,0.0,3.3223,3.4297,3.4844,3.5039,3.5039,3.4902,3.4531,3.3457,3.2539,0.0,0.0,3.1224,3.1479,0.0,3.2581,3.4229,0.0,0.0,0.0,3.7072,0.0,0.0,0.0,3.4328,3.3619,0.0,0.0,0.0,0.0,0.0,0.0,0.0,0.0,0.0,0.0,0.0,0.0,0.0,0.0,0.0,0.0,0.0,3.6885,3.7161,3.829,3.9045,3.927,3.9546,3.9697,3.9697,3.9697,3.9697,3.9697,3.9697,3.9697,3.9697,3.9697,3.9697,3.9697,3.9697,3.9697,3.9697,3.9697,3.9998,4.0551,4.105,4.1656,4.2263,4.276,4.2986,4.3112,4.4217,4.4618,4.4794,2.9804,2.9804,2.9955,3.0507,3.1888,3.2792,3.2441,3.3721,3.3909,3.1789,3.035,2.9322,2.8681,2.8652,2.8846,2.926,2.8796,2.8964,3.0258,3.126,3.1693,3.141,3.3131,3.416,3.4234,3.3329,3.2276,3.108,2.9802,2.8693,2.7728,2.7728,2.7806,2.7949,2.8961,2.9258,2.9219,3.0215,0.0,3.1152,0.0,3.3301,3.3476,3.5137,3.5762,3.5762,3.5762,3.5312,3.4551,3.3613,0.0,3.2072,3.1172,3.0898,0.0,0.0,0.0,0.0,0.0,0.0,0.0,0.0,0.0,3.5632,0.0,0.0,0.0,0.0,0.0,0.0,0.0,0.0,0.0,0.0,0.0,0.0,0.0,0.0,0.0,0.0,0.0,0.0,0.0,0.0,3.6631,3.7136,3.8115,3.8793,3.8919,3.9396,3.9697,3.9697,3.9697,3.9697,3.9697,3.9697,3.9697,3.9697,3.9697,3.9697,3.9697,3.9697,3.9697,3.9697,3.9697,4.0074,4.0701,4.11,4.1731,4.2414,4.2811,4.2986,4.3112,4.4217,4.4618,4.4794,2.9804,2.9804,2.9955,3.0507,3.1562,3.2466,3.2918,3.3972,3.4675,3.4546,3.2927,3.1844,3.1871,3.0766,3.0311,3.1113,2.877,0.0,3.1655,0.0,2.9011,2.9646,3.1072,3.2083,3.2445,3.31,3.2788,3.1596,3.0953,2.9643,2.7728,2.7728,2.8066,2.8769,2.8535,2.9043,3.0039,0.0,3.0391,0.0,3.248,3.2871,0.0,3.4336,3.4844,3.4844,3.4844,3.4785,3.4512,0.0,3.2559,3.2072,0.0,3.0898,3.0879,0.0,0.0,0.0,0.0,0.0,0.0,0.0,3.5066,0.0,0.0,0.0,3.5208,0.0,0.0,0.0,0.0,0.0,0.0,0.0,0.0,0.0,0.0,0.0,0.0,0.0,0.0,0.0,0.0,0.0,0.0,3.7136,3.7764,3.8341,3.8894,3.9396,3.9697,3.9697,3.9697,3.9697,3.9697,3.9697,3.9697,3.9697,3.9697,3.9697,3.9697,3.9697,3.9697,3.9697,3.9697,4.0275,4.12,4.125,4.1957,4.2942,4.2961,4.2986,4.3112,4.4217,4.4618,4.4794,2.9804,2.9804,2.9955,3.0507,3.1512,0.0,3.2541,3.3114,3.3525,3.3696,3.259,3.179,3.1848,3.1128,3.0742,3.1133,0.0,2.9361,0.0,0.0,3.0315,3.0665,3.2808,3.3933,3.3838,3.3508,3.2932,3.204,3.0232,2.896,2.8027,2.8027,2.8223,2.8555,2.8633,0.0,2.9473,0.0,3.041,0.0,0.0,0.0,0.0,3.4512,3.5098,3.5039,3.4512,3.4336,3.418,0.0,3.2519,0.0,0.0,0.0,0.0,0.0,0.0,0.0,0.0,0.0,0.0,0.0,0.0,0.0,0.0,0.0,3.6727,0.0,0.0,0.0,0.0,0.0,0.0,0.0,0.0,0.0,0.0,0.0,0.0,0.0,0.0,0.0,0.0,0.0,0.0,0.0,0.0,3.8115,3.8341,3.922,3.9697,3.9697,3.9697,3.9697,3.9697,3.9697,3.9697,3.9697,3.9697,3.9697,3.9697,3.9697,3.9697,3.9697,3.9697,3.9948,4.0425,4.1025,4.1551,4.2082,4.2735,4.2986,4.3062,4.3865,4.4342,4.4744,2.998,2.9905,2.9905,3.0306,3.1286,3.219,3.2817,3.2771,3.2848,3.3566,3.2524,3.1858,3.2276,3.186,0.0,0.0,3.1269,3.0664,0.0,0.0,3.0833,0.0,0.0,0.0,0.0,3.3453,3.296,3.2119,3.0475,2.924,2.8457,2.8457,2.8535,2.8652,2.8965,2.9238,2.9492,0.0,3.0605,3.1269,3.1582,3.2285,3.3262,3.4414,3.5,3.5078,3.4219,3.3965,3.3945,3.3086,3.2598,0.0,3.1836,0.0,0.0,0.0,0.0,0.0,3.2473,0.0,0.0,0.0,0.0,0.0,0.0,0.0,0.0,0.0,0.0,0.0,0.0,0.0,0.0,0.0,0.0,0.0,0.0,0.0,0.0,0.0,0.0,0.0,0.0,0.0,0.0,0.0,3.7161,3.7839,3.799,3.8944,3.9546,3.9697,3.9697,3.9697,3.9697,3.9697,3.9697,3.9697,3.9697,3.9697,3.9697,3.9848,3.9923,3.9923,3.9923,4.0099,4.0425,4.1078,4.1451,4.1856,4.266,4.3062,4.3263,4.3815,4.4292,4.4719,3.0482,3.0156,2.9804,2.9804,3.0708,3.2139,3.4324,3.3536,3.3409,3.5419,0.0,0.0,0.0,0.0,0.0,0.0,0.0,3.2266,3.2676,0.0,2.8937,0.0,0.0,2.9816,0.0,0.0,3.31,3.165,3.2564,3.1612,2.8906,2.8906,2.9121,2.9587,2.9607,3.0019,3.0801,3.0371,3.0937,3.219,3.2148,3.291,3.3984,0.0,3.4004,3.4609,3.375,0.0,0.0,3.3086,3.2793,0.0,0.0,0.0,0.0,0.0,0.0,0.0,0.0,0.0,0.0,3.2851,0.0,0.0,0.0,0.0,3.9496,0.0,0.0,0.0,0.0,0.0,0.0,0.0,0.0,0.0,0.0,0.0,0.0,0.0,0.0,0.0,0.0,0.0,0.0,3.5558,3.6584,3.7437,3.799,3.8567,3.9145,3.9672,3.9697,3.9697,3.9697,3.9697,3.9697,3.9697,3.9697,3.9697,3.9722,4.0249,4.0501,4.0501,4.0501,4.1103,4.2087,4.1555,4.1957,4.2936,4.2961,4.3313,4.384,4.4392,4.4618,4.4794,2.9367,2.9955,3.0457,3.0783,3.116,3.1821,3.3171,3.1997,3.1905,0.0,3.372,0.0,0.0,3.5882,3.5859,0.0,0.0,3.4414,3.3691,3.2422,0.0,0.0,0.0,3.176,0.0,0.0,0.0,0.0,3.0748,3.0545,3.0778,2.9481,2.9829,3.1379,3.0171,2.9883,0.0,0.0,0.0,0.0,0.0,3.3594,3.4434,0.0,0.0,3.4199,3.3633,3.334,0.0,3.2891,3.2422,3.1934,3.1777,3.1445,3.1094,3.1094,3.0996,0.0,0.0,0.0,3.1267,3.2758,0.0,0.0,0.0,0.0,0.0,0.0,0.0,0.0,0.0,0.0,0.0,0.0,0.0,0.0,0.0,0.0,0.0,0.0,0.0,0.0,0.0,0.0,0.0,3.4981,3.6031,3.6782,0.0,3.8215,3.8994,3.9145,3.9496,3.9697,3.9697,3.9697,3.9697,3.9697,3.9697,3.9697,3.9697,3.9898,3.9973,3.9998,4.035,4.0727,4.1103,4.1656,4.2108,4.2564,4.3237,4.3639,4.3815,4.4016,4.4543,4.5347,2.9124,2.9959,3.0783,3.1311,3.1315,3.1601,3.2577,3.173,0.0,0.0,3.4138,0.0,3.707,0.0,3.7461,0.0,3.7383,3.6269,3.4219,3.3984,0.0,3.1367,3.2371,0.0,0.0,0.0,0.0,0.0,0.0,3.0799,3.1978,3.0194,3.0465,3.2308,0.0,3.0195,3.0449,3.0449,3.0937,0.0,0.0,3.375,0.0,0.0,3.3945,3.4004,0.0,3.293,3.2578,3.2578,3.2207,3.1758,3.1758,3.1465,3.1113,3.1113,3.1016,3.0918,3.1074,3.1385,0.0,3.3664,3.5091,0.0,3.7979,0.0,0.0,0.0,0.0,0.0,0.0,0.0,0.0,0.0,0.0,0.0,0.0,0.0,0.0,0.0,0.0,0.0,0.0,0.0,3.4806,3.4449,3.5278,3.5956,0.0,0.0,3.8467,3.8919,3.9396,3.9697,3.9697,3.9697,3.9697,3.9697,3.9697,3.9798,3.9998,3.9998,4.0199,4.0576,4.0752,4.1028,4.143,4.2011,4.2313,4.2564,4.3237,4.374,4.4116,4.4317,4.4995,4.5899,2.9719,3.0302,3.0934,3.1436,3.1253,0.0,0.0,0.0,3.3053,0.0,3.4976,3.6016,3.7344,3.8223,3.8711,3.8711,3.9043,3.7851,3.4551,3.543,0.0,0.0,3.2246,3.2266,3.1016,0.0,0.0,0.0,0.0,0.0,3.2406,3.097,3.1083,3.2371,3.1357,0.0,3.0898,3.0898,3.1387,3.2246,3.3066,3.3437,3.3476,3.3418,0.0,3.3926,3.3086,3.2519,3.2148,3.2148,3.2129,3.217,3.217,3.1816,3.1484,3.1484,3.1211,3.0976,3.1387,3.2185,3.3466,3.5288,0.0,0.0,0.0,0.0,3.9697,0.0,0.0,0.0,0.0,0.0,0.0,0.0,0.0,0.0,0.0,0.0,0.0,0.0,0.0,0.0,0.0,3.4781,3.4931,3.3947,3.4374,3.5152,0.0,0.0,3.7688,3.8894,3.9396,3.9697,3.9697,3.9697,3.9697,3.9697,3.9722,3.9998,4.0526,4.0551,4.1128,4.2137,4.1605,4.1982,4.2886,4.2464,4.2564,4.2986,4.3037,4.374,4.4769,4.5321,4.5874,4.6426,2.969,3.1546,3.3093,0.0,3.2479,3.1829,0.0,0.0,0.0,0.0,3.6121,3.8008,3.9961,4.0371,4.0508,4.0508,4.0312,0.0,0.0,0.0,0.0,3.4766,3.4082,3.3301,3.2324,3.2395,0.0,3.0703,0.0,0.0,3.2889,3.2162,3.2238,3.2853,0.0,0.0,3.0898,3.0898,3.1387,3.2207,3.2734,3.3516,0.0,0.0,3.3223,3.3516,3.2988,3.2324,3.168,3.168,3.1484,3.1211,3.1211,3.1133,3.1055,3.1055,3.0976,3.0918,3.1016,3.1249,3.1845,3.3452,3.4825,3.6271,0.0,0.0,0.0,0.0,0.0,0.0,0.0,0.0,0.0,0.0,0.0,0.0,0.0,0.0,0.0,0.0,0.0,0.0,0.0,3.4022,3.3596,3.3319,3.3796,3.46,0.0,0.0,0.0,3.8894,3.9396,3.9697,3.9697,3.9697,3.9697,3.9697,4.0099,4.0375,4.0526,4.0899,4.1225,4.1555,4.1831,4.2162,4.2439,4.2715,4.2916,4.3062,4.389,4.4895,4.5899,4.605,4.6451,4.7004,3.001,3.2332,0.0,3.4575,0.0,0.0,3.2773,3.2614,0.0,3.4544,3.6758,0.0,3.9902,4.0723,4.1094,4.0898,4.0664,0.0,3.8457,0.0,0.0,3.6074,3.5312,3.4336,3.3105,3.2285,0.0,3.0586,0.0,0.0,3.4069,3.3141,3.3218,3.3957,0.0,3.0898,3.0898,3.1094,3.1562,3.2268,3.2617,0.0,0.0,3.3066,3.2715,3.2559,3.2324,3.1816,3.125,3.125,3.1094,3.0898,3.0898,3.0898,3.0898,3.0898,3.0898,3.0937,3.1113,3.1966,3.3084,3.4046,3.5776,3.7423,3.8243,3.9077,3.9697,0.0,0.0,0.0,0.0,0.0,0.0,0.0,0.0,0.0,0.0,0.0,0.0,0.0,0.0,0.0,0.0,3.4299,3.3696,3.3445,3.3721,0.0,0.0,0.0,0.0,3.8467,3.9496,3.9948,3.9697,3.9923,3.9923,3.9697,4.0249,4.0651,4.0824,4.115,4.1551,4.2057,4.2133,4.2338,4.2615,4.3112,4.3338,4.3438,4.4568,4.5397,4.5999,4.6502,4.6878,4.7193,3.0497,3.2763,0.0,0.0,0.0,0.0,0.0,3.3717,0.0,3.4766,0.0,3.875,3.875,4.0098,4.0859,4.0469,0.0,3.9648,3.7754,3.8574,3.8301,3.6445,3.6191,3.5312,3.3633,3.2402,0.0,0.0,0.0,0.0,3.4681,3.3789,3.3845,0.0,0.0,0.0,0.0,3.1269,3.168,0.0,3.248,3.2656,3.2715,3.2656,3.2168,3.1504,3.1445,3.1191,3.0898,3.0898,3.0898,3.0898,3.0898,3.0898,3.0898,3.0898,3.0898,3.0976,3.1328,3.3069,3.4902,3.5636,3.7486,3.9258,3.9645,3.9697,3.9697,3.9697,3.9697,3.9697,0.0,0.0,0.0,0.0,0.0,0.0,0.0,0.0,0.0,0.0,0.0,0.0,0.0,0.0,0.0,0.0,0.0,0.0,0.0,0.0,0.0,0.0,3.9597,0.0,3.9923,0.0,4.035,4.0023,4.0501,4.0978,4.1401,4.1476,4.2082,4.2961,4.2514,4.264,4.3112,4.3614,4.389,4.4116,4.5095,4.5573,4.5824,4.6853,4.728,4.7481,3.0988,0.0,0.0,0.0,0.0,3.4339,3.6589,3.7255,3.7287,3.6494,3.8281,3.9668,3.9668,3.9941,4.0078,4.0019,4.0,0.0,0.0,0.0,0.0,3.8144,3.7109,3.5898,3.4512,3.3555,3.25,0.0,0.0,0.0,3.171,3.3923,0.0,0.0,0.0,0.0,3.0898,3.0976,0.0,3.1641,3.1719,3.1953,3.2246,3.1875,3.1641,3.1465,3.1133,3.0957,3.0898,3.0898,3.0898,3.0898,3.0898,3.0898,3.0898,3.0898,3.0898,3.0918,3.0976,3.1326,3.2285,3.4791,3.574,3.6727,3.9154,3.9697,3.9697,3.9697,3.9697,3.9697,3.9697,0.0,0.0,0.0,0.0,0.0,0.0,0.0,0.0,0.0,0.0,0.0,0.0,0.0,0.0,0.0,0.0,0.0,0.0,0.0,0.0,0.0,0.0,0.0,0.0,0.0,0.0,4.1785,4.1886,4.1961,4.2087,4.2484,4.2785,4.2961,4.2886,4.3137,4.3664,4.3765,4.4342,4.5221,4.5422,4.605,4.6928,4.7531,4.8083,4.851,3.2697,0.0,0.0,0.0,0.0,0.0,0.0,3.8012,0.0,3.6897,3.7773,3.8555,3.8555,3.9355,3.9707,3.9258,3.9219,3.9023,3.8574,3.8144,3.791,3.791,3.6894,0.0,3.4726,3.3437,3.2363,3.1523,0.0,0.0,3.2092,0.0,0.0,3.1977,0.0,3.0898,0.0,0.0,0.0,3.1836,3.1601,3.1777,3.2129,3.168,3.1387,3.1172,3.0957,3.0898,3.0898,3.0898,3.0898,3.0898,3.0898,3.0898,3.0898,3.0898,3.0898,3.0898,3.0898,3.1441,3.2587,3.4736,3.589,3.6972,3.9206,3.9697,3.9697,3.9697,3.9697,3.9697,3.9697,3.9697,0.0,0.0,0.0,0.0,0.0,0.0,0.0,0.0,0.0,0.0,0.0,0.0,0.0,0.0,0.0,0.0,0.0,0.0,0.0,0.0,0.0,0.0,0.0,0.0,0.0,4.1731,4.2062,4.2213,4.2238,4.2791,4.2986,4.2986,4.2986,4.3288,4.384,4.4443,4.5171,4.5949,4.6225,4.6677,4.7168,4.8058,4.8535,4.8812,0.0,3.4842,0.0,0.0,3.7169,0.0,3.6831,3.7677,3.8066,3.707,3.7305,3.7578,3.7578,3.8711,3.9199,3.8496,3.8359,3.8008,3.7344,3.7207,3.7168,3.7168,3.6426,3.5605,3.4726,3.3223,3.2187,0.0,0.0,0.0,0.0,0.0,0.0,0.0,0.0,0.0,0.0,0.0,3.1328,3.1992,3.1562,3.1699,3.2129,3.168,3.1309,3.1016,3.1016,3.0957,3.0898,3.0898,3.0898,3.0898,3.0898,3.0898,3.0898,3.0898,3.0898,3.0898,3.0898,3.1828,3.3146,3.4869,3.6231,3.7619,3.9335,3.9697,3.9697,3.9697,3.9697,3.9697,3.9697,3.9697,0.0,0.0,0.0,0.0,0.0,0.0,0.0,0.0,0.0,0.0,0.0,0.0,0.0,0.0,0.0,0.0,0.0,0.0,0.0,0.0,0.0,4.1053,4.0877,0.0,4.2057,0.0,4.2183,4.2389,4.2389,4.2841,4.3037,4.3162,4.3162,4.3539,4.4242,4.5246,4.5999,4.6527,4.6954,4.728,4.7581,4.846,4.8837,4.9012,0.0,0.0,0.0,0.0,0.0,0.0,0.0,3.7417,3.7949,3.7812,3.8184,3.8457,3.8457,3.8242,3.8066,3.7988,3.7637,3.7383,3.7305,3.6934,3.6738,3.6738,3.6269,3.5605,3.4726,3.3789,3.291,0.0,0.0,0.0,0.0,0.0,0.0,0.0,0.0,0.0,0.0,3.0898,3.1152,3.1543,3.1113,3.1445,3.2129,3.168,3.1504,3.1465,3.1465,3.1211,3.0898,3.0898,3.0898,3.0898,3.0898,3.0898,3.0898,3.0898,3.0898,3.0898,3.0898,3.127,3.227,3.468,3.568,3.6714,3.9149,3.9697,3.9697,3.9697,3.9697,3.9697,3.9697,3.9697,3.9697,0.0,0.0,0.0,0.0,0.0,0.0,0.0,0.0,0.0,0.0,0.0,0.0,0.0,0.0,0.0,0.0,0.0,0.0,3.8015,0.0,4.1053,4.2037,4.2162,0.0,4.3564,4.3112,4.2911,4.2911,4.2961,4.3263,4.374,4.374,4.4342,4.5372,4.5974,4.6552,4.7054,4.7043,4.7732,4.8636,4.8736,4.9088,4.9515,0.0,0.0,0.0,0.0,0.0,0.0,0.0,3.7654,3.7794,3.8592,3.8593,3.8476,3.8223,3.8027,3.793,3.793,3.7305,3.6914,3.6914,3.6523,3.6289,3.6289,3.5879,3.5351,3.4707,3.3867,3.3008,0.0,0.0,0.0,0.0,0.0,0.0,0.0,0.0,3.0898,3.0918,3.1152,3.1523,3.1894,3.1719,3.2012,3.25,3.207,3.1758,3.1523,3.1523,3.125,3.0898,3.0898,3.0898,3.0898,3.0898,3.0898,3.0898,3.0898,3.0898,3.0937,3.1191,3.1387,3.1978,3.3862,3.5141,3.6317,3.7969,3.9077,3.9697,3.9697,3.9697,3.9697,3.9697,3.9697,3.9697,0.0,0.0,0.0,0.0,0.0,0.0,0.0,0.0,0.0,0.0,0.0,0.0,0.0,0.0,0.0,0.0,0.0,0.0,3.8517,0.0,4.1229,4.1656,4.2308,4.2861,4.3313,4.3087,4.2986,4.2986,4.3313,4.3765,4.4317,4.4669,4.507,4.5547,4.6451,4.6928,4.7143,4.7857,4.8385,4.8812,4.9138,4.9414,4.959,3.4636,0.0,3.6764,0.0,3.7593,3.7415,3.8406,3.765,3.7213,3.8132,3.8217,3.8086,3.7773,3.7637,3.7559,3.7559,3.6894,3.6484,3.6484,3.6191,3.6016,3.6016,3.5742,0.0,3.4707,3.3984,3.3144,3.2229,3.1738,0.0,0.0,0.0,0.0,0.0,3.0898,3.0898,3.0918,3.1348,3.1777,3.2229,3.2229,3.2422,3.2754,3.2461,3.2012,3.1543,3.166,3.1348,3.0898,3.0898,3.0898,3.0898,3.0898,3.0898,3.0898,3.0898,3.0976,3.1133,3.1445,3.1699,3.2196,3.3592,3.5035,3.6376,3.7432,3.8855,3.9948,3.9948,3.9798,3.9697,3.9697,3.9697,3.9697,3.9697,0.0,0.0,0.0,0.0,0.0,0.0,0.0,3.8919,3.8919,0.0,0.0,0.0,0.0,0.0,0.0,0.0,0.0,0.0,0.0,0.0,0.0,4.2434,4.2986,4.2986,4.2986,4.3062,4.3237,4.3966,4.4518,4.492,4.5472,4.5824,4.6024,4.6803,4.733,4.7682,4.846,4.8862,4.9063,4.9464,4.959,4.959,3.3639,3.6121,3.8109,3.7445,3.7633,3.8052,3.8534,3.7126,3.6035,3.6035,3.6777,3.7305,3.7305,3.6934,3.668,3.668,3.6289,3.6035,3.6035,3.6016,3.6016,0.0,0.0,3.5605,3.4726,3.4277,3.3437,3.2229,0.0,0.0,3.0195,0.0,3.0449,3.0898,3.0898,3.0898,3.0918,3.1348,3.1777,3.2229,3.2229,3.2422,3.2793,3.2793,3.2266,3.1582,3.2012,3.1621,3.0898,3.0898,3.0898,3.0898,3.0898,3.0898,3.0898,3.0898,3.1191,3.1504,3.1523,3.2129,3.3026,3.4093,3.5475,3.6838,3.7841,3.9365,4.0501,4.0501,4.0074,3.9697,3.9697,3.9697,3.9697,3.9697,0.0,0.0,0.0,0.0,0.0,0.0,3.922,3.8919,3.8919,0.0,0.0,0.0,0.0,0.0,0.0,0.0,0.0,3.8919,4.0475,0.0,4.1275,4.2434,4.2986,4.2986,4.2986,4.3263,4.384,4.4945,4.5472,4.5522,4.6075,4.6602,4.7043,4.7068,4.7782,4.8761,4.8761,4.9113,4.959,4.959,4.959,4.959,3.5402,3.5625,3.6185,3.8388,3.8274,3.8073,3.8534,3.8154,3.7755,3.7755,3.6981,3.6426,3.6426,3.6582,3.6777,0.0,3.6445,3.6152,0.0,3.6191,3.6016,3.6016,3.5742,3.5312,3.4707,3.4297,3.3594,3.2598,0.0,0.0,0.0,3.0664,3.0742,3.0898,3.1191,3.1328,3.1367,3.209,3.2461,3.2617,3.291,3.3105,3.3223,3.3223,3.2871,3.2402,3.2559,3.2051,3.1328,3.1328,3.1133,3.0898,3.0898,3.0898,3.0898,3.0898,3.1191,3.1582,3.1875,3.2363,3.3045,3.4152,3.5475,3.6805,3.7527,3.8879,4.0074,4.045,4.0074,3.9697,3.9697,3.9697,3.9697,3.9697,0.0,0.0,0.0,0.0,0.0,0.0,3.9546,3.9421,0.0,3.927,0.0,0.0,0.0,0.0,0.0,0.0,0.0,0.0,4.0824,0.0,4.2459,4.2811,4.3363,4.4091,4.3714,4.4041,4.497,4.5321,4.5698,4.6075,4.6627,4.6979,4.7143,4.7933,4.846,4.8812,4.9188,4.9439,4.959,4.959,4.959,4.964,3.4832,3.604,3.7144,3.8255,3.885,3.9036,3.8437,3.8199,3.7957,3.7668,3.6674,3.6016,3.6016,3.6269,0.0,3.6797,3.6191,3.5898,3.6172,3.5781,3.5527,3.5527,3.5273,3.4922,3.4473,0.0,0.0,3.2793,3.2207,3.1562,3.0898,3.0898,3.0898,3.0918,3.1328,3.1523,3.1582,3.2422,3.2695,3.2617,3.3184,3.3125,3.2734,3.3066,3.2734,3.2109,3.2266,3.1875,3.1309,3.1465,3.1348,3.1152,3.1328,3.1367,3.1328,3.1172,3.1543,3.2031,3.2129,3.2598,3.3158,3.3659,3.4893,3.6396,3.7981,3.9222,4.0224,4.0978,4.0526,4.0074,4.0275,3.9973,3.9772,3.9973,3.9823,3.9697,3.9697,0.0,0.0,0.0,0.0,0.0,0.0,4.0074,0.0,0.0,0.0,0.0,0.0,0.0,0.0,4.0501,4.1455,0.0,4.2961,4.3388,4.394,4.4618,4.4493,4.4794,4.5497,4.5924,4.6301,4.6652,4.7179,4.7556,4.7807,4.8485,4.8887,4.9113,4.9464,4.959,4.9615,4.9816,4.9916,4.9992,3.2734,3.7057,0.0,0.0,3.9424,0.0,3.8338,3.7634,3.7009,3.6265,3.6064,3.6016,3.6016,3.6016,3.6016,3.5976,0.0,0.0,0.0,3.4961,3.4707,3.4707,3.4668,3.4473,3.4082,3.4023,3.3555,3.2715,3.1914,3.1309,3.0898,3.0898,3.0898,3.0957,3.1367,3.1582,3.166,3.248,3.2617,3.2324,3.3105,3.2715,3.1738,3.2539,3.2109,3.1113,3.1504,3.1387,3.1074,3.1465,3.1582,3.1641,3.2031,3.2187,3.2129,3.168,3.2148,3.2715,3.2324,3.2812,3.332,3.3015,3.4126,3.6108,3.9216,4.0251,4.0877,4.1986,4.1304,4.0727,4.12,4.0501,3.9973,4.045,4.0099,3.9747,3.9697,0.0,0.0,0.0,0.0,0.0,0.0,4.0676,4.0824,0.0,0.0,0.0,0.0,0.0,4.0626,4.0626,4.2183,4.3062,4.3162,4.4141,4.4644,4.4694,4.5321,4.5598,4.5648,4.6702,4.7179,4.723,4.7732,4.8259,4.8761,4.8812,4.9138,4.959,4.959,4.959,4.9665,5.0218,5.0419,5.0494,0.0,0.0,3.7389,3.9708,4.0822,4.0854,3.9335,3.9393,3.9021,3.7529,3.6589,3.6016,3.6016,3.6016,3.5898,3.5566,3.5449,3.5391,3.5391,3.4961,3.4707,3.4707,3.4394,3.418,3.4082,3.3437,3.2676,3.1816,3.1621,3.1309,3.0898,3.0898,3.1055,3.1387,3.1816,3.2187,3.2519,3.3047,3.3223,3.3144,3.334,3.3242,3.2988,3.3203,3.3086,3.2832,3.293,3.2695,3.2363,3.2461,3.2285,3.2031,3.2129,3.2383,3.2559,3.2148,3.2383,3.2773,3.2676,3.3027,3.3552,3.433,3.626,3.8611,4.1072,4.1334,4.1329,4.2062,4.1605,4.1125,4.125,4.1075,4.0852,4.0576,4.04,4.0174,3.9747,3.9697,0.0,0.0,4.0174,4.0475,4.0325,4.0551,4.0953,0.0,0.0,0.0,0.0,0.0,4.181,4.181,4.2961,4.4016,4.4895,4.4719,4.4844,4.5296,4.6276,4.6753,4.6753,4.7431,4.7732,4.7757,4.8309,4.8636,4.8812,4.9213,4.949,4.959,4.959,4.959,4.9665,5.0218,5.0419,5.0569,3.5294,3.5622,3.6363,3.935,4.047,4.0728,3.9775,3.9779,3.9506,3.8308,3.6898,3.6016,3.6016,3.6016,3.5859,3.543,3.5195,3.5,3.4805,3.4375,3.4121,3.4121,3.3906,3.3769,3.3769,3.3125,3.2383,3.1523,3.1523,3.1309,3.0898,3.1094,3.1309,3.1543,3.2168,3.2578,3.2832,3.3242,3.3203,3.2871,3.3262,3.3066,3.2598,3.2988,3.3008,3.2851,3.2851,3.2695,3.2539,3.2734,3.2637,3.248,3.2676,3.2891,3.3027,3.2812,3.291,3.3047,3.2851,3.3105,3.3737,3.5045,3.7381,3.969,4.1167,4.1588,4.1856,4.2464,4.2082,4.1781,4.2032,4.1681,4.1175,4.0899,4.0676,4.0325,3.9772,3.9697,0.0,4.0049,4.0551,4.0902,4.0902,4.1354,4.1681,4.1781,0.0,0.0,4.2162,4.2861,4.3062,4.2615,4.4091,4.5246,4.5849,4.6024,4.6175,4.625,4.7079,4.7481,4.7506,4.8058,4.8309,4.8335,4.8912,4.9163,4.9163,4.9464,4.9741,4.9967,4.9967,5.0117,5.0444,5.0996,5.1197,5.1322,3.4348,3.5576,3.6855,3.832,3.9873,4.0785,4.0258,4.0021,3.9619,3.8871,3.736,3.6287,3.6016,3.6016,3.5859,3.543,3.4961,3.4531,3.4101,3.373,3.3496,3.3418,3.3418,3.3398,3.332,3.2851,3.2207,3.1426,3.1426,3.1269,3.0996,3.1348,3.1582,3.1738,3.2461,3.2832,3.291,3.3262,3.3008,3.2422,3.3144,3.2773,3.1875,3.2617,3.2676,3.2363,3.2363,3.2363,3.2422,3.2773,3.2891,3.2949,3.3301,3.3418,3.3418,3.3418,3.3418,3.334,3.2988,3.3332,3.4195,3.6051,3.8241,4.0102,4.0784,4.1668,4.2489,4.2986,4.2791,4.2615,4.3011,4.2333,4.1601,4.1426,4.1003,4.045,3.9898,0.0,3.9998,4.045,4.1078,4.1451,4.1526,4.2434,4.2735,4.2078,4.2635,0.0,0.0,4.4091,4.4392,4.3614,4.5447,4.6476,4.6552,4.7456,4.7682,4.7255,4.7782,4.8033,4.8058,4.8636,4.8887,4.8937,4.949,4.9715,4.9715,4.9816,5.0117,5.0544,5.0544,5.0845,5.1348,5.19,5.2101,5.2176,3.5159,3.7367,3.9554,4.0093,4.1558,4.2619,4.2485,4.2027,4.1098,3.9592,3.8679,3.7642,3.6152,3.6016,3.5859,3.543,3.4961,3.4531,3.4101,3.4004,3.3809,3.3437,3.3418,3.3262,3.2891,3.2129,3.1484,3.0996,3.0996,3.1133,3.1426,3.1484,3.1894,3.2598,3.2734,3.2988,3.332,3.3398,3.334,3.3242,3.3379,3.3301,3.3144,3.3281,3.3281,3.3223,3.3223,3.3223,3.3242,3.3301,3.332,3.334,3.3398,3.3418,3.3418,3.3418,3.3418,3.3418,3.334,3.4322,3.6173,3.9089,4.0174,4.0841,4.2294,4.2743,4.3011,4.3564,4.3614,4.3564,4.3664,4.3539,4.3112,4.2238,4.158,4.0974,4.0475,0.0,4.0425,4.0501,4.1404,4.2263,4.2685,4.2886,4.3689,4.5422,4.394,4.3966,4.625,4.5723,4.5698,4.6451,4.6828,4.7205,4.7657,4.7832,4.7857,4.7782,4.836,4.8636,4.8661,4.9213,4.9464,4.949,5.0042,5.0293,5.0318,5.082,5.1071,5.1147,5.1147,5.1197,5.1348,5.19,5.2101,5.2176,3.7511,3.7744,3.8602,4.1395,4.1785,4.211,4.325,4.2384,4.1565,4.1376,3.9471,3.7951,3.7488,3.6539,3.5859,3.543,3.5195,3.4785,3.4121,3.3848,3.3633,3.3437,3.3418,3.3125,3.248,3.1836,3.1309,3.0898,3.0898,3.1113,3.1523,3.1758,3.2207,3.2812,3.3027,3.3242,3.3418,3.3418,3.3281,3.3105,3.332,3.3281,3.3105,3.334,3.3418,3.3418,3.3418,3.3418,3.3418,3.3418,3.3418,3.3418,3.3418,3.3418,3.3418,3.3418,3.3418,3.3607,3.4425,3.5867,3.7664,3.9989,4.1465,4.2512,4.3244,4.3639,4.394,4.4192,4.4242,4.4141,4.3865,4.379,4.3539,4.2791,4.1882,0.0,0.0,4.0701,4.0727,4.1329,4.2108,4.3062,4.4217,4.4342,4.4869,4.62,4.5347,4.5472,4.6993,4.6652,4.6878,4.7983,4.8008,4.8134,4.836,4.8661,4.8661,4.8385,4.9238,4.9515,4.9238,5.0117,5.0343,5.0067,5.0645,5.087,5.0896,5.1172,5.1448,5.1724,5.1724,5.19,5.2201,5.2452,5.2553,5.2578,3.9231,3.8426,3.8557,4.1842,4.1728,4.1679,4.3369,4.2552,4.2005,4.2637,4.054,3.9045,3.9192,3.7642,3.6428,3.5991,3.5559,3.4902,3.4121,3.3672,3.3379,3.3281,3.3086,3.2676,3.2031,3.1601,3.1211,3.0898,3.0898,3.1152,3.168,3.2012,3.2441,3.2949,3.3281,3.3418,3.3418,3.3418,3.3242,3.2969,3.3301,3.3223,3.2969,3.3301,3.3418,3.3418,3.3418,3.3418,3.3418,3.3418,3.3418,3.3418,3.3418,3.3418,3.3418,3.3418,3.365,3.432,3.5928,3.7632,3.9354,4.0956,4.2684,4.3991,4.3991,4.4317,4.4669,4.4794,4.4819,4.4694,4.4267,4.4192,4.3966,4.3288,0.0,0.0,0.0,4.1279,4.1404,4.2313,4.3062,4.4116,4.5547,4.5799,4.615,4.6828,4.6753,4.6979,4.7682,4.7707,4.8209,4.9314,4.9238,4.9163,4.9163,4.9565,4.9565,4.9163,5.0017,5.0268,5.0017,5.0896,5.1046,5.0645,5.1222,5.1473,5.1473,5.1599,5.1925,5.2302,5.2302,5.2553,5.2929,5.2929,5.2929,5.2929,3.8798,4.0568,4.2125,4.0937,4.1899,4.2874,4.3037,4.335,4.3276,4.2281,4.2394,4.2149,4.1136,3.9431,3.8232,3.7752,3.5861,3.4551,3.4101,3.3672,3.3242,3.2851,3.207,3.1621,3.1562,3.1152,3.0918,3.0898,3.0898,3.1309,3.2129,3.2148,3.2598,3.3379,3.3418,3.3418,3.3418,3.3418,3.3398,3.3379,3.3418,3.3398,3.3379,3.3418,3.3418,3.3418,3.3418,3.3418,3.3418,3.3418,3.3418,3.3418,3.3418,3.3418,3.3418,3.3418,3.4425,3.599,3.7626,3.9574,4.1564,4.3144,4.4026,4.4568,4.4568,4.4593,4.4769,4.5321,4.5422,4.5422,4.5372,4.5372,4.502,4.3915,0.0,0.0,4.2213,4.2509,4.2836,4.2911,4.4317,4.5547,4.6175,4.6702,4.7456,4.851,4.8083,4.8259,4.9364,4.9414,4.9941,5.1071,5.0569,5.0293,5.0293,5.0343,5.0343,5.0293,5.0368,5.067,5.1172,5.1247,5.1247,5.1247,5.18,5.2051,5.2076,5.2603,5.2829,5.2879,5.2879,5.2904,5.2929,5.2929,5.2929,5.2929,4.12,4.1362,4.1615,4.2012,4.2625,4.2986,4.2986,4.3162,4.3362,4.3653,4.2891,4.2475,4.2739,3.9993,3.8094,3.7926,3.5711,3.4238,3.4082,3.3672,3.3242,3.2812,3.248,3.207,3.1523,3.1367,3.1152,3.0898,3.0898,3.1191,3.1777,3.2051,3.248,3.3047,3.3301,3.3418,3.3418,3.3418,3.3418,3.3418,3.3418,3.4027,3.4922,3.4922,3.4922,3.4922,3.4922,3.4258,3.3418,3.3418,3.3418,3.3418,3.3418,3.3418,3.3646,3.5019,3.6556,3.8194,4.0223,4.1058,4.1883,4.3788,4.4744,4.5171,4.5171,4.5698,4.625,4.6451,4.6778,4.6778,4.6125,4.5999,4.5748,4.497,0.0,4.3539,4.3664,4.3865,4.4141,4.4493,4.5698,4.6853,4.7757,4.8033,4.8611,4.9715,4.959,4.9816,5.0594,5.0645,5.0996,5.1774,5.1574,5.1297,5.0946,5.0946,5.0946,5.0971,5.1297,5.1398,5.1297,5.2,5.2126,5.1825,5.2377,5.2628,5.2628,5.2829,5.2929,5.2929,5.2929,5.2929,5.2929,5.2929,5.2929,5.2929,4.2793,4.2093,4.1728,4.2793,4.2986,4.2986,4.2986,4.2986,4.3363,4.4468,4.3576,4.324,4.4159,4.0937,3.8616,3.8252,3.5709,3.4023,3.3887,3.3594,3.3242,3.2812,3.2676,3.2266,3.1543,3.1523,3.1309,3.0898,3.0898,3.1172,3.1738,3.2031,3.2461,3.3008,3.3301,3.3418,3.3418,3.3418,3.3713,3.4133,3.4133,3.5088,3.6539,3.6539,3.6685,3.6753,3.6222,3.5396,3.4615,3.4615,3.4615,3.4595,3.4455,3.4415,3.4873,3.702,3.8758,4.0514,4.2724,4.3141,4.3305,4.4752,4.5573,4.605,4.6225,4.6828,4.738,4.738,4.7657,4.7682,4.6954,4.6803,4.6627,4.61,4.5347,4.492,4.5121,4.5296,4.5547,4.5949,4.6979,4.8008,4.8937,4.9188,4.969,5.0619,5.0695,5.0946,5.1498,5.1548,5.18,5.2352,5.2352,5.2176,5.18,5.1624,5.1548,5.1548,5.1925,5.2,5.1825,5.2578,5.2729,5.2377,5.2754,5.2929,5.2929,5.2929,5.2929,5.2929,5.2929,5.2929,5.2929,5.2929,5.2929,5.2929,4.2986,4.2986,4.2986,4.2986,4.2986,4.2986,4.2986,4.2986,4.3363,4.4493,4.4618,4.4844,4.5422,4.2518,4.0078,3.9113,3.6039,3.3887,3.3457,3.3418,3.3242,3.2812,3.2402,3.1973,3.1523,3.1523,3.1309,3.0898,3.0898,3.1328,3.2168,3.2229,3.2617,3.3418,3.3418,3.3418,3.3418,3.3418,3.432,3.5806,3.5806,3.6781,3.8223,3.8223,3.8515,3.878,3.7143,3.6897,3.7318,3.7318,3.7318,3.7234,3.6855,3.6707,3.7103,3.9135,4.0953,4.2808,4.4908,4.5899,4.6326,4.6326,4.6728,4.728,4.7782,4.7908,4.7908,4.7908,4.7933,4.7933,4.7933,4.7933,4.7757,4.723,4.7093,4.6954,4.6401,4.6803,4.7093,4.7093,4.8134,4.9012,4.9565,5.0092,5.067,5.1247,5.1297,5.1523,5.2076,5.2126,5.2352,5.2904,5.2929,5.2929,5.2929,5.2377,5.2126,5.2126,5.2126,5.2402,5.2929,5.2929,5.2929,5.2929,5.2929,5.2929,5.2929,5.2929,5.2929,5.2929,5.2929,5.2929,5.2929,5.2929,5.2929,5.2929,4.2986,4.2986,4.2986,4.2986,4.2986,4.3112,4.3489,4.3212,4.3514,4.502,4.4543,4.4568,4.5924,4.3144,4.069,3.9701,3.6993,3.4754,3.3481,3.3418,3.3359,3.3242,3.3105,3.2559,3.1543,3.1816,3.1621,3.0898,3.0898,3.1172,3.1719,3.2031,3.2461,3.2988,3.3281,3.3418,3.3481,3.4612,3.4736,3.432,3.6599,3.7805,3.8342,3.9464,4.02,4.0644,4.0108,3.9582,3.9122,3.9122,3.9122,3.9099,3.9007,3.8962,3.9383,4.1445,4.2465,4.3433,4.5928,4.6753,4.6878,4.6878,4.728,4.7707,4.7883,4.8209,4.851,4.851,4.9138,4.954,4.9163,4.9088,4.8912,4.836,4.7933,4.7631,4.7456,4.8259,4.8862,4.8862,4.9841,5.0594,5.077,5.0921,5.1247,5.1825,5.2226,5.2503,5.2678,5.2678,5.2754,5.2929,5.2929,5.2929,5.2929,5.2754,5.2678,5.2678,5.2678,5.2779,5.2929,5.2929,5.2929,5.2929,5.2929,5.2929,5.2929,5.2929,5.2929,5.2929,5.2929,5.2929,5.2929,5.2929,5.2929,5.2929,4.2986,4.2986,4.2986,4.2986,4.2986,4.3087,4.3413,4.3388,4.3664,4.4694,4.4418,4.4443,4.5221,4.3003,4.0809,3.934,3.6553,3.4425,3.3481,3.3418,3.3418,3.3418,3.4027,3.3552,3.1797,3.2655,3.2376,3.0898,3.1055,3.1348,3.1777,3.2207,3.2637,3.3047,3.3301,3.3418,3.3481,3.515,3.5622,3.552,3.8104,3.9522,4.021,4.1408,4.219,4.2618,4.2162,4.17,4.1383,4.1383,4.133,4.1192,4.1337,4.1307,4.1445,4.2928,4.3975,4.5074,4.6623,4.7456,4.7832,4.8058,4.8184,4.8309,4.8535,4.9012,4.9414,4.9414,5.0142,5.067,5.0318,5.0268,5.0167,4.9816,4.9464,4.9238,4.9238,4.9841,5.0268,5.0268,5.087,5.1373,5.1599,5.1599,5.1825,5.2402,5.2729,5.2929,5.2929,5.2929,5.2929,5.2929,5.2929,5.2929,5.2929,5.2929,5.2929,5.2929,5.2929,5.2929,5.2929,5.2929,5.2929,5.2929,5.2929,5.2929,5.2929,5.2929,5.2929,5.2929,5.2929,5.2929,5.2929,5.2929,5.2929,5.2929,4.2986,4.2986,4.2986,4.2986,4.2986,4.2986,4.3037,4.3438,4.3765,4.3865,4.4217,4.4317,4.3915,4.2452,4.0705,3.867,3.5479,3.3544,3.3418,3.3418,3.3481,3.3607,3.515,3.5002,3.2712,3.3932,3.3402,3.1016,3.1387,3.1797,3.2226,3.2617,3.3008,3.3418,3.3418,3.3418,3.3544,3.5273,3.6781,3.8164,4.0071,4.1615,4.2843,4.3532,4.4141,4.4461,4.3506,4.3463,4.3917,4.3917,4.3668,4.3442,4.3836,4.3692,4.3514,4.3907,4.5539,4.7143,4.7255,4.8033,4.8987,4.954,4.9339,4.9138,4.964,5.0142,5.0494,5.0494,5.0946,5.1348,5.1348,5.1348,5.1348,5.1348,5.1322,5.1272,5.1272,5.1322,5.1348,5.1348,5.1398,5.1624,5.2126,5.2176,5.2377,5.2879,5.2929,5.2929,5.2929,5.2929,5.2929,5.2929,5.2929,5.2929,5.2929,5.2929,5.2929,5.2929,5.2929,5.2929,5.2929,5.2929,5.2929,5.2929,5.2929,5.2929,5.2929,5.2929,5.2929,5.2929,5.2929,5.2929,5.2929,5.2929,5.2929,5.2929,4.2986,4.2986,4.2986,4.2986,4.2986,4.3112,4.3564,4.3363,4.3463,4.4342,4.379,4.3614,4.4367,4.338,4.2136,4.0811,3.7401,3.4736,3.3481,3.3418,3.3965,3.5211,3.6842,3.7279,3.6435,3.5525,3.4019,3.1894,3.1992,3.2246,3.2656,3.2754,3.3008,3.3418,3.3418,3.3418,3.3607,3.6478,3.7122,3.6699,4.0822,4.1899,4.132,4.3109,4.4141,4.4636,4.4833,4.526,4.5732,4.5732,4.5657,4.5643,4.5682,4.593,4.6228,4.6327,4.6997,4.7832,4.8284,4.8912,4.954,5.0092,5.0494,5.077,5.0896,5.0996,5.1096,5.1096,5.1548,5.1925,5.1925,5.1925,5.1925,5.1925,5.1548,5.1272,5.1272,5.1649,5.1925,5.1925,5.2302,5.2628,5.2729,5.2754,5.2804,5.2929,5.2929,5.2929,5.2929,5.2929,5.2929,5.2929,5.2929,5.2929,5.2929,5.2929,5.2929,5.2929,5.2929,5.2929,5.2929,5.2929,5.2929,5.2929,5.2929,5.2929,5.2929,5.2929,5.2929,5.2929,5.2929,5.2929,5.2929,5.2929,5.2929,5.2929,4.2986,4.2986,4.2986,4.2986,4.2986,4.3062,4.3363,4.3388,4.3489,4.379,4.379,4.389,4.4192,4.3714,4.2814,4.1529,3.8875,3.6982,3.6142,3.583,3.6072,3.6881,3.8521,3.8879,3.7901,3.782,3.6307,3.3315,3.3518,3.3335,3.2793,3.3008,3.3203,3.3418,3.3418,3.3839,3.4736,3.7144,3.8164,3.8379,4.1647,4.2662,4.2283,4.3679,4.4543,4.5095,4.5673,4.6075,4.6301,4.6301,4.6476,4.6702,4.6702,4.7079,4.7506,4.7506,4.7883,4.8435,4.9012,4.9565,5.0193,5.1021,5.1448,5.1599,5.1348,5.1498,5.1674,5.1674,5.2126,5.2503,5.2503,5.2503,5.2503,5.2503,5.2251,5.2076,5.2076,5.2327,5.2503,5.2503,5.2754,5.2929,5.2929,5.2929,5.2929,5.2929,5.2929,5.2929,5.2929,5.2929,5.2929,5.2929,5.2929,5.2929,5.2929,5.2929,5.2929,5.2929,5.2929,5.2929,5.2929,5.2929,5.2929,5.2929,5.2929,5.2929,5.2929,5.2929,5.2929,5.2929,5.2929,5.2929,5.2929,5.2929,5.2929,5.2929,4.2986,4.2986,4.2986,4.2986,4.2986,4.3011,4.3112,4.3514,4.3639,4.3162,4.3991,4.4367,4.374,4.374,4.3185,4.1696,4.0214,3.9304,3.9023,3.8582,3.8432,3.858,3.9966,4.0199,3.9053,4.0361,3.9105,3.5125,3.5529,3.5018,3.3737,3.4035,3.407,3.3839,3.3839,3.4383,3.5499,3.7385,3.8994,4.0361,4.2263,4.3313,4.3865,4.4418,4.4995,4.5573,4.6125,4.6301,4.6301,4.6301,4.6677,4.7068,4.7068,4.7556,4.8058,4.8058,4.8535,4.9163,4.9615,5.0218,5.0921,5.1875,5.2176,5.2126,5.1674,5.1925,5.2251,5.2251,5.2603,5.2929,5.2929,5.2929,5.2929,5.2929,5.2929,5.2929,5.2929,5.2929,5.2929,5.2929,5.2929,5.2929,5.2929,5.2929,5.2929,5.2929,5.2929,5.2929,5.2929,5.2929,5.2929,5.2929,5.2929,5.2929,5.2929,5.2929,5.2929,5.2929,5.2929,5.2929,5.2929,5.2929,5.2929,5.2929,5.2929,5.2929,5.2929,5.2929,5.2929,5.2929,5.2929,5.2929,5.2929,5.2929,5.2929,5.2929,4.2986,4.2986,4.2986,4.2986,4.2986,4.3137,4.3614,4.374,4.3765,4.3689,4.4242,4.4242,4.3212,4.3514,4.3391,4.2281,4.152,4.0466,3.9084,3.8956,3.9331,4.0245,4.0903,4.1591,4.2344,4.2569,4.1061,3.7725,3.7792,3.7695,3.7478,3.7544,3.6842,3.5499,3.5499,3.486,3.3902,3.6902,3.8342,3.8817,4.1785,4.3313,4.3865,4.4418,4.4995,4.5573,4.6125,4.6301,4.6301,4.6301,4.6677,4.7068,4.7068,4.7832,4.8661,4.8661,4.9389,5.0218,5.0293,5.1071,5.1925,5.2076,5.2477,5.2804,5.2729,5.2754,5.2804,5.2804,5.2879,5.2929,5.2929,5.2929,5.2929,5.2929,5.2929,5.2929,5.2929,5.2929,5.2929,5.2929,5.2929,5.2929,5.2929,5.2929,5.2929,5.2929,5.2929,5.2929,5.2929,5.2929,5.2929,5.2929,5.2929,5.2929,5.2929,5.2929,5.2929,5.2929,5.2929,5.2929,5.2929,5.2929,5.2929,5.2929,5.2929,5.2929,5.2929,5.2929,5.2929,5.2929,5.2929,5.2929,5.2929,5.2929,5.2929,5.2929,4.2986,4.2986,4.2986,4.2986,4.2986,4.3162,4.3714,4.3539,4.3463,4.3765,4.4016,4.3991,4.3489,4.4217,4.4461,4.3659,4.3649,4.3256,4.2208,4.2125,4.2059,4.1948,4.2471,4.2806,4.2986,4.2986,4.2319,4.088,3.9989,3.9053,3.8223,3.8223,3.7303,3.5806,3.61,3.5645,3.4922,3.7488,3.8948,3.9779,4.2413,4.3765,4.4317,4.4895,4.5447,4.5974,4.6225,4.6301,4.6351,4.6677,4.7129,4.7631,4.7933,4.8586,4.9289,4.9615,5.0042,5.0544,5.1197,5.1724,5.2176,5.2477,5.2754,5.2929,5.2929,5.2929,5.2929,5.2929,5.2929,5.2929,5.2929,5.2929,5.2929,5.2929,5.2929,5.2929,5.2929,5.2929,5.2929,5.2929,5.2929,5.2929,5.2929,5.2929,5.2929,5.2929,5.2929,5.2929,5.2929,5.2929,5.2929,5.2929,5.2929,5.2929,5.2929,5.2929,5.2929,5.2929,5.2929,5.2929,5.2929,5.2929,5.2929,5.2929,5.2929,5.2929,5.2929,5.2929,5.2929,5.2929,5.2929,5.2929,5.2929,5.2929,5.2929,5.2929]}]]